     2              OBSERVATION DATA    GPS                 RINEX VERSION / TYPE
teqc 2000Feb29 20020409 20:45:03UTC                         PGM / RUN BY / DATE
                                                            COMMENT
L2: 1 -> 1; 150 -> 5; 250 -> 9                              COMMENT
L2: 1 -> 1; 150 -> 5; 250 -> 9                              COMMENT
L2: 1 -> 1; 150 -> 5; 250 -> 9                              COMMENT
L2: 1 -> 1; 150 -> 5; 250 -> 9                              COMMENT
L2: 1 -> 1; 150 -> 5; 250 -> 9                              COMMENT
Original Marker Name: VA01                                  COMMENT
Campaign Name: Northern Baja                                COMMENT
4-Character Station Name: VA01                              COMMENT
6-Character Antenna Code: DMRCHT                            COMMENT
Vertical Measurement Point: BCR                             COMMENT
Vertical Offset to Rinex Ref. Point: 0.0348                 COMMENT
Radial Measurement Point: ECF                               COMMENT
Radial Offset to Rinex Ref. Point: 0.1897                   COMMENT
Antenna Height from Field Measurement: 0.9487 m             COMMENT
Additional Antenna Identification Info.:                    COMMENT
Turborogue and Ashtech Choke Ring                           COMMENT
Original XYZ: -2297513.6337 -4970673.9398 3259301.9485      COMMENT
New XYZ position is based on association with SCEC monument COMMENT
E1C8H2L8+0011. Position of that monument is believed to be  COMMENT
valid to within 1 m horizontally; vertical accuracy         COMMENT
should be no worse than 3-times this value.                 COMMENT
                                                            COMMENT
Revised Rinex header created by UCSD GPS archive for        COMMENT
GSAC on 27-Jun-2003 (2003:178) 15:44:11 GMT                 COMMENT
For assistance contact dagnew@ucsd.edu                      COMMENT
or anderson@python.ucsd.edu                                 COMMENT
                                                            COMMENT
JELIPE-CICESE                                               MARKER NAME
JGG CICESE (ENSENADA)                                       OBSERVER / AGENCY
734 ASHTECH Z-XII3 CC00                                     REC # / TYPE / VERS
05003 DORNE-MARGOL. TYPE T                                  ANT # / TYPE
 -2414357.5142 -4830231.1678  3383662.4498                  APPROX POSITION XYZ
        0.8947        0.0000        0.0000                  ANTENNA: DELTA H/E/N
     1     1     0                                          WAVELENGTH FACT L1/2
     7    C1    L1    L2    P1    P2    S1    S2            # / TYPES OF OBSERV
     0                                                      INTERVAL
  2002     2    13     1    11   30.000000                  TIME OF FIRST OBS
  2002     2    13    16     0   30.000000                  TIME OF LAST OBS
                                                            END OF HEADER
 02  2 13  1 11 30.0000000  0  9G30G15G26G23G 5G 6G18G17G10
                    159839.48549    113276.58343
       229.000          74.000
  22775136.664     -279941.53249   -200711.94046  22775136.201    22775148.646
       227.000         177.000
  22997701.711     -316778.17549   -229721.44646  22997700.353    22997712.656
       223.000         167.000
  20742509.609     -138861.88349    -99722.21848  20742509.190    20742518.373
       244.000         214.000
                    157282.45449    109576.41843
       207.000          74.000
  20523331.420     -167766.81749   -116522.92748  20523331.313    20523340.206
       244.000         215.000
  22932732.302     -382965.41549   -254247.45646  22932731.790    22932742.960
       227.000         172.000
  21995951.179     -217627.03449   -157614.10247  21995950.840    21995961.629
       237.000         197.000
  22771742.400      167835.40749    121714.81446  22771740.992    22771753.762
       226.000         177.000
 02  2 13  1 12  0.0000000  0  9G30G15G26G23G 5G 6G18G17G10
                   -844325.77449   -799849.49943
       229.000          74.000
  22555300.970    -1435183.38749  -1100900.28946  22555301.090    22555313.627
       227.000         177.000
  22775268.484    -1485652.51249  -1140532.50546  22775270.778    22775282.564
       221.000         168.000
  20532020.158    -1244994.50049   -961643.69848  20532019.149    20532028.143
       244.000         214.000
                   -834232.75149   -663032.95944                  24470930.984
       210.000         131.000
  20312023.754    -1278195.39549   -981791.91948  20312023.709    20312032.469
       244.000         215.000
  22706164.814    -1573584.54149  -1182002.45046  22706165.019    22706176.880
       228.000         173.000
  21780050.582    -1352193.37849  -1041691.70547  21780049.635    21780060.769
       237.000         197.000
  22580600.505     -836633.77249   -660988.51746  22580596.948    22580609.552
       226.000         177.000
 02  2 13  1 12 30.0000000  0  9G30G15G26G23G 5G 6G18G17G10
                   -752552.86749   -728241.06843
       230.000          74.000
  22544002.035    -1494560.88149  -1147168.34746  22544000.803    22544013.479
       226.000         177.000
  22761406.802    -1558501.62949  -1197297.88346  22761407.416    22761420.671
       222.000         169.000
  20530133.715    -1254906.71149   -969367.46148  20530132.975    20530141.977
       244.000         214.000
  24490732.762     -730092.37849   -581884.85945  24490731.729    24490748.289
       211.000         142.000
  20309297.923    -1292520.39749   -992954.22348  20309297.936    20309306.521
       244.000         215.000
  22688155.614    -1668224.32249  -1255747.55746  22688155.497    22688166.149
       227.000         174.000
  21772685.104    -1390899.22549  -1071852.04447  21772684.604    21772695.336
       237.000         197.000
  22598009.973     -745141.14349   -589695.62446  22598007.515    22598020.548
       226.000         177.000
 02  2 13  1 13  0.0000000  0  9G30G15G26G23G 5G 6G18G17G10
                   -660540.11149   -656374.16943
       229.000          74.000
  22532734.355    -1553773.16649  -1193307.67746  22532733.553    22532746.892
       227.000         178.000
  22747607.121    -1631021.46849  -1253806.73646  22747608.778    22747620.266
       224.000         168.000
  20528346.728    -1264296.73249   -976684.32248  20528346.122    20528355.009
       244.000         214.000
  24510541.907     -625993.74949   -500769.29445  24510541.835    24510557.481
       206.000         143.000
  20306649.442    -1306438.26649  -1003799.28648  20306649.299    20306657.920
       244.000         215.000
  22670199.819    -1762582.58849  -1329273.30946  22670199.457    22670209.839
       228.000         173.000
  21765350.384    -1429443.23949  -1101886.28147  21765349.792    21765360.228
       237.000         198.000
  22615470.174     -653384.85549   -518197.28146  22615468.297    22615481.607
       226.000         177.000
 02  2 13  1 13 30.0000000  0  9G30G15G26G23G 5G 6G18G17G10
                   -568298.93149   -715765.84845                  22341866.379
       229.000         162.000
  22521496.456    -1612828.90049  -1239325.02046  22521495.413    22521508.484
       228.000         178.000
  22733869.018    -1703216.96149  -1310062.79646  22733869.380    22733881.520
       223.000         170.000
  20526657.508    -1273173.44749   -983601.20848  20526656.851    20526665.965
       244.000         214.000
  24530341.169     -521947.99949   -419694.89045  24530340.339    24530356.716
       206.000         142.000
  20304077.184    -1319955.74049  -1014332.35048  20304077.020    20304085.762
       244.000         215.000
  22652296.400    -1856665.66849  -1402584.63046  22652295.042    22652307.105
       228.000         174.000
  21758044.763    -1467834.27749  -1131801.31247  21758044.389    21758055.043
       238.000         198.000
  22632978.728     -561375.90649   -446502.07846  22632977.556    22632989.874
       228.000         176.000
 02  2 13  1 14  0.0000000  0  9G30G15G26G23G 5G 6G18G17G10
  22359450.592     -475832.55449   -643714.19646  22359450.964    22359461.716
       229.000         178.000
  22510288.234    -1671728.47249  -1285220.68046  22510287.402    22510300.417
       229.000         179.000
  22720193.098    -1775085.06349  -1366063.76246  22720193.088    22720205.920
       223.000         170.000
  20525065.832    -1281537.64749   -990118.72948  20525065.193    20525074.376
       244.000         214.000
  24550129.827     -417957.75149   -338663.75145  24550128.829    24550145.762
       208.000         142.000
  20301581.291    -1333071.75249  -1024552.58748  20301581.128    20301589.957
       244.000         215.000
  22634445.611    -1950472.03349  -1475680.34346  22634445.100    22634456.212
       228.000         175.000
  21750768.134    -1506073.34549  -1161597.92847  21750767.407    21750778.098
       237.000         198.000
  22650534.756     -469117.82849   -374612.72146  22650532.922    22650546.470
       228.000         176.000
 02  2 13  1 14 30.0000000  0  9G30G15G26G23G 5G 6G18G17G10
  22377088.912     -383142.63649   -571488.35346  22377089.134    22377100.284
       229.000         180.000
  22499109.937    -1730470.61149  -1330993.65146  22499108.831    22499121.848
       228.000         179.000
  22706580.259    -1846621.06849  -1421805.96546  22706580.352    22706591.963
       223.000         170.000
  20523571.864    -1289388.35049   -996236.12348  20523571.117    20523580.373
       244.000         214.000
  24569907.895     -314024.03049   -257676.68345  24569906.678    24569923.619
       206.000         141.000
  20299162.362    -1345783.25649  -1034457.62548  20299162.132    20299170.903
       244.000         215.000
  22616648.044    -2043998.35049  -1548557.83046  22616647.920    22616658.114
       227.000         175.000
  21743520.604    -1544159.19849  -1191275.15447  21743520.104    21743530.507
       237.000         198.000
  22668138.019     -376611.65149   -302530.04546  22668136.526    22668148.814
       225.000         176.000
 02  2 13  1 15  0.0000000  0 10G30G15G26G23G 5G 6G22G18G17G10
  22394768.029     -290238.38349   -499095.50846  22394768.524    22394779.121
       229.000         180.000
  22487960.391    -1789061.76549  -1376648.98046  22487959.729    22487972.867
       229.000         179.000
  22693030.147    -1917827.60349  -1477291.42246  22693029.253    22693041.881
       221.000         169.000
  20522174.335    -1296732.24049  -1001958.59848  20522173.845    20522182.872
       244.000         214.000
  24589673.552     -210155.45849   -176740.35945  24589672.564    24589690.040
       204.000         140.000
  20296819.556    -1358094.86549  -1044051.05548  20296819.524    20296828.319
       244.000         215.000
  24301820.463    -1837563.72449  -1172612.34545  24301818.621    24301836.081
       205.000         140.000
  22598903.014    -2137248.61449  -1621220.21846  22598903.145    22598913.521
       228.000         175.000
  21736300.958    -1582098.43449  -1220838.12747  21736300.472    21736311.143
       237.000         198.000
  22685786.809     -283866.16149   -230260.89946  22685785.997    22685797.881
       224.000         175.000
 02  2 13  1 15 30.0000000  0 10G30G15G26G23G 5G 6G22G18G17G10
  22412488.102     -197118.98649   -426535.00746  22412488.897    22412499.674
       228.000         180.000
  22476840.282    -1847498.40549  -1422183.90346  22476839.738    22476852.125
       229.000         180.000
  22679543.863    -1988697.75049  -1532514.73946  22679543.089    22679555.886
       224.000         170.000
  20520873.843    -1303566.20949  -1007283.72948  20520873.465    20520882.238
       244.000         214.000
  24609427.070     -106350.82249    -95853.88645  24609426.788    24609443.112
       208.000         141.000
  20294553.870    -1370001.35549  -1053328.80848  20294553.753    20294562.191
       245.000         215.000
  24289884.145    -1900288.63249  -1221488.66045  24289882.414    24289900.654
       207.000         141.000
  22581211.610    -2230217.18249  -1693663.09346  22581211.223    22581221.867
       229.000         176.000
  21729109.918    -1619887.66549  -1250284.21947  21729109.471    21729120.021
       237.000         198.000
  22703481.335     -190880.76149   -157804.79646  22703480.018    22703492.170
       224.000         175.000
 02  2 13  1 16  0.0000000  0 10G30G15G26G23G 5G 6G22G18G17G10
  22430249.238     -103783.90549   -353806.45046  22430249.831    22430260.740
       228.000         180.000
  22465750.186    -1905777.05449  -1467595.72046  22465749.275    22465761.783
       229.000         180.000
  22666123.016    -2059224.39349  -1587470.44246  22666123.149    22666134.944
       223.000         170.000
  20519670.986    -1309887.24549  -1012209.18048  20519670.428    20519679.471
       244.000         214.000
  24629168.585       -2608.78049    -15016.17445  24629168.032    24629184.763
       209.000         139.000
  20292366.178    -1381497.74849  -1062287.00948  20292366.047    20292374.686
       244.000         216.000
  24278031.005    -1962576.86449  -1270024.71445  24278029.520    24278046.696
       208.000         141.000
  22563574.905    -2322898.30149  -1765881.99446  22563574.283    22563585.061
       229.000         176.000
  21721947.975    -1657523.75349  -1279610.98247  21721947.489    21721957.998
       237.000         198.000
  22721221.727      -97654.46149    -85160.99446  22721220.776    22721233.257
       227.000         175.000
 02  2 13  1 16 30.0000000  0 10G30G15G26G23G 5G 6G22G18G17G10
  22448050.623      -10237.56049   -280913.26746  22448051.178    22448061.718
       228.000         180.000
  22454689.845    -1963899.38449  -1512885.72946  22454689.062    22454701.187
       229.000         180.000
  22652767.891    -2129405.81549  -1642157.11146  22652767.485    22652779.953
       221.000         170.000
  20518565.332    -1315697.37549  -1016736.52048  20518564.703    20518573.792
       244.000         214.000
  24648897.567      101066.75049     65769.70145  24648897.703    24648914.775
       207.000         139.000
  20290256.551    -1392584.11249  -1070925.70748  20290256.348    20290264.883
       244.000         215.000
  24266260.922    -2024428.18549  -1318220.32345  24266259.188    24266276.249
       207.000         141.000
  22545992.876    -2415292.03549  -1837876.96546  22545991.875    22546002.661
       228.000         177.000
  21714814.819    -1695008.60749  -1308819.89947  21714814.287    21714824.824
       237.000         199.000
  22739007.188       -4191.35149    -12332.66746  22739005.814    22739018.580
       228.000         175.000
 02  2 13  1 17  0.0000000  0 10G30G15G26G23G 5G 6G22G18G17G10
  22465891.511       83516.56349   -207858.18346  22465891.707    22465903.049
       228.000         179.000
  22443659.007    -2021866.09449  -1558054.45846  22443658.079    22443671.263
       229.000         180.000
  22639479.040    -2199238.94749  -1696572.39546  22639478.435    22639490.826
       224.000         170.000
  20517556.724    -1320997.69149  -1020866.60348  20517556.261    20517565.111
       244.000         214.000
  24668613.298      204673.03649    146501.61845  24668613.734    24668630.668
       205.000         139.000
  20288225.137    -1403259.26949  -1079243.98348  20288225.164    20288233.559
       244.000         216.000
  24254574.373    -2085841.19349  -1366074.40145  24254572.859    24254591.230
       205.000         141.000
  22528465.863    -2507396.54449  -1909646.54446  22528465.738    22528475.618
       229.000         177.000
  21707710.265    -1732343.16949  -1337911.70347  21707709.655    21707720.228
       237.000         199.000
  22756837.094       89505.27849     60677.61846  22756837.199    22756848.696
       227.000         174.000
 02  2 13  1 17 30.0000000  0 10G30G15G26G23G 5G 6G22G18G17G10
  22483771.295      177474.97649   -134643.91246  22483771.419    22483783.063
       228.000         179.000
  22432657.691    -2079677.93449  -1603102.51846  22432656.385    22432669.445
       228.000         180.000
  22626257.057    -2268720.86649  -1750714.00946  22626257.618    22626269.192
       222.000         170.000
  20516644.979    -1325789.14549  -1024600.17448  20516644.473    20516653.323
       244.000         214.000
  24688315.358      308207.05849    227177.22945  24688315.075    24688332.214
       202.000         138.000
  20286272.144    -1413522.27249  -1087241.10348  20286271.956    20286280.626
       244.000         216.000
  24242971.338    -2146814.65449  -1413585.94145  24242969.901    24242986.612
       210.000         142.000
  22510994.191    -2599210.35449  -1981189.62146  22510993.354    22511004.041
       229.000         178.000
  21700634.231    -1769527.91249  -1366886.77147  21700633.864    21700644.416
       237.000         199.000
  22774710.934      183432.40749    133867.54146  22774709.657    22774722.975
       225.000         174.000
 02  2 13  1 18  0.0000000  0 10G30G15G26G23G 5G 6G22G18G17G10
  22501689.343      271634.41949    -61272.99046  22501690.254    22501700.515
       228.000         179.000
  22421685.760    -2137335.30649  -1648030.21246  22421685.150    22421696.873
       229.000         180.000
  22613102.417    -2337848.71149  -1804579.70946  22613102.395    22613113.593
       221.000         171.000
  20515829.779    -1330073.02249  -1027938.22648  20515829.337    20515838.195
       244.000         214.000
  24708003.136      411665.96449    307794.31445  24708003.855    24708019.765
       202.000         137.000
  20284397.783    -1423372.13349  -1094916.29348  20284397.684    20284406.361
       245.000         216.000
  24231452.266    -2207347.15749  -1460753.90045  24231451.065    24231468.808
       207.000         142.000
  22493578.096    -2690732.06049  -2052505.07446  22493577.121    22493587.355
       229.000         178.000
  21693586.481    -1806564.08749  -1395746.06947  21693585.773    21693596.537
       238.000         199.000
  22792628.013      277586.92349    207234.62346  22792627.682    22792640.384
       225.000         174.000
 02  2 13  1 18 30.0000000  0 10G30G15G26G23G 5G 6G22G18G17G10
  22519645.072      365991.88249     12252.22346  22519645.754    22519656.795
       229.000         179.000
  22410743.261    -2194838.19949  -1692837.51946  22410742.216    22410754.795
       229.000         180.000
  22600015.808    -2406619.06249  -1858166.84946  22600015.885    22600026.927
       223.000         171.000
  20515111.074    -1333849.77249  -1030881.11748  20515110.525    20515119.472
       244.000         214.000
  24727676.243      515047.70649    388351.27345  24727674.947    24727691.119
       203.000         137.000
  20282602.355    -1432807.22649  -1102268.28748  20282602.227    20282610.892
       244.000         216.000
  24220017.492    -2267436.76249  -1507576.73245  24220017.071    24220033.365
       209.000         144.000
  22476218.009    -2781959.50849  -2123591.23946  22476217.159    22476227.582
       229.000         179.000
  21686566.966    -1843451.71149  -1424489.61347  21686566.313    21686576.858
       237.000         199.000
  22810587.887      371966.21849    280776.86646  22810587.019    22810599.812
       226.000         174.000
 02  2 13  1 19  0.0000000  0 10G30G15G26G23G 5G 6G22G18G17G10
  22537637.763      460543.43249     85928.67446  22537638.128    22537649.551
       228.000         179.000
  22399829.835    -2252188.18349  -1737525.68646  22399828.811    22399841.196
       228.000         180.000
  22586997.631    -2475029.70149  -1911473.71446  22586997.967    22587008.863
       220.000         171.000
  20514488.521    -1337121.16649  -1033430.21948  20514488.005    20514496.872
       244.000         214.000
  24747333.946      618348.67049    468845.25145  24747334.887    24747350.929
       202.000         136.000
  20280885.915    -1441827.27049  -1109296.86448  20280885.645    20280894.220
       244.000         215.000
  24208667.042    -2327082.82649  -1554053.94945  24208667.198    24208683.321
       210.000         144.000
  22458914.042    -2872892.02049  -2194447.57946  22458913.618    22458923.959
       230.000         179.000
  21679575.429    -1880192.34849  -1453118.61947  21679574.703    21679585.210
       237.000         199.000
  22828589.743      466566.13749    354491.00946  22828588.777    22828600.743
       225.000         174.000
 02  2 13  1 19 30.0000000  0 10G30G15G26G23G 5G 6G22G18G17G10
  22555666.844      555286.50749    159754.36246  22555667.286    22555678.734
       228.000         178.000
  22388945.613    -2309384.69949  -1782094.26746  22388944.516    22388956.877
       229.000         181.000
  22574048.581    -2543076.45149  -1964496.98546  22574047.592    22574060.320
       222.000         171.000
  20513962.151    -1339887.18949  -1035585.53248  20513961.720    20513970.588
       244.000         214.000
  24766975.998      721567.22449    549275.03645  24766976.449    24766993.497
       208.000         135.000
  20279248.806    -1450430.21849  -1116000.43648  20279248.478    20279257.285
       244.000         215.000
  24197401.581    -2386282.91849  -1600183.65645  24197400.818    24197417.628
       209.000         144.000
  22441666.677    -2963527.02949  -2265072.10546  22441665.868    22441676.234
       230.000         179.000
  21672611.933    -1916785.62949  -1481632.81047  21672611.573    21672621.828
       237.000         199.000
  22846633.200      561384.59949    428375.44946  22846633.285    22846644.651
       228.000         174.000
 02  2 13  1 20  0.0000000  0 10G30G15G26G23G 5G 6G22G18G17G10
  22573731.896      650218.45749    233727.23446  22573732.690    22573743.482
       227.000         179.000
  22378090.697    -2366427.64549  -1826543.17646  22378089.361    22378101.929
       229.000         181.000
  22561169.468    -2610755.96549  -2017234.13346  22561169.048    22561180.765
       226.000         171.000
  20513531.844    -1342148.48249  -1037347.54248  20513531.398    20513540.336
       244.000         214.000
  24786601.835      824701.03349    629638.77445  24786603.951    24786616.016
       207.000         135.000
  20277691.378    -1458614.47149  -1122377.74848  20277691.147    20277699.767
       245.000         215.000
  24186221.208    -2445035.05549  -1645964.31545  24186219.938    24186238.026
       208.000         144.000
  22424476.338    -3053862.43849  -2335463.16846  22424475.738    22424485.612
       230.000         180.000
  21665676.415    -1953231.65749  -1510032.25047  21665675.755    21665686.240
       237.000         199.000
  22864717.808      656419.53449    502428.56746  22864718.025    22864730.219
       226.000         173.000
 02  2 13  1 20 30.0000000  0  9G30G15G26G23G 6G22G18G17G10
  22591832.689      745338.29549    307846.49746  22591832.900    22591843.981
       228.000         178.000
  22367265.230    -2423315.22549  -1870871.02446  22367264.005    22367276.478
       229.000         181.000
  22548361.380    -2678062.77049  -2069680.87646  22548361.554    22548372.419
       223.000         172.000
  20513197.827    -1343903.64849  -1038715.17548  20513197.459    20513206.552
       244.000         214.000
  20276214.325    -1466376.55049  -1128426.10048  20276214.129    20276222.743
       244.000         215.000
  24175126.696    -2503335.60149  -1691393.08445  24175125.399    24175143.013
       208.000         145.000
  22407343.819    -3143894.10749  -2405617.56446  22407343.109    22407353.348
       230.000         180.000
  21658769.226    -1989529.01149  -1538315.84447  21658768.626    21658779.096
       237.000         199.000
  22882843.536      751670.31149    576649.88146  22882842.548    22882855.904
       223.000         173.000
 02  2 13  1 21  0.0000000  0  9G30G15G26G23G 6G22G18G17G10
  22609968.524      840642.31049    382109.28146  22609969.204    22609980.504
       227.000         178.000
  22356469.203    -2480048.35049  -1915078.52046  22356467.699    22356481.010
       228.000         181.000
  22535624.632    -2744994.57849  -2121835.37146  22535624.602    22535636.525
       225.000         173.000
  20512959.846    -1345154.20149  -1039689.59648  20512959.364    20512968.219
       244.000         214.000
  20274817.732    -1473715.71349  -1134144.90148  20274817.546    20274826.176
       244.000         215.000
  24164118.410    -2561183.69349  -1736469.28845  24164116.540    24164134.854
       210.000         145.000
  22390269.268    -3233621.15249  -2475534.57646  22390268.580    22390278.588
       231.000         180.000
  21651890.129    -2025678.63449  -1566484.31947  21651889.559    21651899.998
       237.000         199.000
  22901009.561      847133.15249    651036.44546  22901009.491    22901021.095
       225.000         173.000
 02  2 13  1 21 30.0000000  0  9G30G15G26G23G 6G22G18G17G10
  22628138.190      936124.24449    456510.69546  22628138.636    22628150.396
       226.000         178.000
  22345701.849    -2536630.67549  -1959168.51746  22345701.493    22345713.111
       229.000         181.000
  22522959.197    -2811551.15749  -2173697.50446  22522959.120    22522970.224
       225.000         172.000
  20512817.136    -1345904.10649  -1040273.90548  20512816.573    20512825.454
       244.000         214.000
  20273501.212    -1480633.99749  -1139535.75048  20273500.917    20273509.545
       245.000         215.000
  24153195.904    -2618580.72049  -1781194.02645  24153193.992    24153211.545
       210.000         146.000
  22373252.372    -3323045.02249  -2545215.35846  22373251.790    22373261.913
       230.000         181.000
  21645038.464    -2061684.24349  -1594540.57947  21645037.712    21645048.307
       237.000         199.000
  22919214.835      942802.08749    725583.57346  22919215.048    22919225.753
       225.000         172.000
 02  2 13  1 22  0.0000000  0  9G30G15G26G23G 6G22G18G17G10
  22646341.322     1031781.94449    531049.06946  22646340.834    22646353.095
       226.000         177.000
  22334963.298    -2593061.41449  -2003140.38246  22334962.657    22334974.500
       230.000         181.000
  22510366.026    -2877728.33449  -2225263.98946  22510366.008    22510377.083
       224.000         173.000
  20512769.728    -1346153.26849  -1040468.02148  20512769.205    20512778.224
       244.000         214.000
  20272265.201    -1487129.14749  -1144596.87948  20272264.933    20272273.636
       244.000         215.000
  24142359.741    -2675524.32549  -1825565.45345  24142357.754    24142376.136
       209.000         148.000
  22356293.739    -3412162.78849  -2614657.61346  22356293.100    22356303.246
       231.000         181.000
  21638214.301    -2097545.30749  -1622484.20947  21638213.866    21638224.046
       237.000         199.000
  22937459.018     1038675.43949    800290.02646  22937458.168    22937470.663
       222.000         172.000
 02  2 13  1 22 30.0000000  0  9G30G15G26G23G 6G22G18G17G10
  22664577.403     1127613.04549    605722.55646  22664578.019    22664589.771
       226.000         177.000
  22324253.731    -2649340.00849  -2046993.70046  22324253.021    22324264.963
       230.000         182.000
  22497845.714    -2943522.50449  -2276532.03246  22497846.315    22497856.499
       223.000         173.000
  20512817.542    -1345901.95849  -1040272.16348  20512817.022    20512825.824
       244.000         214.000
  20271110.133    -1493199.06349  -1149326.66048  20271109.923    20271118.482
       244.000         215.000
  24131610.372    -2732012.16749  -1869581.74645  24131609.265    24131626.021
       210.000         148.000
  22339393.767    -3500971.95949  -2683859.41546  22339393.470    22339403.129
       231.000         181.000
  21631417.686    -2133261.65349  -1650315.06747  21631417.241    21631427.443
       238.000         200.000
  22955741.686     1134751.12049    875154.12546  22955740.951    22955753.552
       225.000         172.000
 02  2 13  1 23  0.0000000  0  9G30G15G26G23G 6G22G18G17G10
  22682845.826     1223613.90749    680528.32746  22682846.292    22682857.267
       225.000         176.000
  22313573.016    -2705467.41049  -2090729.21246  22313571.656    22313583.894
       230.000         182.000
  22485398.835    -3008930.76149  -2327499.34946  22485398.363    22485409.762
       223.000         173.000
  20512960.293    -1345151.67949  -1039687.49548  20512959.694    20512968.598
       244.000         214.000
  20270036.113    -1498843.06549  -1153724.56348  20270035.946    20270044.476
       245.000         215.000
  24120947.892    -2788043.25649  -1913242.12345  24120946.486    24120963.440
       211.000         149.000
  22322552.733    -3589471.60149  -2752820.01946  22322551.549    22322562.220
       231.000         182.000
  21624648.416    -2168834.15949  -1678033.84247  21624647.718    21624658.453
       238.000         200.000
  22974062.227     1231025.99449    950173.42546  22974063.097    22974074.232
       226.000         171.000
 02  2 13  1 23 30.0000000  0  9G30G15G26G23G 6G22G18G17G10
  22701146.134     1319782.08449    755464.47346  22701147.333    22701158.094
       226.000         176.000
  22302921.065    -2761443.34249  -2134346.69246  22302919.730    22302931.864
       230.000         182.000
  22473026.115    -3073949.37249  -2378163.04746  22473026.078    22473037.650
       225.000         173.000
  20513197.957    -1343902.68949  -1038714.22048  20513197.309    20513206.424
       244.000         214.000
  20269043.480    -1504059.29749  -1157789.13448  20269043.243    20269051.930
       244.000         215.000
  24110372.798    -2843615.39449  -1956544.89745  24110371.337    24110388.911
       210.000         149.000
  22305771.077    -3677659.07949  -2821537.37146  22305770.097    22305780.649
       231.000         182.000
  21617906.562    -2204262.65249  -1705640.40147  21617905.835    21617916.516
       238.000         200.000
  22992420.280     1327497.76349   1025346.15346  22992420.079    22992431.530
       224.000         171.000
 02  2 13  1 24  0.0000000  0  9G30G15G26G23G 6G22G18G17G10
  22719477.675     1416114.55249    830528.63346  22719478.592    22719489.430
       226.000         175.000
  22292297.920    -2817267.78849  -2177846.13146  22292296.944    22292309.012
       230.000         182.000
  22460728.200    -3138575.13749  -2428520.65146  22460728.171    22460738.753
       226.000         174.000
  20513530.354    -1342155.83249  -1037352.99948  20513529.839    20513538.699
       244.000         214.000
  20268132.499    -1508846.52749  -1161519.42148  20268132.354    20268140.961
       244.000         215.000
  24099885.311    -2898727.06349  -1999488.84845  24099884.147    24099900.702
       210.000         148.000
  22289049.201    -3765532.62949  -2890010.11546  22289048.393    22289058.516
       232.000         182.000
  21611192.039    -2239547.52849  -1733135.05047  21611191.384    21611201.553
       237.000         200.000
  23010815.333     1424164.00149   1100670.42546  23010815.434    23010826.673
       225.000         170.000
 02  2 13  1 24 30.0000000  0  9G30G15G26G23G 6G22G18G17G10
  22737839.919     1512608.46549    905718.59946  22737840.161    22737851.928
       225.000         175.000
  22281703.570    -2872941.16949  -2221227.86546  22281702.458    22281714.329
       231.000         182.000
  22448505.568    -3202804.85149  -2478569.63346  22448505.543    22448516.728
       226.000         175.000
  20513957.311    -1339912.02649  -1035604.54348  20513956.533    20513965.634
       244.000         214.000
  20267303.436    -1513203.26649  -1164914.25848  20267303.188    20267311.857
       244.000         215.000
  24089485.734    -2953376.67749  -2042072.76945  24089485.846    24089501.167
       212.000         149.000
  22272387.352    -3853090.67249  -2958237.01546  22272386.947    22272396.651
       232.000         183.000
  21604504.842    -2274689.07549  -1760518.01547  21604504.213    21604514.527
       237.000         200.000
  23029246.808     1521021.70849   1176143.89246  23029246.614    23029257.238
       224.000         170.000
 02  2 13  1 25  0.0000000  0  9G30G15G26G23G 6G22G18G17G10
  22756232.329     1609260.82249    981032.02746  22756232.818    22756244.624
       226.000         175.000
  22271137.943    -2928463.44049  -2264491.84746  22271137.203    22271149.147
       230.000         182.000
  22436359.059    -3266635.14649  -2528307.38546  22436358.732    22436370.155
       226.000         175.000
  20514478.671    -1337172.23849  -1033469.60748  20514478.112    20514487.025
       243.000         214.000
  20266556.537    -1517128.16149  -1167972.59248  20266556.285    20266565.149
       244.000         215.000
  24079174.307    -3007562.49049  -2084295.29145  24079172.895    24079189.496
       211.000         148.000
  22255785.949    -3940331.21949  -3026216.50346  22255784.861    22255795.184
       232.000         183.000
  21597844.797    -2309687.41349  -1787789.38947  21597844.324    21597854.539
       238.000         200.000
  23047714.313     1618068.73749   1251764.89846  23047713.080    23047726.113
       221.000         170.000
 02  2 13  1 25 30.0000000  0  9G30G15G26G23G 6G22G18G17G10
  22774654.422     1706068.91249   1056466.80446  22774655.064    22774665.891
       225.000         174.000
  22260601.051    -2983834.77349  -2307638.23046  22260600.067    22260611.921
       231.000         182.000
  22424289.140    -3330062.75149  -2577731.35146  22424288.038    22424300.548
       224.000         175.000
  20515094.268    -1333937.28649  -1030948.83548  20515093.706    20515102.588
       244.000         214.000
  20265892.094    -1520619.89149  -1170693.40048  20265891.765    20265900.525
       244.000         215.000
  24068951.508    -3061282.90949  -2126155.17845  24068950.692    24068966.739
       208.000         148.000
  22239245.350    -4027252.32049  -3093947.08246  22239244.531    22239254.686
       232.000         183.000
  21591212.008    -2344542.96749  -1814949.51147  21591211.355    21591221.819
       238.000         200.000
  23066217.298     1715302.28649   1327531.23346  23066216.960    23066229.930
       223.000         169.000
 02  2 13  1 26  0.0000000  0  9G30G15G26G23G 6G22G18G17G10
  22793105.500     1803029.51049   1132020.40846  22793105.551    22793117.730
       225.000         174.000
  22250092.914    -3039055.25149  -2350667.06146  22250092.372    22250103.925
       229.000         183.000
  22412296.354    -3393084.53249  -2626839.09246  22412295.561    22412307.326
       225.000         176.000
  20515803.920    -1330208.01549  -1028042.87448  20515803.345    20515812.046
       244.000         214.000
  20265310.274    -1523677.32149  -1173075.78948  20265310.168    20265318.457
       244.000         215.000
  24058817.544    -3114536.60549  -2167651.39145  24058817.078    24058833.812
       210.000         147.000
  22222765.806    -4113852.17949  -3161427.34146  22222765.330    22222775.021
       232.000         184.000
  21584606.221    -2379256.35449  -1841998.84447  21584605.788    21584615.955
       239.000         201.000
  23084755.234     1812719.52149   1403440.69946  23084754.477    23084766.341
       224.000         169.000
 02  2 13  1 26 30.0000000  0  9G30G15G26G23G 6G22G18G17G10
  22811584.848     1900138.72749   1207689.82046  22811584.998    22811597.686
       225.000         173.000
  22239613.214    -3094125.88449  -2393579.13446  22239612.437    22239624.246
       230.000         183.000
  22400381.224    -3455698.17849  -2675628.79046  22400380.369    22400392.547
       228.000         176.000
  20516607.261    -1325986.28649  -1024753.18348  20516606.729    20516615.432
       244.000         214.000
  20264811.210    -1526299.96949  -1175119.39348  20264811.043    20264819.531
       245.000         215.000
  24048772.463    -3167322.79449  -2208783.28945  24048771.692    24048787.009
       211.000         146.000
  22206347.540    -4200130.02049  -3228656.68346  22206346.746    22206356.321
       231.000         184.000
  21578027.378    -2413828.50549  -1868938.12847  21578026.783    21578037.116
       239.000         201.000
  23103327.519     1910317.28449   1479490.81846  23103326.650    23103338.912
       221.000         169.000
 02  2 13  1 27  0.0000000  0  9G30G15G26G23G 6G22G18G17G10
  22830092.149     1997394.88749   1283473.73546  22830092.446    22830104.540
       225.000         173.000
  22229162.256    -3149045.75949  -2436373.72746  22229160.982    22229173.564
       230.000         183.000
  22388544.640    -3517899.33949  -2724097.11846  22388544.623    22388554.978
       227.000         176.000
  20517504.366    -1321271.98149  -1021079.66948  20517503.768    20517512.478
       243.000         214.000
  20264395.299    -1528485.59949  -1176822.46348  20264395.021    20264403.585
       244.000         215.000
  24038816.851    -3219638.85149  -2249548.85545  24038815.284    24038832.221
       210.000         145.000
  22189991.113    -4286082.91249  -3295632.81446  22189990.189    22190000.434
       232.000         184.000
  21571475.482    -2448258.66949  -1895766.77247  21571474.759    21571485.377
       239.000         201.000
  23121933.883     2008094.13449   1555680.52146  23121932.879    23121945.681
       220.000         168.000
 02  2 13  1 27 30.0000000  0  9G30G15G26G23G 6G22G18G17G10
  22848626.769     2094794.46749   1359369.40246  22848627.145    22848638.777
       226.000         172.000
  22218739.798    -3203815.75749  -2479051.55146  22218739.117    22218750.992
       230.000         184.000
  22376787.108    -3579685.49449  -2772242.02246  22376786.643    22376797.851
       226.000         176.000
  20518494.881    -1316066.67049  -1017023.55048  20518494.342    20518503.053
       244.000         214.000
  20264062.726    -1530233.30649  -1178184.29548  20264062.491    20264071.127
       244.000         215.000
  24028950.907    -3271483.84749  -2289947.37445  24028950.224    24028965.664
       208.000         144.000
  22173696.790    -4371709.49649  -3362354.67946  22173695.930    22173706.330
       233.000         185.000
  21564950.455    -2482547.73549  -1922485.46847  21564949.866    21564960.276
       239.000         201.000
  23140573.673     2106046.72449   1632007.14846  23140574.454    23140584.969
       224.000         168.000
 02  2 13  1 28  0.0000000  0  9G30G15G26G23G 6G22G18G17G10
  22867188.131     2192334.42349   1435374.46046  22867188.825    22867199.616
       225.000         172.000
  22208345.841    -3258435.98849  -2521612.67046  22208344.953    22208356.604
       230.000         184.000
  22365109.086    -3641053.28449  -2820060.95346  22365109.127    22365119.482
       227.000         177.000
  20519578.649    -1310371.30649  -1012585.57348  20519578.032    20519586.838
       244.000         214.000
  20263813.729    -1531541.77649  -1179203.86348  20263813.514    20263821.894
       244.000         215.000
  24019175.030    -3322856.20049  -2329977.59845  24019174.561    24019190.397
       208.000         145.000
  22157464.890    -4457008.10749  -3428820.98746  22157464.297    22157473.783
       233.000         185.000
  21558452.237    -2516695.87349  -1949094.35647  21558451.684    21558461.984
       239.000         201.000
  23159246.450     2204172.36049   1708468.58746  23159246.247    23159257.533
       218.000         167.000
 02  2 13  1 28 30.0000000  0  9G30G15G26G23G 6G22G18G17G10
  22885775.580     2290011.84649   1511486.63146  22885775.687    22885787.651
       224.000         171.000
  22197980.328    -3312906.73549  -2564057.30946  22197979.928    22197991.623
       230.000         184.000
  22353511.370    -3701999.78849  -2867551.60946  22353511.056    22353521.280
       226.000         177.000
  20520755.480    -1304186.92649  -1007766.54948  20520754.987    20520763.806
       243.000         214.000
  20263648.479    -1532410.10549  -1179880.46948  20263648.298    20263656.663
       244.000         215.000
  24009489.276    -3373754.59849  -2369638.50445  24009487.638    24009504.790
       210.000         145.000
  22141295.713    -4541977.18149  -3495030.51846  22141294.990    22141304.853
       233.000         185.000
  21551980.779    -2550703.52049  -1975593.76347  21551979.975    21551990.709
       239.000         201.000
  23177951.579     2302468.26349   1785062.75446  23177952.547    23177963.125
       224.000         166.000
 02  2 13  1 29  0.0000000  0  9G30G15G26G23G 6G22G18G17G10
  22904388.643     2387823.59049   1587703.46746  22904388.961    22904400.097
       225.000         171.000
  22187643.260    -3367228.24149  -2606385.65146  22187642.515    22187654.157
       230.000         185.000
  22341994.278    -3762521.89249  -2914711.55846  22341993.600    22342004.486
       225.000         177.000
  20522025.179    -1297514.57749  -1002567.28948  20522024.638    20522033.398
       244.000         214.000
  20263567.221    -1532837.06249  -1180213.14848  20263566.994    20263575.468
       244.000         215.000
  23999893.995    -3424177.73749  -2408929.06545  23999892.120    23999908.325
       209.000         145.000
  22125189.565    -4626615.02649  -3560981.94546  22125189.000    22125198.995
       233.000         186.000
  21545535.931    -2584571.20249  -2001984.11447  21545535.246    21545545.849
       239.000         201.000
  23196688.720     2400932.19949   1861787.81446  23196687.957    23196701.499
       221.000         166.000
 02  2 13  1 29 30.0000000  0  9G30G15G26G23G 6G22G18G17G10
  22923026.750     2485766.94949   1664022.86846  22923027.268    22923039.141
       225.000         171.000
  22177334.615    -3421400.25749  -2648597.51146  22177333.701    22177345.427
       230.000         185.000
  22330558.488    -3822616.21049  -2961538.16246  22330557.777    22330569.017
       228.000         177.000
  20523387.551    -1290355.14549   -996988.48248  20523387.015    20523395.835
       244.000         214.000
  20263570.215    -1532821.29549  -1180200.84848  20263569.932    20263578.526
       244.000         215.000
  23990389.349    -3474123.92749  -2447848.00345  23990387.800    23990405.603
       211.000         145.000
  22109146.827    -4710919.67549  -3626673.74846  22109146.326    22109155.677
       232.000         186.000
  21539117.754    -2618298.91649  -2028265.39447  21539117.259    21539127.361
       239.000         202.000
  23215457.339     2499561.69749   1938641.93746  23215455.085    23215469.657
       218.000         165.000
 02  2 13  1 30  0.0000000  0  9G30G15G26G23G 6G22G18G17G10
  22941689.299     2583838.81449   1740442.39346  22941689.889    22941700.890
       225.000         171.000
  22167054.235    -3475423.40749  -2690693.37146  22167053.638    22167064.812
       232.000         185.000
  22319204.841    -3882279.90249  -3008029.23946  22319204.996    22319215.300
       228.000         178.000
  20524842.401    -1282709.95349   -991031.16348  20524841.878    20524850.581
       244.000         214.000
  20263657.649    -1532361.75649  -1179842.75048  20263657.472    20263666.018
       245.000         215.000
  23980975.760    -3523591.90549  -2486394.29245  23980974.377    23980990.951
       210.000         145.000
  22093167.796    -4794889.67349  -3692104.78046  22093167.239    22093176.686
       233.000         186.000
  21532726.086    -2651887.14849  -2054437.99547  21532725.564    21532735.594
       240.000         202.000
  23234256.847     2598353.76349   2015622.69246  23234257.408    23234268.899
       221.000         165.000
 02  2 13  1 30 30.0000000  0  9G30G15G26G23G 6G22G18G17G10
  22960375.672     2682036.10449   1816959.65346  22960375.713    22960387.929
       224.000         170.000
  22156802.244    -3529297.58849  -2732673.15346  22156801.695    22156812.782
       232.000         185.000
  22307933.706    -3941509.93949  -3054182.39946  22307933.489    22307944.580
       226.000         178.000
  20526389.417    -1274580.13049   -984696.21248  20526388.927    20526397.609
       243.000         214.000
  20263829.746    -1531457.39749  -1179138.04148  20263829.733    20263837.948
       244.000         215.000
  23971653.361    -3572580.44049  -2524567.01445  23971652.001    23971667.908
       208.000         144.000
  22077252.776    -4878523.38849  -3757273.78046  22077252.156    22077261.303
       234.000         187.000
  21526360.912    -2685336.27549  -2080502.20647  21526360.581    21526370.459
       240.000         202.000
  23253087.009     2697306.22649   2092728.44246  23253085.754    23253098.916
       219.000         164.000
 02  2 13  1 31  0.0000000  0  9G30G15G26G23G 6G22G18G17G10
  22979085.352     2780355.67249   1893572.20246  22979085.580    22979098.223
       224.000         170.000
  22146578.496    -3583023.47049  -2774537.37246  22146577.214    22146589.263
       231.000         185.000
  22296745.564    -4000303.59449  -3099995.49946  22296744.845    22296756.324
       224.000         178.000
  20528028.410    -1265967.19949   -977984.80748  20528027.952    20528036.496
       244.000         213.000
  20264086.673    -1530107.36749  -1178086.05248  20264086.505    20264094.885
       244.000         215.000
  23962422.575    -3621088.56449  -2562365.35645  23962420.641    23962437.414
       208.000         144.000
  22061401.946    -4961819.49949  -3822179.71246  22061401.080    22061411.162
       234.000         187.000
  21520022.108    -2718646.93749  -2106458.51847  21520021.529    21520031.966
       240.000         202.000
  23271946.974     2796415.80649   2169956.60846  23271946.417    23271959.196
       222.000         163.000
 02  2 13  1 31 30.0000000  0  9G30G15G26G23G 6G22G18G17G10
  22997817.765     2878794.84749   1970277.94246  22997818.651    22997829.930
       224.000         170.000
  22136383.004    -3636600.74749  -2816285.80046  22136381.872    22136393.449
       231.000         185.000
  22285641.098    -4058657.18249  -3145465.70946  22285640.982    22285651.614
       229.000         179.000
  20529759.207    -1256871.68649   -970897.36848  20529758.684    20529767.287
       244.000         213.000
  20264428.667    -1528310.03749  -1176685.52048  20264428.418    20264436.886
       244.000         215.000
  23953283.342    -3669114.34649  -2599787.87445  23953282.997    23953297.676
       211.000         144.000
  22045615.801    -5044775.83749  -3886820.89047  22045614.758    22045624.533
       234.000         188.000
  21513709.648    -2751819.01149  -2132306.84147  21513709.069    21513719.170
       240.000         202.000
  23290836.377     2895680.36149   2247305.56146  23290836.879    23290846.912
       221.000         163.000
 02  2 13  1 32  0.0000000  0  9G30G15G26G23G 6G22G18G17G10
  23016572.394     2977350.53649   2047074.47246  23016573.038    23016585.411
       223.000         169.000
  22126215.687    -3690030.10849  -2857918.97046  22126214.860    22126226.549
       231.000         185.000
  22274620.918    -4116568.15949  -3190591.02846  22274620.821    22274631.303
       227.000         179.000
  20531581.548    -1247295.09349   -963435.06248  20531581.092    20531589.640
       243.000         213.000
  20264855.953    -1526064.53149  -1174935.76148  20264855.712    20264864.348
       245.000         215.000
  23944236.284    -3716656.93649  -2636833.85945  23944235.621    23944249.645
       208.000         144.000
  22029894.557    -5127391.10349  -3951196.29447  22029893.672    22029903.723
       234.000         188.000
  21507423.479    -2784852.97249  -2158047.54447  21507422.931    21507433.060
       240.000         202.000
  23309754.842     2995097.19049   2324773.15546  23309753.423    23309766.335
       218.000         163.000
 02  2 13  1 32 30.0000000  0  9G30G15G26G23G 6G22G18G17G10
  23035348.565     3076019.65149   2123959.39146  23035349.459    23035360.487
       223.000         169.000
  22116076.440    -3743311.67149  -2899436.96746  22116075.310    22116087.090
       231.000         185.000
  22263685.550    -4174033.54749  -3235369.13746  22263685.381    22263695.991
       225.000         179.000
  20533495.223    -1237238.69149   -955598.87748  20533494.667    20533503.535
       243.000         213.000
  20265368.731    -1523369.93149  -1172836.05548  20265368.507    20265377.051
       244.000         215.000
  23935281.371    -3763714.98249  -2673502.29145  23935278.961    23935296.320
       210.000         145.000
  22014238.521    -5209663.78949  -4015304.75847  22014238.030    22014247.224
       235.000         188.000
  21501163.460    -2817749.37649  -2183681.06247  21501162.845    21501173.047
       240.000         202.000
  23328701.785     3094663.85149   2402357.51545  23328701.866    23328713.877
       218.000         162.000
 02  2 13  1 33  0.0000000  0  9G30G15G26G23G 6G22G18G17G10
  23054145.801     3174799.23449   2200930.38346  23054146.986    23054158.271
       222.000         168.000
  22105965.236    -3796445.66849  -2940839.98246  22105964.209    22105975.745
       232.000         185.000
  22252835.533    -4231050.22349  -3279797.58046  22252835.443    22252847.046
       227.000         179.000
  20535499.920    -1226703.69949   -947389.76648  20535499.410    20535508.158
       243.000         213.000
  20265967.170    -1520225.12149  -1170385.53648  20265967.073    20265975.371
       244.000         215.000
  23926418.869    -3810287.18949  -2709792.15145  23926419.075    23926433.644
       211.000         145.000
  21998647.987    -5291592.11349  -4079144.88747  21998646.994    21998656.738
       235.000         189.000
  21494929.616    -2850508.30349  -2209207.45647  21494928.960    21494939.208
       239.000         202.000
  23347676.750     3194377.70949   2480056.58345  23347676.630    23347689.191
       219.000         162.000
 02  2 13  1 33 30.0000000  0  9G30G15G26G23G 6G22G18G17G10
  23072963.463     3273686.55049   2277985.31546  23072963.700    23072975.985
       223.000         168.000
  22095882.246    -3849431.90149  -2982127.85546  22095881.290    22095893.050
       231.000         186.000
  22242071.463    -4287615.19249  -3323874.06746  22242071.274    22242081.908
       228.000         180.000
  20537595.538    -1215691.18349   -938808.55948  20537594.959    20537603.684
       243.000         213.000
  20266651.511    -1516628.85049  -1167583.23348  20266651.259    20266659.724
       244.000         215.000
  23917649.011    -3856372.39049  -2745702.49545  23917647.747    23917662.794
       210.000         144.000
  21983123.369    -5373174.23349  -4142715.25047  21983122.811    21983131.722
       236.000         189.000
  21488721.819    -2883130.10649  -2234626.99947  21488721.008    21488731.443
       240.000         202.000
  23366679.287     3294236.32249   2557868.42745  23366678.615    23366691.237
       217.000         161.000
 02  2 13  1 34  0.0000000  0  9G30G15G26G23G 6G22G18G17G10
  23091801.053     3372678.39349   2355121.70846  23091801.818    23091813.335
       222.000         168.000
  22085827.283    -3902270.80049  -3023300.91946  22085826.041    22085837.648
       233.000         186.000
  22231393.963    -4343725.51049  -3367596.28346  22231394.286    22231404.113
       227.000         180.000
  20539781.718    -1204202.57049   -929856.36648  20539781.045    20539789.857
       243.000         213.000
  20267421.922    -1512580.28749  -1164428.49148  20267421.846    20267430.000
       245.000         215.000
  23908971.995    -3901969.21649  -2781232.32045  23908969.925    23908986.031
       211.000         144.000
  21967664.836    -5454408.86449  -4206014.84247  21967664.223    21967673.288
       235.000         190.000
  21482540.090    -2915615.09749  -2259939.94147  21482539.467    21482549.405
       240.000         202.000
  23385708.813     3394236.76149   2635790.81945  23385706.862    23385721.776
       216.000         161.000
 02  2 13  1 34 30.0000000  0  9G30G15G26G23G 6G22G18G17G10
  23110657.986     3471771.82649   2432337.25746  23110659.004    23110670.781
       223.000         168.000
  22075800.336    -3954962.45449  -3064359.26146  22075799.422    22075811.056
       233.000         186.000
  22220803.511    -4399378.24949  -3410961.92546  22220802.708    22220814.154
       227.000         180.000
  20542058.308    -1192239.05649   -920534.12748  20542057.789    20542066.558
       243.000         213.000
  20268278.614    -1508078.40049  -1160920.50948  20268278.353    20268286.815
       244.000         215.000
  23900388.259    -3947076.63949  -2816380.78545  23900387.376    23900404.867
       209.000         145.000
  21952272.719    -5535294.36449  -4269042.39147  21952271.948    21952281.391
       235.000         190.000
  21476384.350    -2947963.61649  -2285146.53647  21476383.769    21476394.064
       240.000         202.000
  23404764.869     3494376.94249   2713822.04445  23404765.448    23404779.478
       219.000         161.000
 02  2 13  1 35  0.0000000  0  9G30G15G26G23G 6G22G18G17G10
  23129533.661     3570963.99149   2509629.74346  23129534.117    23129546.598
       222.000         168.000
  22065801.325    -4007507.26149  -3105303.16646  22065800.444    22065811.688
       232.000         187.000
  22210300.670    -4454570.51149  -3453968.75546  22210300.139    22210310.741
       229.000         180.000
  20544424.983    -1179802.06349   -910842.94048  20544424.471    20544433.151
       243.000         213.000
  20269221.773    -1503122.01349  -1157058.37048  20269221.410    20269229.952
       244.000         215.000
  23891897.780    -3991693.51049  -2851147.00545  23891895.605    23891911.672
       210.000         146.000
  21936947.378    -5615829.23949  -4331796.72147  21936946.678    21936955.789
       235.000         190.000
  21470254.510    -2980175.88349  -2310246.95747  21470253.823    21470263.934
       240.000         203.000
  23423847.028     3594653.99449   2791959.98045  23423845.079    23423859.190
       216.000         160.000
 02  2 13  1 35 30.0000000  0  9G30G15G26G23G 6G22G18G17G10
  23148427.572     3670251.82249   2586996.76846  23148428.626    23148440.607
       223.000         168.000
  22055830.268    -4059905.15449  -3146132.59846  22055829.197    22055840.905
       233.000         187.000
  22199886.108    -4509299.24049  -3496614.40246  22199886.249    22199896.561
       229.000         181.000
  20546881.543    -1166892.68849   -900783.66048  20546881.030    20546889.612
       243.000         213.000
  20270251.598    -1497710.19249  -1152841.35048  20270251.377    20270259.818
       244.000         215.000
  23883500.857    -4035818.39349  -2885529.85545  23883498.928    23883515.512
       209.000         146.000
  21921689.006    -5696012.01949  -4394276.68647  21921688.081    21921697.586
       236.000         190.000
  21464150.539    -3012252.29249  -2335241.51547  21464150.078    21464160.075
       240.000         203.000
  23442954.711     3695065.70149   2870202.78645  23442955.620    23442966.065
       221.000         160.000
 02  2 13  1 36  0.0000000  0  9G30G15G26G23G 6G22G18G17G10
  23167339.157     3769632.00049   2664435.75746  23167339.205    23167351.901
       222.000         168.000
  22045887.017    -4112156.88049  -3186848.13346  22045885.891    22045897.543
       233.000         187.000
  22189560.198    -4563562.14449  -3538897.05046  22189559.747    22189570.683
       226.000         181.000
  20549427.681    -1153512.60649   -890357.60148  20549427.138    20549435.823
       243.000         213.000
  20271368.151    -1491842.50749  -1148269.11348  20271367.894    20271376.248
       244.000         215.000
  23875197.684    -4079450.90549  -2919529.03445  23875195.816    23875212.054
       210.000         147.000
  21906497.858    -5775841.61149  -4456481.44647  21906497.148    21906506.508
       236.000         190.000
  21458072.329    -3044193.46849  -2360130.69147  21458071.726    21458082.027
       240.000         203.000
  23462087.534     3795608.94749   2948548.17045  23462086.276    23462097.629
       215.000         160.000
 02  2 13  1 36 30.0000000  0  9G30G15G26G23G 6G22G18G17G10
  23186267.871     3869102.30349   2741944.97346  23186268.730    23186280.207
       222.000         167.000
  22035971.697    -4164261.85349  -3227449.32347  22035971.035    22035981.871
       234.000         188.000
  22179323.474    -4617355.52249  -3580813.84446  22179323.094    22179334.032
       228.000         181.000
  20552063.299    -1139662.40249   -879565.21248  20552062.793    20552071.435
       243.000         213.000
  20272571.784    -1485517.32149  -1143340.38048  20272571.651    20272580.102
       244.000         215.000
  23866988.747    -4122589.03349  -2953142.99945  23866987.079    23867003.243
       208.000         147.000
  21891374.374    -5855315.60349  -4518409.11347  21891373.487    21891382.542
       236.000         191.000
  21452019.938    -3075998.88749  -2384914.08947  21452019.366    21452029.613
       239.000         203.000
  23481245.022     3896282.20849   3026994.79545  23481245.052    23481258.539
       220.000         160.000
 02  2 13  1 37  0.0000000  0  9G30G15G26G23G 6G22G18G17G10
  23205213.067     3968659.26349   2819521.71246  23205213.185    23205225.359
       221.000         167.000
  22026084.148    -4216221.02349  -3267936.90747  22026083.370    22026094.813
       233.000         188.000
  22169176.613    -4670677.15549  -3622363.04746  22169176.738    22169186.776
       228.000         181.000
  20554787.951    -1125344.18449   -868408.13648  20554787.277    20554796.072
       243.000         213.000
  20273862.555    -1478734.31449  -1138054.90548  20273862.347    20273870.710
       244.000         215.000
  23858873.820    -4165232.40049  -2986371.43545  23858872.296    23858887.754
       208.000         148.000
  21876318.641    -5934433.37249  -4580059.20347  21876317.880    21876327.046
       236.000         191.000
  21445993.136    -3107669.76549  -2409592.64247  21445992.338    21446002.701
       239.000         203.000
  23500426.628     3997081.90149   3105539.97945  23500426.104    23500441.482
       219.000         161.000
 02  2 13  1 37 30.0000000  0 10G30G15G26G23G 6G22G18G17G10G21
  23224172.726     4068292.18349   2897157.64646  23224172.600    23224184.864
       222.000         167.000
  22016222.928    -4268041.87949  -3308316.70147  22016221.877    22016233.489
       232.000         188.000
  22159118.638    -4723531.80849  -3663548.37446  22159118.791    22159128.640
       225.000         181.000
  20557599.985    -1110566.82249   -856893.28648  20557599.300    20557607.967
       243.000         213.000
  20275239.223    -1471499.93449  -1132417.71448  20275238.904    20275247.506
       244.000         215.000
  23850851.912    -4207387.45749  -3019219.35845  23850852.908    23850867.139
       212.000         149.000
  21861329.596    -6013200.79549  -4641436.29147  21861329.127    21861337.680
       237.000         191.000
  21439990.507    -3139213.80049  -2434172.35747  21439989.684    21439999.812
       239.000         203.000
  23519630.429     4097998.33049   3184176.09945  23519630.449    23519644.002
       218.000         160.000
  24830955.001    -2881109.58749  -2220762.79745  24830951.590    24830971.424
       208.000         135.000
 02  2 13  1 38  0.0000000  0 10G30G15G26G23G 6G22G18G17G10G21
  23243148.255     4168008.73049   2974858.73646  23243148.593    23243160.919
       221.000         167.000
  22006389.970    -4319714.17049  -3348580.73847  22006388.984    22006400.348
       232.000         188.000
  22149151.997    -4775906.08249  -3704359.36746  22149150.872    22149162.532
       228.000         181.000
  20560501.108    -1095321.15449   -845013.52548  20560500.452    20560509.183
       243.000         213.000
  20276703.908    -1463802.78449  -1126419.92148  20276703.540    20276712.079
       246.000         215.000
  23842925.004    -4249042.73649  -3051677.84345  23842925.346    23842939.910
       214.000         148.000
  21846409.557    -6091605.78049  -4702530.97347  21846409.086    21846418.035
       236.000         192.000
  21434013.911    -3170620.75249  -2458645.25547  21434013.411    21434023.187
       239.000         203.000
  23538857.961     4199039.28849   3262909.29445  23538856.079    23538869.697
       216.000         160.000
  24813356.908    -2973585.79249  -2292821.57545  24813356.021    24813373.345
       205.000         135.000
 02  2 13  1 38 30.0000000  0 10G30G15G26G23G 6G22G18G17G10G21
  23262139.021     4267805.33149   3052622.20646  23262139.036    23262152.112
       222.000         166.000
  21996585.037    -4371238.89949  -3388729.79547  21996584.092    21996595.030
       233.000         188.000
  22139277.223    -4827797.83749  -3744794.38746  22139277.267    22139286.577
       229.000         181.000
  20563490.969    -1079609.24949   -832770.46048  20563490.492    20563499.072
       243.000         213.000
  20278256.757    -1455642.58449  -1120061.31448  20278256.615    20278264.858
       246.000         214.000
  23835093.441    -4290197.70949  -3083746.48845  23835091.739    23835107.281
       210.000         151.000
  21831558.595    -6169647.56049  -4763342.62447  21831558.117    21831567.198
       236.000         192.000
  21428063.269    -3201891.42749  -2483011.96647  21428062.591    21428072.413
       239.000         203.000
  23558108.594     4300201.71049   3341737.10745  23558107.611    23558119.763
       217.000         160.000
  24795787.595    -3065910.65249  -2364762.40745  24795785.725    24795804.074
       206.000         135.000
 02  2 13  1 39  0.0000000  0 10G30G15G26G23G 6G22G18G17G10G21
  23281144.358     4367678.74449   3130445.53046  23281144.559    23281156.173
       222.000         165.000
  21986808.170    -4422616.50349  -3428764.21247  21986807.350    21986818.146
       233.000         188.000
  22129494.801    -4879204.49649  -3784851.41046  22129494.680    22129504.708
       229.000         182.000
  20566569.209    -1063432.86249   -820165.46048  20566568.671    20566577.334
       243.000         213.000
  20279897.802    -1447018.87749  -1113341.53248  20279897.709    20279905.981
       246.000         214.000
  23827357.129    -4330851.71749  -3115424.80745  23827356.195    23827370.481
       212.000         151.000
  21816776.983    -6247325.05049  -4823870.42347  21816776.340    21816785.360
       237.000         192.000
  21422138.479    -3233026.48449  -2507272.99847  21422137.972    21422147.653
       239.000         203.000
  23577381.765     4401482.70949   3420657.31545  23577380.009    23577394.247
       216.000         160.000
  24778247.261    -3158083.34049  -2436584.68045  24778246.307    24778263.658
       209.000         136.000
 02  2 13  1 39 30.0000000  0 10G30G15G26G23G 6G22G18G17G10G21
  23300163.417     4467624.02149   3208324.84146  23300163.632    23300176.189
       222.000         165.000
  21977058.839    -4473849.12449  -3468685.65347  21977058.069    21977069.251
       234.000         188.000
  22119804.854    -4930125.46049  -3824529.95546  22119804.338    22119814.702
       226.000         182.000
  20569735.209    -1046795.38149   -807201.16548  20569734.689    20569743.127
       243.000         213.000
  20281626.801    -1437932.89149  -1106261.53248  20281626.792    20281634.819
       245.000         214.000
  23819715.865    -4371005.81949  -3146713.52145  23819715.384    23819730.732
       213.000         151.000
  21802064.572    -6324638.91349  -4884114.86747  21802063.845    21802073.239
       238.000         193.000
  21416239.000    -3264028.33349  -2531430.23047  21416238.387    21416248.218
       239.000         203.000
  23596676.621     4502877.74549   3499666.38045  23596675.881    23596687.786
       216.000         160.000
  24760735.759    -3250104.04449  -2508288.55645  24760733.421    24760753.313
       206.000         135.000
 02  2 13  1 40  0.0000000  0 10G30G15G26G23G 6G22G18G17G10G21
  23319195.867     4567639.56549   3286258.93046  23319196.346    23319208.876
       221.000         165.000
  21967337.377    -4524935.65749  -3508493.26047  21967336.369    21967347.536
       232.000         188.000
  22110207.969    -4980556.53149  -3863826.77246  22110207.442    22110218.047
       228.000         182.000
  20572988.933    -1029696.92949   -793877.67148  20572988.337    20572996.880
       243.000         213.000
  20283444.198    -1428382.30049  -1098819.49848  20283443.864    20283452.419
       246.000         214.000
  23812170.369    -4410657.68149  -3177610.95045  23812168.139    23812185.225
       212.000         151.000
  21787421.871    -6401586.26649  -4944073.72447  21787421.382    21787430.445
       238.000         193.000
  21410365.059    -3294895.72549  -2555482.69547  21410364.463    21410374.391
       239.000         203.000
  23615993.055     4604386.09449   3578763.76645  23615992.678    23616005.817
       216.000         160.000
  24743253.836    -3341970.10449  -2579871.93645  24743251.563    24743269.956
       203.000         136.000
 02  2 13  1 40 30.0000000  0 10G30G15G26G23G 6G22G18G17G10G21
  23338240.931     4667721.43249   3364244.68246  23338241.472    23338253.995
       220.000         165.000
  21957643.466    -4575877.08049  -3548187.79647  21957642.640    21957654.038
       233.000         188.000
  22100704.705    -5030496.04149  -3902740.56246  22100703.991    22100714.321
       227.000         182.000
  20576329.872    -1012140.05149   -780196.96048  20576329.224    20576337.953
       243.000         213.000
  20285349.986    -1418367.32649  -1091015.61148  20285349.735    20285358.185
       245.000         214.000
  23804720.348    -4449807.55049  -3208117.18545  23804718.446    23804733.919
       209.000         151.000
  21772848.971    -6478166.94149  -5003746.85947  21772848.471    21772857.126
       237.000         193.000
  21404516.487    -3325630.08949  -2579431.50047  21404515.902    21404525.741
       239.000         203.000
  23635330.337     4706004.00649   3657946.52045  23635329.562    23635341.311
       217.000         160.000
  24725801.308    -3433681.21449  -2651334.61445  24725801.244    24725817.994
       206.000         138.000
 02  2 13  1 41  0.0000000  0 10G30G15G26G23G 6G22G18G17G10G21
  23357298.161     4767867.53149   3442280.50346  23357298.439    23357311.287
       219.000         165.000
  21947977.298    -4626672.90549  -3587768.87047  21947976.312    21947987.808
       233.000         188.000
  22091295.620    -5079940.43849  -3941268.55046  22091294.855    22091306.526
       227.000         182.000
  20579757.953     -994125.21749   -766159.40148  20579757.261    20579766.018
       243.000         213.000
  20287344.456    -1407886.19349  -1082848.47948  20287344.344    20287352.732
       245.000         214.000
  23797366.089    -4488453.42649  -3238230.69545  23797364.327    23797380.054
       211.000         152.000
  21758346.302    -6554378.45649  -5063132.33647  21758345.651    21758354.723
       238.000         194.000
  21398693.309    -3356230.82649  -2603276.18747  21398692.553    21398702.638
       239.000         203.000
  23654688.223     4807730.09049   3737213.58545  23654686.891    23654701.146
       216.000         160.000
  24708378.749    -3525235.20949  -2722674.88645  24708377.576    24708395.514
       205.000         138.000
 02  2 13  1 41 30.0000000  0 10G30G15G26G23G 6G22G18G17G10G21
  23376366.795     4868073.68449   3520363.09946  23376367.817    23376380.251
       218.000         164.000
  21938338.534    -4677324.43949  -3627237.52047  21938337.535    21938348.759
       233.000         189.000
  22081981.022    -5128888.21749  -3979409.55646  22081981.083    22081991.166
       228.000         182.000
  20583272.654     -975655.20249   -751767.15348  20583272.237    20583280.716
       243.000         213.000
  20289427.536    -1396939.42249  -1074318.51348  20289427.422    20289435.810
       245.000         214.000
  23790107.632    -4526595.77549  -3267951.87545  23790106.022    23790122.644
       211.000         152.000
  21743913.934    -6630220.67149  -5122230.04447  21743913.252    21743922.476
       238.000         194.000
  21392895.310    -3386699.39449  -2627017.88047  21392894.717    21392904.255
       240.000         203.000
  23674065.908     4909560.28049   3816561.74045  23674063.677    23674077.390
       215.000         159.000
  24690986.189    -3616631.70349  -2793892.43845  24690984.727    24691002.310
       206.000         138.000
 02  2 13  1 42  0.0000000  0 10G30G15G26G23G 6G22G18G17G10G21
  23395446.554     4968338.05849   3598491.07246  23395446.909    23395459.453
       218.000         164.000
  21928727.387    -4727830.78849  -3666593.04247  21928726.788    21928737.758
       234.000         189.000
  22072761.720    -5177335.78349  -4017160.78246  22072761.415    22072771.298
       228.000         182.000
  20586873.880     -956730.49549   -737020.60348  20586873.494    20586881.896
       243.000         213.000
  20291599.607    -1385525.13349  -1065424.24648  20291599.508    20291607.821
       246.000         214.000
  23782945.466    -4564232.54149  -3297279.09245  23782944.310    23782958.840
       210.000         152.000
  21729552.225    -6705691.43149  -5181038.32047  21729551.395    21729560.799
       238.000         194.000
  21387122.598    -3417034.93749  -2650655.92247  21387122.063    21387131.693
       239.000         203.000
  23693463.164     5011493.36449   3895990.09245  23693462.587    23693475.716
       217.000         159.000
  24673624.103    -3707868.22249  -2864985.36145  24673623.146    24673640.647
       207.000         138.000
 02  2 13  1 42 30.0000000  0 10G30G15G26G23G 6G22G18G17G10G21
  23414536.699     5068656.86549   3676661.47246  23414536.943    23414549.195
       218.000         164.000
  21919143.700    -4778193.26549  -3705836.44247  21919142.723    21919154.122
       233.000         189.000
  22063637.956    -5225281.24949  -4054520.76746  22063637.681    22063647.777
       228.000         182.000
  20590561.184     -937353.60549   -721921.70048  20590560.641    20590569.326
       243.000         213.000
  20293860.583    -1373643.65849  -1056165.93848  20293860.453    20293868.830
       246.000         214.000
  23775879.454    -4601363.86649  -3326212.43645  23775879.341    23775893.981
       214.000         153.000
  21715261.355    -6780790.13949  -5239556.67447  21715261.038    21715269.902
       238.000         194.000
  21381374.988    -3447238.72949  -2674191.29547  21381374.173    21381384.479
       240.000         204.000
  23712879.422     5113526.33549   3975496.26845  23712878.256    23712889.076
       216.000         159.000
  24656292.673    -3798944.02849  -2935953.06745  24656290.975    24656307.577
       209.000         139.000
 02  2 13  1 43  0.0000000  0 10G30G15G26G23G 6G22G18G17G10G21
  23433636.665     5169027.54149   3754872.27346  23433636.781    23433649.812
       219.000         163.000
  21909587.434    -4828411.53949  -3744967.48647  21909586.719    21909597.859
       233.000         189.000
  22054610.215    -5272721.64149  -4091487.20046  22054610.301    22054619.915
       231.000         182.000
  20594334.300     -917525.61249   -706471.29148  20594333.859    20594342.447
       242.000         213.000
  20296210.669    -1361293.83049  -1046542.67748  20296210.436    20296218.862
       246.000         214.000
  23768909.949    -4637988.70249  -3354751.10745  23768909.017    23768924.936
       214.000         153.000
  21701041.621    -6855514.94949  -5297783.68347  21701040.952    21701049.927
       238.000         195.000
  21375652.473    -3477310.47949  -2697623.78047  21375652.004    21375662.027
       240.000         204.000
  23732314.272     5215657.02549   4055078.59045  23732314.491    23732327.809
       218.000         159.000
  24638992.000    -3889857.83649  -3006794.55645  24638990.492    24639007.590
       209.000         140.000
 02  2 13  1 43 30.0000000  0 10G30G15G26G23G 6G22G18G17G10G21
  23452745.861     5269446.55649   3833120.74946  23452746.272    23452759.089
       218.000         163.000
  21900058.428    -4878486.37349  -3783986.75147  21900057.426    21900068.474
       234.000         189.000
  22045679.034    -5319655.08849  -4128058.60446  22045678.764    22045688.832
       228.000         183.000
  20598192.835     -897248.77249   -690671.13147  20598192.308    20598200.952
       243.000         212.000
  20298649.888    -1348475.55649  -1036554.39648  20298649.607    20298658.127
       245.000         214.000
  23762036.875    -4674106.74649  -3382894.90645  23762035.105    23762050.586
       212.000         153.000
  21686893.135    -6929865.31649  -5355718.91747  21686892.337    21686901.428
       238.000         195.000
  21369954.934    -3507251.19749  -2720954.16447  21369954.388    21369964.382
       240.000         204.000
  23751767.166     5317882.26749   4134734.60645  23751766.854    23751778.839
       218.000         158.000
  24621722.363    -3980608.52249  -3077508.96145  24621721.757    24621737.456
       210.000         140.000
 02  2 13  1 44  0.0000000  0 10G30G15G26G23G 6G22G18G17G10G21
  23471863.842     5369911.79749   3911405.24745  23471864.876    23471877.379
       217.000         162.000
  21890556.895    -4928417.07749  -3822893.70847  21890555.864    21890566.905
       233.000         189.000
  22036845.022    -5366077.88749  -4164232.09446  22036844.690    22036854.520
       226.000         183.000
  20602136.688     -876523.63649   -674521.65147  20602136.288    20602144.728
       242.000         212.000
  20301178.577    -1335187.13149  -1026199.76348  20301178.327    20301186.896
       245.000         214.000
  23755260.618    -4709716.16749  -3410642.35745  23755258.926    23755274.461
       212.000         153.000
  21672816.340    -7003839.03749  -5413360.66347  21672815.432    21672824.515
       239.000         195.000
  21364282.402    -3537060.28149  -2744181.97947  21364281.805    21364291.610
       240.000         204.000
  23771237.745     5420200.57449   4214463.14745  23771236.875    23771251.876
       215.000         158.000
  24604484.320    -4071193.74649  -3148094.45245  24604482.341    24604498.378
       208.000         141.000
 02  2 13  1 44 30.0000000  0 10G30G15G26G23G 6G22G18G17G10G21
  23490989.993     5470420.13349   3989723.32845  23490989.746    23491003.737
       219.000         162.000
  21881082.669    -4978204.13149  -3861688.72847  21881081.972    21881093.197
       235.000         190.000
  22028108.423    -5411988.01849  -4200006.11446  22028108.378    22028118.617
       231.000         184.000
  20606165.469     -855352.18049   -658024.39047  20606164.899    20606173.549
       242.000         212.000
  20303796.770    -1321428.33649  -1015478.60448  20303796.744    20303804.996
       245.000         214.000
  23748581.150    -4744816.80049  -3437993.36145  23748580.180    23748594.535
       211.000         153.000
  21658811.348    -7077435.14449  -5470708.16947  21658810.657    21658819.714
       238.000         196.000
  21358634.913    -3566738.07749  -2767307.49047  21358634.555    21358644.135
       240.000         204.000
  23790725.462     5522609.13649   4294262.00045  23790725.304    23790738.474
       214.000         157.000
  24587277.937    -4161612.52349  -3218550.25045  24587276.503    24587293.226
       209.000         141.000
 02  2 13  1 45  0.0000000  0 10G30G15G26G23G 6G22G18G17G10G21
  23510123.670     5570967.92549   4068072.14345  23510124.539    23510136.865
       219.000         161.000
  21871635.653    -5027848.25649  -3900372.37447  21871634.882    21871645.953
       235.000         190.000
  22019469.883    -5457383.53149  -4235379.14546  22019470.188    22019479.102
       230.000         184.000
  20610278.767     -833736.59049   -641181.05147  20610278.291    20610286.893
       242.000         212.000
  20306504.505    -1307199.17649  -1004390.92948  20306504.380    20306512.540
       245.000         214.000
  23741998.347    -4779408.50649  -3464947.79145  23741996.768    23742012.709
       212.000         154.000
  21644878.324    -7150653.19649  -5527761.08847  21644877.653    21644886.396
       238.000         196.000
  21353012.145    -3596285.69149  -2790331.56247  21353011.618    21353021.451
       240.000         205.000
  23810229.768     5625104.94149   4374128.84545  23810229.201    23810241.720
       216.000         156.000
  24570103.300    -4251864.25749  -3288875.91145  24570101.423    24570118.172
       209.000         141.000
 02  2 13  1 45 30.0000000  0 10G30G15G26G23G 6G22G18G17G10G21
  23529264.537     5671553.79749   4146450.64145  23529264.909    23529278.251
       215.000         160.000
  21862216.070    -5077348.25249  -3938943.70947  21862214.564    21862226.439
       235.000         190.000
  22010930.102    -5502260.49649  -4270348.08146  22010929.491    22010940.123
       228.000         184.000
  20614476.517     -811677.13149   -623991.84647  20614475.895    20614484.495
       243.000         212.000
  20309302.081    -1292497.64449   -992935.17648  20309301.773    20309310.203
       245.000         214.000
  23735512.833    -4813489.10749  -3491503.96245  23735511.717    23735526.462
       211.000         153.000
  21631017.786    -7223490.41149  -5584517.24847  21631017.078    21631026.099
       239.000         196.000
  21347414.408    -3625701.98049  -2813253.29547  21347413.833    21347423.739
       240.000         205.000
  23829750.526     5727686.95449   4454062.89645  23829747.459    23829760.439
       212.000         155.000
  24552960.926    -4341946.00549  -3359069.13045  24552959.530    24552975.534
       209.000         142.000
 02  2 13  1 46  0.0000000  0 10G30G15G26G23G 6G22G18G17G10G21
  23548412.045     5772174.10649   4224855.96445  23548412.713    23548424.728
       216.000         159.000
  21852823.724    -5126705.04849  -3977403.46747  21852823.115    21852833.750
       235.000         190.000
  22002489.353    -5546617.08449  -4304911.54846  22002489.164    22002498.225
       231.000         184.000
  20618758.298     -789176.18749   -606458.62647  20618757.771    20618766.422
       242.000         212.000
  20312189.601    -1277323.59549   -981111.22648  20312189.404    20312197.804
       246.000         214.000
  23729124.677    -4847058.61449  -3517661.86945  23729123.110    23729138.576
       212.000         154.000
  21617229.871    -7295946.05749  -5640976.09047  21617229.114    21617238.172
       240.000         197.000
  21341841.495    -3654987.63549  -2836073.23947  21341840.841    21341850.642
       240.000         205.000
  23849287.114     5830352.39849   4534061.91645  23849286.373    23849299.708
       213.000         155.000
  24535851.069    -4431857.37249  -3429129.61145  24535849.295    24535866.243
       209.000         143.000
 02  2 13  1 46 30.0000000  0 10G30G15G26G23G 6G22G18G17G10G21
  23567565.611     5872826.12449   4303286.00445  23567565.404    23567579.439
       216.000         158.000
  21843458.625    -5175918.60549  -4015751.60347  21843457.599    21843468.497
       235.000         190.000
  21994148.022    -5590450.65849  -4339067.48746  21994148.188    21994157.879
       230.000         184.000
  20623123.810     -766235.16849   -588582.49247  20623123.349    20623131.874
       242.000         212.000
  20315167.199    -1261676.18449   -968918.42548  20315167.003    20315175.275
       245.000         214.000
  23722833.901    -4880116.15349  -3543420.85645  23722832.445    23722847.841
       211.000         153.000
  21603514.789    -7368018.93049  -5697136.66347  21603513.849    21603522.838
       239.000         197.000
  21336293.386    -3684142.92049  -2858791.59347  21336292.792    21336302.430
       240.000         205.000
  23868839.080     5933098.70149   4614123.95545  23868837.907    23868851.176
       213.000         154.000
  24518773.821    -4521597.18549  -3499056.42445  24518773.117    24518788.612
       209.000         143.000
 02  2 13  1 47  0.0000000  0 10G30G15G26G23G 6G22G18G17G10G21
  23586724.698     5973507.38249   4381738.82045  23586724.031    23586737.514
       216.000         157.000
  21834120.880    -5224988.71449  -4053987.97047  21834120.233    21834130.925
       236.000         191.000
  21985906.704    -5633758.53649  -4372813.77146  21985905.964    21985916.078
       230.000         184.000
  20627572.825     -742855.39349   -570364.47447  20627572.389    20627580.918
       242.000         212.000
  20318234.987    -1245554.74549   -956356.25548  20318234.689    20318243.091
       245.000         214.000
  23716640.748    -4912660.94549  -3568780.29945  23716640.112    23716653.553
       213.000         153.000
  21589872.850    -7439707.36449  -5752997.68047  21589871.973    21589880.963
       238.000         197.000
  21330770.126    -3713167.63649  -2881408.19947  21330769.506    21330779.267
       240.000         204.000
  23888406.013     6035924.03449   4694247.55945  23888406.530    23888419.534
       216.000         154.000
  24501729.677    -4611163.35349  -3568847.93945  24501729.136    24501743.334
       210.000         143.000
 02  2 13  1 47 30.0000000  0 10G30G15G26G23G 6G22G18G17G10G21
  23605888.618     6074214.24649   4460211.59145  23605888.803    23605902.390
       217.000         157.000
  21824810.236    -5273916.21049  -4092113.19847  21824809.579    21824820.384
       236.000         191.000
  21977765.933    -5676538.64649  -4406148.81546  21977765.340    21977775.272
       230.000         184.000
  20632104.895     -719039.14749   -551806.34747  20632104.381    20632112.814
       242.000         212.000
  20321393.007    -1228959.15949   -943424.61948  20321392.763    20321401.207
       245.000         214.000
  23710545.140    -4944692.69549  -3593739.95245  23710544.851    23710559.312
       213.000         153.000
  21576304.202    -7511010.73649  -5808558.65047  21576303.186    21576312.236
       239.000         197.000
  21325271.545    -3742062.64349  -2903923.73147  21325270.712    21325280.567
       240.000         205.000
  23907987.545     6138825.41449   4774430.46945  23907987.355    23908000.415
       212.000         153.000
  24484718.906    -4700554.57949  -3638503.15445  24484718.552    24484734.487
       212.000         144.000
 02  2 13  1 48  0.0000000  0 10G30G15G26G23G 6G22G18G17G10G21
  23625057.034     6174944.49049   4538702.57945  23625057.803    23625070.596
       217.000         156.000
  21815526.771    -5322701.03849  -4130127.26047  21815525.966    21815536.898
       235.000         191.000
  21969725.891    -5718788.32949  -4439070.55446  21969725.625    21969736.007
       232.000         184.000
  20636719.811     -694787.63249   -532909.05147  20636719.177    20636727.955
       242.000         212.000
  20324641.464    -1211888.43449   -930122.74548  20324641.284    20324649.640
       245.000         214.000
  23704547.322    -4976210.55349  -3618299.19745  23704547.173    23704561.758
       215.000         154.000
  21562809.117    -7581927.49649  -5863818.36447  21562808.448    21562817.121
       239.000         198.000
  21319797.697    -3770827.71949  -2926338.01947  21319797.012    21319806.960
       240.000         205.000
  23927583.117     6241801.06449   4854671.19245  23927582.689    23927596.231
       215.000         153.000
  24467741.609    -4789769.63049  -3708021.09445  24467740.226    24467757.061
       209.000         145.000
 02  2 13  1 48 30.0000000  0 10G30G15G26G23G 6G22G18G17G10G21
  23644229.277     6275694.64149   4617209.08645  23644229.860    23644241.941
       217.000         156.000
  21806270.327    -5371343.54049  -4168030.41747  21806268.914    21806280.115
       235.000         191.000
  21961787.393    -5760505.49749  -4471577.33846  21961787.151    21961796.578
       231.000         185.000
  20641417.113     -670102.97649   -513674.24147  20641416.565    20641425.400
       242.000         212.000
  20327980.329    -1194342.50449   -916450.58148  20327980.072    20327988.481
       246.000         214.000
  23698647.502    -5007214.22349  -3642457.75645  23698646.688    23698659.757
       211.000         154.000
  21549387.743    -7652456.76749  -5918776.13947  21549387.100    21549395.861
       238.000         198.000
  21314348.465    -3799463.36149  -2948651.44547  21314347.594    21314357.471
       240.000         205.000
  23947192.314     6344847.99949   4934967.50445  23947192.204    23947205.342
       212.000         152.000
  24450798.003    -4878807.58849  -3777401.03445  24450796.586    24450812.897
       210.000         144.000
 02  2 13  1 49  0.0000000  0 10G30G15G26G23G 6G22G18G17G10G21
  23663404.754     6376462.21549   4695729.17745  23663404.676    23663418.427
       215.000         156.000
  21797041.018    -5419843.47049  -4205822.48347  21797039.983    21797051.137
       237.000         191.000
  21953950.731    -5801687.43149  -4503667.05146  21953950.636    21953959.871
       231.000         185.000
  20646196.620     -644986.55349   -494102.99047  20646196.276    20646204.636
       242.000         212.000
  20331409.843    -1176320.42949   -902407.39348  20331409.758    20331417.912
       245.000         214.000
  23692845.586    -5037702.97049  -3666215.07445  23692844.505    23692860.003
       216.000         155.000
  21536040.386    -7722597.37349  -5973431.06747  21536039.950    21536048.562
       239.000         198.000
  21308923.888    -3827969.59249  -2970864.02947  21308923.179    21308933.105
       240.000         205.000
  23966814.696     6447964.25949   5015317.83745  23966814.370    23966826.302
       213.000         151.000
  24433888.469    -4967667.00549  -3846641.86745  24433887.242    24433902.887
       210.000         144.000
 02  2 13  1 49 30.0000000  0 10G30G15G26G23G 6G22G18G17G10G21
  23682583.088     6477244.36849   4774260.61245  23682583.718    23682596.722
       214.000         156.000
  21787838.835    -5468200.97349  -4243503.56147  21787838.124    21787848.596
       235.000         191.000
  21946216.348    -5842331.96349  -4535338.01346  21946216.500    21946225.537
       233.000         185.000
  20651057.896     -619440.23049   -474196.75047  20651057.380    20651066.034
       242.000         212.000
  20334929.995    -1157821.89549   -887992.93948  20334929.801    20334938.156
       245.000         214.000
  23687141.791    -5067676.16949  -3689570.67345  23687140.654    23687155.966
       214.000         154.000
  21522767.189    -7792348.01349  -6027782.11747  21522766.579    21522775.346
       239.000         199.000
  21303523.886    -3856346.69849  -2992975.99047  21303523.198    21303532.684
       240.000         205.000
  23986449.794     6551147.42249   5095720.29645  23986447.028    23986463.545
       209.000         150.000
  24417013.138    -5056346.23449  -3915742.28045  24417011.954    24417027.928
       208.000         144.000
 02  2 13  1 50  0.0000000  0 10G30G15G26G23G 6G22G18G17G10G21
  23701763.660     6578038.37149   4852801.28345  23701763.870    23701777.172
       216.000         156.000
  21778663.746    -5516416.00649  -4281073.62547  21778662.736    21778673.582
       236.000         192.000
  21938584.627    -5882436.36349  -4566588.09546  21938584.144    21938593.683
       229.000         185.000
  20656000.790     -593465.21949   -453956.46847  20656000.329    20656008.945
       242.000         212.000
  20338540.975    -1138846.10249   -873206.59948  20338540.831    20338548.923
       245.000         213.000
  23681536.287    -5097133.00249  -3712523.91045  23681534.925    23681549.237
       213.000         154.000
  21509568.450    -7861707.45349  -6081828.34247  21509567.856    21509576.358
       239.000         199.000
  21298148.502    -3884594.39449  -3014987.11547  21298148.009    21298157.390
       240.000         205.000
  24006097.250     6654395.66849   5176173.44345  24006096.925    24006109.885
       212.000         150.000
  24400172.346    -5144844.26149  -3984701.50645  24400170.903    24400187.504
       209.000         144.000
 02  2 13  1 50 30.0000000  0 10G30G15G26G23G 6G22G18G17G10G21
  23720945.919     6678841.40949   4931348.99745  23720945.911    23720958.780
       215.000         156.000
  21769515.703    -5564488.89549  -4318532.93047  21769514.599    21769525.428
       236.000         192.000
  21931055.883    -5921998.56549  -4597415.68646  21931055.606    21931065.513
       230.000         185.000
  20661024.866     -567063.49749   -433383.68347  20661024.251    20661032.922
       242.000         212.000
  20342242.850    -1119392.66049   -858048.06148  20342242.728    20342250.989
       245.000         213.000
  23676029.049    -5126073.25649  -3735074.61445  23676028.217    23676043.584
       212.000         154.000
  21496444.392    -7930674.51449  -6135568.81947  21496443.842    21496452.333
       240.000         199.000
  21292797.656    -3912713.01149  -3036897.65447  21292796.893    21292806.349
       240.000         205.000
  24025756.654     6757706.50149   5256675.36145  24025753.717    24025769.079
       210.000         150.000
  24383366.248    -5233159.71149  -4053518.46245  24383365.557    24383381.065
       209.000         145.000
 02  2 13  1 51  0.0000000  0 10G30G15G26G23G 6G22G18G17G10G21
  23740129.460     6779651.02449   5009901.83645  23740128.941    23740143.022
       217.000         156.000
  21760394.722    -5612419.53949  -4355881.38747  21760393.443    21760404.369
       236.000         192.000
  21923630.970    -5961015.85849  -4627818.66546  21923630.856    21923640.582
       231.000         185.000
  20666129.820     -540236.66749   -412479.64347  20666129.386    20666137.879
       242.000         212.000
  20346035.727    -1099460.79449   -842516.72748  20346035.493    20346043.763
       246.000         213.000
  23670620.211    -5154496.12349  -3757222.16545  23670618.222    23670633.617
       213.000         154.000
  21483395.243    -7999247.91449  -6189002.54947  21483394.565    21483403.052
       240.000         199.000
  21287471.345    -3940702.53549  -3058707.60247  21287470.481    21287480.365
       240.000         205.000
  24045427.582     6861077.95649   5337224.50945  24045426.488    24045438.369
       213.000         150.000
  24366595.155    -5321291.06949  -4122191.94945  24366593.548    24366609.943
       209.000         146.000
 02  2 13  1 51 30.0000000  0 10G30G15G26G23G 6G22G18G17G10G21
  23759313.644     6880463.95249   5088457.23945  23759314.579    23759326.603
       217.000         156.000
  21751300.755    -5660208.22249  -4393119.23747  21751299.988    21751310.469
       235.000         192.000
  21916310.151    -5999486.26349  -4657795.50046  21916309.535    21916319.556
       231.000         186.000
  20671315.307     -512986.64649   -391245.84447  20671314.657    20671323.554
       242.000         212.000
  20349919.712    -1079050.33349   -826612.46448  20349919.484    20349927.785
       245.000         213.000
  23665309.955    -5182401.36249  -3778966.35345  23665308.418    23665322.949
       212.000         154.000
  21470421.186    -8067426.75649  -6242128.83047  21470420.717    21470428.869
       239.000         200.000
  21282169.574    -3968563.35149  -3080417.25747  21282168.861    21282178.556
       239.000         205.000
  24065109.601     6964507.51649   5417818.97745  24065108.612    24065121.304
       212.000         149.000
  24349859.263    -5409237.11649  -4190721.04845  24349857.394    24349873.481
       207.000         145.000
 02  2 13  1 52  0.0000000  0 10G30G15G26G23G 6G22G18G17G10G21
  23778497.837     6981277.08749   5167012.81445  23778498.238    23778511.166
       215.000         156.000
  21742233.728    -5707855.36849  -4430246.79647  21742232.676    21742243.559
       236.000         192.000
  21909093.968    -6037407.96249  -4687344.78146  21909093.380    21909103.517
       231.000         186.000
  20676580.947     -485315.47849   -369683.87647  20676580.301    20676588.911
       242.000         212.000
  20353894.730    -1058161.28949   -810335.27648  20353894.552    20353902.710
       246.000         213.000
  23660098.177    -5209788.89949  -3800307.14845  23660097.006    23660112.751
       213.000         155.000
  21457522.367    -8135210.30849  -6294947.08947  21457521.847    21457530.254
       240.000         200.000
  21276892.178    -3996296.03849  -3102027.06847  21276891.525    21276901.068
       240.000         205.000
  24084802.223     7067992.62849   5498456.71745  24084801.499    24084813.564
       212.000         148.000
  24333158.811    -5496997.16049  -4259105.20445  24333158.145    24333173.807
       209.000         145.000
 02  2 13  1 52 30.0000000  0 10G30G15G26G23G 6G22G18G17G10G21
  23797681.685     7082088.29749   5245566.89345  23797682.467    23797695.371
       213.000         155.000
  21733193.740    -5755360.46749  -4467263.66247  21733193.034    21733203.534
       236.000         192.000
  21901982.530    -6074778.11449  -4716464.29446  21901982.483    21901991.837
       231.000         185.000
  20681926.524     -457224.23849   -347794.57547  20681926.051    20681934.488
       242.000         211.000
  20357961.071    -1036792.60849   -793684.34648  20357960.967    20357969.130
       245.000         213.000
  23654985.009    -5236657.77249  -3821243.79545  23654984.075    23654998.791
       212.000         154.000
  21444699.078    -8202596.88749  -6347456.02347  21444698.314    21444706.631
       239.000         200.000
  21271639.260    -4023900.03349  -3123536.60647  21271638.591    21271648.146
       240.000         205.000
  24104505.070     7171531.67849   5579136.48445  24104503.410    24104517.320
       208.000         148.000
  24316494.182    -5584568.96349  -4327342.66545  24316492.473    24316508.904
       210.000         145.000
 02  2 13  1 53  0.0000000  0 10G30G15G26G23G 6G22G18G17G10G21
  23816864.519     7182894.07649   5324116.73045  23816865.647    23816877.790
       216.000         155.000
  21724180.681    -5802724.02249  -4504170.24047  21724179.713    21724190.308
       235.000         192.000
  21894976.425    -6111594.87449  -4745152.59446  21894976.813    21894985.906
       231.000         185.000
  20687351.588     -428715.27149   -325579.77447  20687351.035    20687359.547
       242.000         211.000
  20362118.676    -1014944.31249   -776659.69248  20362118.549    20362126.628
       245.000         213.000
  23649970.594    -5263008.10849  -3841776.37945  23649969.627    23649983.361
       213.000         154.000
  21431951.429    -8269585.77949  -6399655.07147  21431950.809    21431959.210
       240.000         200.000
  21266410.674    -4051376.10349  -3144946.45947  21266409.881    21266419.438
       240.000         205.000
  24124217.608     7275121.88649   5659856.09645  24124217.552    24124229.893
       213.000         148.000
  24299865.554    -5671951.93149  -4395432.99045  24299864.484    24299880.314
       211.000         146.000
 02  2 13  1 53 30.0000000  0 10G30G15G26G23G 6G22G18G17G10G21
  23836045.832     7283692.14549   5402660.56545  23836046.309    23836059.139
       213.000         155.000
  21715194.577    -5849945.90049  -4540966.42447  21715194.004    21715204.473
       236.000         192.000
  21888076.210    -6147855.86949  -4773407.80746  21888075.890    21888085.409
       231.000         185.000
  20692855.845     -399790.15749   -303040.69947  20692855.344    20692863.767
       242.000         211.000
  20366367.667     -992615.67449   -759260.74648  20366367.477    20366375.784
       245.000         213.000
  23645054.996    -5288839.22549  -3861904.37345  23645054.110    23645069.020
       215.000         154.000
  21419279.644    -8336175.98549  -6451543.45547  21419278.942    21419287.682
       240.000         200.000
  21261206.514    -4078723.97949  -3166256.42247  21261205.933    21261215.451
       240.000         205.000
  24143939.615     7378761.27949   5740614.04145  24143939.219    24143953.493
       211.000         148.000
  24283273.120    -5759144.27949  -4463374.77045  24283272.111    24283286.998
       211.000         145.000
 02  2 13  1 54  0.0000000  0 10G30G15G26G23G 6G22G18G17G10G21
  23855225.165     7384479.48349   5481196.03545  23855226.221    23855238.440
       215.000         155.000
  21706235.405    -5897026.50349  -4577652.51547  21706234.317    21706244.961
       236.000         193.000
  21881282.041    -6183559.04149  -4801228.36946  21881281.784    21881291.110
       233.000         185.000
  20698438.915     -370450.88049   -280178.89947  20698438.259    20698447.093
       242.000         211.000
  20370708.087     -969806.69349   -741487.50748  20370707.932    20370716.225
       245.000         213.000
  23640238.220    -5314150.84049  -3881627.57545  23640237.044    23640252.006
       212.000         154.000
  21406683.950    -8402366.48849  -6503120.38047  21406683.162    21406691.632
       239.000         201.000
  21256026.666    -4105944.01249  -3187466.76847  21256025.909    21256035.365
       240.000         205.000
  24163670.452     7482447.40149   5821408.41345  24163670.089    24163684.663
       212.000         148.000
  24266717.121    -5846145.64849  -4531167.73545  24266715.922    24266731.244
       209.000         146.000
 02  2 13  1 54 30.0000000  0 10G30G15G26G23G 6G22G18G17G10G21
  23874401.965     7485253.54449   5559721.15045  23874402.925    23874415.598
       215.000         155.000
  21697303.135    -5943965.50449  -4614228.27247  21697302.600    21697312.823
       235.000         193.000
  21874594.451    -6218702.16249  -4828612.52546  21874594.463    21874603.890
       232.000         186.000
  20704100.529     -340698.86849   -256995.48347  20704099.930    20704108.467
       242.000         211.000
  20375140.007     -946516.72249   -723339.47248  20375139.854    20375148.052
       245.000         213.000
  23635520.480    -5338942.39949  -3900945.51545  23635519.091    23635533.322
       212.000         154.000
  21394164.550    -8468155.90249  -6554384.77147  21394163.799    21394172.291
       240.000         201.000
  21250871.169    -4133036.12449  -3208577.43747  21250870.588    21250879.859
       240.000         205.000
  24183409.866     7586178.45849   5902237.80945  24183410.074    24183423.761
       213.000         148.000
  24250197.856    -5932953.71049  -4598810.06545  24250197.088    24250212.320
       212.000         146.000
 02  2 13  1 55  0.0000000  0 10G30G15G26G23G 6G22G18G17G10G21
  23893575.638     7586011.32949   5638233.59345  23893574.772    23893588.813
       214.000         155.000
  21688397.779    -5990763.43449  -4650694.10547  21688396.845    21688407.522
       236.000         193.000
  21868013.800    -6253283.11649  -4855558.63346  21868014.079    21868023.241
       232.000         186.000
  20709840.285     -310536.23349   -233492.10247  20709839.876    20709848.205
       242.000         211.000
  20379663.471     -922745.75049   -704816.62848  20379663.393    20379671.473
       245.000         213.000
  23630901.590    -5363213.91449  -3919858.25645  23630900.938    23630915.203
       215.000         154.000
  21381721.647    -8533543.58249  -6605336.12647  21381721.152    21381729.371
       240.000         201.000
  21245739.936    -4160000.50349  -3229588.57647  21245739.281    21245748.808
       240.000         205.000
  24203157.347     7689951.98949   5983100.28645  24203157.163    24203168.827
       212.000         148.000
  24233715.478    -6019567.72749  -4666301.19545  24233713.449    24233729.985
       209.000         146.000
 02  2 13  1 55 30.0000000  0 10G30G15G26G23G 6G22G18G17G10G21
  23912745.712     7686750.42149   5716731.46745  23912746.620    23912759.424
       215.000         155.000
  21679519.259    -6037420.06149  -4687049.82847  21679518.642    21679529.404
       236.000         193.000
  21861540.649    -6287299.70949  -4882064.97346  21861540.211    21861550.391
       231.000         186.000
  20715657.849     -279964.59749   -209670.01747  20715657.409    20715666.036
       242.000         211.000
  20384278.612     -898493.12049   -685918.46748  20384278.428    20384286.808
       245.000         213.000
  23626381.868    -5386964.84749  -3938365.34745  23626380.697    23626395.646
       213.000         154.000
  21369355.440    -8598528.10749  -6655973.33147  21369354.953    21369363.135
       240.000         202.000
  21240633.045    -4186837.12549  -3250500.17047  21240632.466    21240642.163
       240.000         206.000
  24222912.546     7793765.89349   6063994.21045  24222912.437    24222923.747
       214.000         148.000
  24217270.268    -6105986.87149  -4733640.47245  24217269.443    24217284.505
       212.000         146.000
 02  2 13  1 56  0.0000000  0 10G30G15G26G23G 6G22G18G17G10G21
  23931911.724     7787468.12049   5795212.66845  23931912.172    23931925.207
       215.000         154.000
  21670667.642    -6083935.39849  -4723295.46147  21670666.700    21670677.039
       235.000         194.000
  21855175.319    -6320749.63449  -4908129.75246  21855175.317    21855184.810
       232.000         186.000
  20721552.931     -248985.67349   -185530.56447  20721552.408    20721560.881
       242.000         211.000
  20388985.464     -873758.31449   -666644.58648  20388985.409    20388993.488
       245.000         213.000
  23621961.305    -5410194.74849  -3956466.45345  23621961.127    23621975.634
       213.000         154.000
  21357066.153    -8663108.52949  -6706295.65247  21357065.381    21357074.052
       241.000         202.000
  21235550.495    -4213545.96049  -3271312.18947  21235549.935    21235559.448
       240.000         206.000
  24242675.034     7897618.07849   6144917.96745  24242674.636    24242688.513
       215.000         149.000
  24200862.535    -6192209.25649  -4800826.44945  24200862.132    24200875.824
       209.000         147.000
 02  2 13  1 56 30.0000000  0 10G30G15G26G23G 6G22G18G17G10G21
  23951073.078     7888161.30149   5873674.76245  23951073.827    23951087.005
       213.000         154.000
  21661842.789    -6130309.95049  -4759431.38647  21661841.799    21661852.085
       236.000         194.000
  21848917.968    -6353631.30449  -4933751.72746  21848918.109    21848926.938
       233.000         186.000
  20727525.099     -217601.66249   -161075.45847  20727524.723    20727532.956
       242.000         211.000
  20393784.078     -848541.45449   -646995.07748  20393783.827    20393792.141
       245.000         213.000
  23617639.796    -5432903.74749  -3974161.64945  23617639.139    23617653.505
       213.000         154.000
  21344853.827    -8727284.34949  -6756302.69947  21344853.395    21344861.493
       240.000         202.000
  21230492.205    -4240127.29349  -3292024.85847  21230491.477    21230501.002
       241.000         206.000
  24262444.414     8001506.33749   6225869.87645  24262444.689    24262458.051
       214.000         150.000
  24184492.306    -6278233.87649  -4867858.30545  24184490.436    24184506.002
       212.000         147.000
 02  2 13  1 57  0.0000000  0 10G30G15G26G23G 6G22G18G17G10G21
  23970229.210     7988827.43849   5952115.79145  23970229.485    23970243.187
       213.000         153.000
  21653044.767    -6176543.49149  -4795457.42447  21653043.970    21653054.449
       236.000         194.000
  21842769.401    -6385942.40149  -4958929.10446  21842769.066    21842778.410
       232.000         186.000
  20733574.025     -185814.19749   -136305.97047  20733573.636    20733582.137
       242.000         211.000
  20398674.553     -822841.85049   -626969.40247  20398674.252    20398682.649
       245.000         212.000
  23613417.599    -5455091.45949  -3991450.65445  23613416.022    23613430.723
       212.000         154.000
  21332718.741    -8791054.28149  -6805993.47047  21332718.157    21332726.517
       241.000         202.000
  21225458.114    -4266581.20849  -3312638.23947  21225457.542    21225467.157
       240.000         206.000
  24282220.193     8105428.66549   6306848.32345  24282219.060    24282232.061
       213.000         150.000
  24168160.043    -6364059.32649  -4934734.98445  24168159.991    24168174.683
       210.000         148.000
 02  2 13  1 57 30.0000000  0 10G30G15G26G23G 6G22G18G17G10G21
  23989379.747     8089463.86049   6030533.65445  23989381.187    23989393.456
       213.000         153.000
  21644273.558    -6222636.26049  -4831373.77447  21644272.282    21644283.203
       236.000         194.000
  21836729.706    -6417681.07849  -4983660.43646  21836729.417    21836738.688
       233.000         186.000
  20739699.376     -153625.16649   -111223.57347  20739698.905    20739707.406
       242.000         211.000
  20403656.897     -796659.40749   -606567.48747  20403656.562    20403665.089
       245.000         212.000
  23609294.546    -5476757.65949  -4008333.28645  23609293.756    23609308.091
       212.000         154.000
  21320661.060    -8854417.50949  -6855367.32747  21320660.444    21320668.852
       241.000         202.000
  21220448.299    -4292907.83849  -3333152.43947  21220447.710    21220457.045
       241.000         206.000
  24302002.080     8209383.16749   6387851.81245  24302000.055    24302012.927
       212.000         150.000
  24151865.731    -6449685.28149  -5001456.20945  24151864.922    24151880.079
       212.000         149.000
 02  2 13  1 58  0.0000000  0 10G30G15G26G23G 6G22G18G17G10G21
  24008524.079     8190067.59949   6108926.05145  24008524.914    24008538.028
       212.000         152.000
  21635529.121    -6268588.19349  -4867180.38147  21635527.966    21635538.649
       237.000         195.000
  21830799.312    -6448845.32749  -5007944.15846  21830798.862    21830808.627
       230.000         186.000
  20745900.766     -121036.48549    -85829.75847  20745900.172    20745908.607
       242.000         211.000
  20408731.168     -769994.03749   -585789.26647  20408731.089    20408739.267
       245.000         212.000
  23605270.706    -5497902.30049  -4024809.51445  23605268.713    23605283.009
       212.000         154.000
  21308680.925    -8917373.10149  -6904423.54947  21308680.408    21308688.557
       240.000         203.000
  21215462.709    -4319107.18949  -3353567.46347  21215462.041    21215471.525
       241.000         206.000
  24321789.638     8313367.33249   6468878.42145  24321788.756    24321802.294
       213.000         151.000
  24135609.784    -6535109.92749  -5068020.57645  24135607.926    24135623.396
       213.000         149.000
 02  2 13  1 58 30.0000000  0 10G30G15G26G23G 6G22G18G17G10G21
  24027661.838     8290636.53749   6187291.32745  24027661.476    24027675.658
       212.000         152.000
  21626811.574    -6314398.82849  -4902876.87947  21626810.451    21626821.219
       236.000         195.000
  21824978.477    -6479432.79249  -5031778.45346  21824977.942    21824987.467
       234.000         187.000
  20752177.961      -88049.49649    -60125.57847  20752177.317    20752186.014
       242.000         211.000
  20413897.441     -742844.92649   -564634.10747  20413897.413    20413905.386
       245.000         212.000
  23601346.260    -5518524.64549  -4040878.76445  23601344.699    23601359.256
       212.000         153.000
  21296778.666    -8979919.69849  -6953161.07547  21296778.047    21296786.295
       241.000         203.000
  21210501.411    -4345178.81449  -3373882.96447  21210500.716    21210510.403
       241.000         206.000
  24341582.517     8417379.64449   6549926.96945  24341582.403    24341594.827
       214.000         151.000
  24119392.475    -6620331.46549  -5134426.67845  24119391.583    24119406.202
       211.000         149.000
 02  2 13  1 59  0.0000000  0 10G30G15G26G23G 6G22G18G17G10G21
  24046792.292     8391167.31749   6265626.86045  24046792.882    24046807.140
       211.000         151.000
  21618120.873    -6360068.64449  -4938463.65447  21618120.007    21618130.026
       237.000         195.000
  21819267.920    -6509442.08649  -5055162.22446  21819267.825    21819276.617
       230.000         187.000
  20758530.475      -54666.74749    -34113.01247  20758529.859    20758538.380
       242.000         211.000
  20419155.688     -715212.67849   -543102.47847  20419155.533    20419163.535
       245.000         212.000
  23597521.124    -5538625.23849  -4056541.45545  23597520.367    23597534.129
       213.000         153.000
  21284954.324    -9042056.90949  -7001579.59847  21284953.753    21284961.964
       242.000         203.000
  21205564.221    -4371123.53649  -3394099.57647  21205563.464    21205573.047
       240.000         206.000
  24361380.239     8521417.42349   6630995.38345  24361379.468    24361393.394
       213.000         151.000
  24103213.875    -6705349.47649  -5200674.19745  24103213.103    24103228.271
       213.000         149.000
 02  2 13  1 59 30.0000000  0 10G30G15G26G23G 6G22G18G17G10G21
  24065915.017     8491657.62449   6343930.86745  24065915.773    24065929.041
       211.000         150.000
  21609456.944    -6405597.53849  -4973940.61547  21609456.095    21609466.401
       237.000         195.000
  21813667.735    -6538871.04549  -5078093.77646  21813667.492    21813676.763
       231.000         187.000
  20764957.993      -20889.78049     -7793.26747  20764957.499    20764965.899
       243.000         211.000
  20424505.962     -687096.80749   -521193.99647  20424505.929    20424513.985
       245.000         212.000
  23593795.342    -5558203.66749  -4071797.26545  23593794.786    23593808.437
       215.000         154.000
  21273208.073    -9103783.51949  -7049678.17547  21273207.585    21273215.476
       241.000         203.000
  21200651.329    -4396940.89949  -3414216.94847  21200650.555    21200660.062
       241.000         206.000
  24381182.456     8625478.79549   6712082.17845  24381181.539    24381194.797
       212.000         149.000
  24087074.336    -6790162.68549  -5266762.13845  24087072.936    24087087.651
       212.000         150.000
 02  2 13  2  0  0.0000000  0 10G30G15G26G23G 6G22G18G17G10G21
  24085029.492     8592104.22149   6422200.80845  24085029.041    24085043.382
       211.000         149.000
  21600819.695    -6450986.09249  -5009308.20947  21600818.624    21600828.774
       236.000         195.000
  21808178.266    -6567718.35149  -5100572.09446  21808177.993    21808187.035
       233.000         187.000
  20771460.107       13279.05449     18831.83147  20771459.428    20771467.925
       242.000         211.000
  20429948.166     -658497.65349   -498908.92747  20429947.911    20429956.159
       245.000         212.000
  23590169.093    -5577260.31149  -4086646.50345  23590167.147    23590182.921
       215.000         154.000
  21261539.994    -9165099.43149  -7097456.72747  21261539.333    21261547.781
       241.000         204.000
  21195762.479    -4422631.56449  -3434235.59047  21195761.749    21195771.267
       240.000         206.000
  24400988.712     8729561.29149   6793185.42945  24400987.238    24401000.095
       209.000         149.000
  24070973.824    -6874770.37549  -5332689.92245  24070972.403    24070987.139
       213.000         150.000
 02  2 13  2  0 30.0000000  0 10G30G15G26G23G 6G22G18G17G10G21
  24104135.213     8692504.93849   6500435.00145  24104136.374    24104149.443
       209.000         149.000
  21592209.345    -6496233.60449  -5044565.90347  21592208.165    21592218.828
       236.000         195.000
  21802799.962    -6595981.49549  -5122595.22446  21802799.836    21802808.696
       232.000         187.000
  20778036.503       47838.33649     45761.17047  20778035.855    20778044.454
       243.000         211.000
  20435482.510     -629414.48249   -476246.70847  20435482.290    20435490.724
       245.000         212.000
  23586642.122    -5595794.58549  -4101088.68245  23586641.798    23586655.769
       216.000         154.000
  21249950.342    -9226002.99249  -7144913.96947  21249949.716    21249957.940
       241.000         204.000
  21190897.858    -4448195.12849  -3454155.20047  21190897.167    21190906.699
       240.000         206.000
  24420798.668     8833663.23149   6874303.82445  24420797.614    24420811.930
       207.000         149.000
  24054912.757    -6959170.65449  -5398456.09345  24054911.771    24054925.278
       213.000         151.000
 02  2 13  2  1  0.0000000  0 10G30G15G26G23G 6G22G18G17G10G21
  24123231.632     8792856.54549   6578630.93045  24123231.025    24123246.709
       211.000         149.000
  21583625.635    -6541340.82949  -5079714.28747  21583624.538    21583635.047
       237.000         195.000
  21797532.919    -6623659.39549  -5144162.31846  21797532.572    21797541.450
       232.000         187.000
  20784686.701       82785.49849     72992.75747  20784686.121    20784694.707
       243.000         211.000
  20441108.846     -599847.81849   -453207.73747  20441108.555    20441116.903
       245.000         212.000
  23583214.439    -5613807.15749  -4115124.35845  23583212.951    23583227.018
       213.000         154.000
  21238439.193    -9286494.16749  -7192049.87147  21238438.615    21238446.620
       241.000         204.000
  21186057.296    -4473632.19649  -3473976.23447  21186056.658    21186066.126
       240.000         206.000
  24440611.881     8937782.02649   6955435.38645  24440610.477    24440624.088
       208.000         148.000
  24038891.261    -7043363.20649  -5464060.40845  24038890.592    24038903.847
       213.000         151.000
 02  2 13  2  1 30.0000000  0 10G30G15G26G23G 6G22G18G17G10G21
  24142318.270     8893157.22149   6656787.15645  24142318.870    24142332.346
       209.000         148.000
  21575068.777    -6586306.93049  -5114752.69747  21575067.771    21575078.034
       237.000         196.000
  21792377.695    -6650749.21349  -5165271.17246  21792377.731    21792386.267
       232.000         187.000
  20791410.552      118119.54549    100525.80847  20791410.046    20791418.505
       243.000         211.000
  20446827.411     -569796.66149   -429791.23747  20446827.336    20446835.183
       245.000         212.000
  23579886.118    -5631296.85349  -4128752.58645  23579884.745    23579899.016
       215.000         154.000
  21227006.833    -9346571.18849  -7238863.05447  21227006.179    21227014.111
       241.000         204.000
  21181241.030    -4498941.78749  -3493697.93447  21181240.552    21181249.566
       241.000         206.000
  24460428.042     9041916.68849   7036579.27045  24460426.129    24460439.459
       207.000         148.000
  24022909.609    -7127345.97549  -5529501.24545  24022908.656    24022922.750
       215.000         151.000
 02  2 13  2  2  0.0000000  0 10G30G15G26G23G 6G22G18G17G10G21
  24161394.787     8993404.42049   6734901.72445  24161395.984    24161408.775
       210.000         147.000
  21566538.839    -6631131.80649  -5149681.06347  21566538.256    21566548.344
       237.000         196.000
  21787334.806    -6677249.16849  -5185920.40147  21787334.862    21787343.744
       232.000         188.000
  20798207.646      153838.67149    128358.92347  20798207.061    20798215.395
       242.000         211.000
  20452638.211     -539260.76349   -405997.01547  20452638.153    20452646.142
       246.000         212.000
  23576657.455    -5648263.75849  -4141973.45445  23576655.381    23576669.938
       215.000         154.000
  21215653.499    -9406233.23549  -7285352.88347  21215652.949    21215660.805
       241.000         204.000
  21176449.018    -4524123.76049  -3513320.19147  21176448.430    21176457.770
       240.000         206.000
  24480246.762     9146064.99349   7117733.79445  24480245.858    24480259.381
       208.000         147.000
  24006968.192    -7211117.76949  -5594777.67745  24006967.282    24006981.419
       215.000         152.000
 02  2 13  2  2 30.0000000  0 10G30G15G26G23G 6G22G18G17G10G21
  24180460.542     9093594.75449   6812971.97245  24180460.895    24180474.036
       210.000         147.000
  21558035.584    -6675816.35849  -5184500.08447  21558034.703    21558044.988
       237.000         196.000
  21782404.421    -6703158.05849  -5206109.06047  21782404.145    21782413.283
       232.000         188.000
  20805077.526      189940.25749    156490.05547  20805076.805    20805085.419
       242.000         211.000
  20458541.123     -508240.72649   -381825.54747  20458540.827    20458548.909
       245.000         212.000
  23573527.835    -5664708.58949  -4154787.51245  23573525.578    23573540.997
       215.000         154.000
  21204379.148    -9465480.01049  -7331519.12047  21204378.564    21204386.589
       241.000         204.000
  21171681.176    -4549178.84449  -3532843.57247  21171680.501    21171689.985
       240.000         206.000
  24500067.647     9250224.64449   7198897.16745  24500066.997    24500079.524
       208.000         145.000
  23991066.887    -7294678.64249  -5659889.77045  23991065.331    23991080.029
       215.000         152.000
 02  2 13  2  3  0.0000000  0 10G30G15G26G23G 6G22G18G17G10G21
  24199514.948     9193725.90949   6890996.11345  24199515.794    24199529.286
       211.000         146.000
  21549559.044    -6720360.36349  -5219209.59047  21549558.071    21549568.150
       237.000         196.000
  21777586.764    -6728474.11949  -5225835.77547  21777586.660    21777595.994
       233.000         189.000
  20812019.840      226422.43549    184917.75247  20812019.399    20812027.655
       242.000         211.000
  20464536.213     -476736.36449   -357276.67947  20464535.987    20464544.133
       245.000         212.000
  23570497.801    -5680631.18049  -4167194.63545  23570497.224    23570510.734
       217.000         154.000
  21193184.000    -9524310.56049  -7377361.02947  21193183.534    21193191.482
       241.000         205.000
  21166937.473    -4574107.00949  -3552268.05647  21166936.675    21166945.947
       240.000         206.000
  24519890.301     9354393.43249   7280067.65445  24519890.053    24519902.855
       207.000         144.000
  23975206.007    -7378027.14849  -5724836.37345  23975204.601    23975219.027
       213.000         152.000
 02  2 13  2  3 30.0000000  0 10G30G15G26G23G 6G22G18G17G10G21
  24218557.553     9293794.72349   6968971.67345  24218558.011    24218571.374
       209.000         146.000
  21541109.236    -6764763.99349  -5253809.71247  21541108.151    21541118.241
       237.000         197.000
  21772882.356    -6753196.02349  -5245099.50747  21772882.707    21772891.987
       233.000         189.000
  20819034.159      263283.00449    213640.29847  20819033.553    20819042.076
       242.000         211.000
  20470623.413     -444747.87349   -332350.56747  20470623.302    20470631.357
       245.000         212.000
  23567567.033    -5696031.88349  -4179195.09045  23567565.554    23567580.900
       215.000         154.000
  21182068.140    -9582724.59149  -7422878.37947  21182067.620    21182075.552
       241.000         205.000
  21162217.856    -4598908.51949  -3571593.84847  21162217.162    21162226.470
       240.000         206.000
  24539714.196     9458569.06249   7361243.48045  24539713.050    24539726.451
       208.000         142.000
  23959385.676    -7461162.10349  -5789616.57045  23959384.313    23959398.106
       215.000         153.000
 02  2 13  2  4  0.0000000  0 10G30G15G26G23G 6G22G18G17G10G21
  24237587.784     9393798.73749   7046896.73045  24237588.657    24237602.223
       211.000         146.000
  21532686.127    -6809027.20349  -5288300.42547  21532685.092    21532695.180
       237.000         197.000
  21768291.413    -6777322.02949  -5263898.90747  21768291.385    21768299.879
       232.000         189.000
  20826120.121      300520.07749    242656.22447  20826119.507    20826128.067
       242.000         211.000
  20476802.681     -412275.34449   -307047.28247  20476802.445    20476810.801
       245.000         212.000
  23564735.637    -5710910.88049  -4190789.04345  23564735.033    23564748.278
       216.000         154.000
  21171031.695    -9640721.21649  -7468070.47447  21171030.940    21171039.070
       241.000         205.000
  21157522.356    -4623583.37949  -3590820.94947  21157521.663    21157530.968
       240.000         206.000
  24559538.954     9562749.58949   7442423.11845  24559538.355    24559552.017
       204.000         142.000
  23943606.232    -7544082.53349  -5854229.61645  23943605.547    23943619.115
       215.000         154.000
 02  2 13  2  4 30.0000000  0 10G30G15G26G23G 6G22G18G17G10G21
  24256605.339     9493735.96349   7124769.74745  24256606.171    24256619.556
       209.000         146.000
  21524289.893    -6853149.19249  -5322681.09447  21524289.285    21524299.170
       238.000         197.000
  21763814.177    -6800849.73549  -5282232.09847  21763813.865    21763823.001
       233.000         189.000
  20833277.466      338132.34249    271964.50847  20833276.903    20833285.373
       242.000         211.000
  20483074.237     -379318.04849   -281366.25747  20483073.893    20483082.216
       245.000         212.000
  23562003.424    -5725267.57949  -4201975.99445  23562002.725    23562016.046
       217.000         154.000
  21160074.931    -9698299.08549  -7512936.26847  21160074.126    21160082.328
       241.000         205.000
  21152851.081    -4648130.74049  -3609948.69547  21152850.326    21152859.572
       241.000         206.000
  24579364.516     9666933.93649   7523605.74945  24579363.571    24579377.244
       199.000         141.000
  23927867.978    -7626786.73549  -5918674.17245  23927867.192    23927881.662
       216.000         154.000
 02  2 13  2  5  0.0000000  0 10G30G15G26G23G 6G22G18G17G10G21
  24275609.620     9593603.45649   7202588.42645  24275609.865    24275623.951
       210.000         146.000
  21515920.512    -6897130.31849  -5356952.00247  21515919.919    21515929.478
       237.000         197.000
  21759451.069    -6823778.03349  -5300098.21647  21759451.045    21759459.524
       232.000         189.000
  20840505.781      376117.49749    301563.35647  20840505.228    20840513.781
       243.000         211.000
  20489437.990     -345876.38049   -255307.80247  20489437.887    20489446.043
       245.000         211.000
  23559370.694    -5739102.27549  -4212756.19645  23559370.038    23559383.233
       216.000         154.000
  21149197.962    -9755457.74549  -7557475.40647  21149197.445    21149205.541
       242.000         206.000
  21148204.027    -4672550.97849  -3628977.38747  21148203.184    21148212.596
       241.000         206.000
  24599190.381     9771119.72149   7604789.48745  24599190.315    24599202.343
       204.000         141.000
  23912171.024    -7709273.92249  -5982949.63445  23912169.939    23912183.906
       215.000         154.000
 02  2 13  2  5 30.0000000  0 10G30G15G26G23G 6G22G18G17G10G21
  24294600.159     9693398.93049   7280350.98045  24294600.878    24294614.163
       209.000         145.000
  21507577.903    -6940970.63049  -5391113.19547  21507576.994    21507587.049
       238.000         197.000
  21755202.332    -6846104.96749  -5317495.73947  21755202.117    21755210.879
       233.000         189.000
  20847804.671      414473.56349    331451.22247  20847804.096    20847812.603
       242.000         211.000
  20495893.915     -311950.21449   -228871.81347  20495893.648    20495901.963
       245.000         211.000
  23556837.512    -5752415.04949  -4223129.70845  23556835.712    23556850.327
       216.000         155.000
  21138400.852    -9812196.59149  -7601687.41647  21138400.450    21138408.207
       241.000         206.000
  21143581.196    -4696843.82049  -3647906.80847  21143580.564    21143589.656
       240.000         206.000
  24619016.098     9875305.03449   7685972.86045  24619015.320    24619029.216
       206.000         139.000
  23896515.549    -7791542.80249  -6047054.98145  23896514.627    23896527.945
       214.000         154.000
 02  2 13  2  6  0.0000000  0 10G30G15G26G23G 6G22G18G17G10G21
  24313576.322     9793118.91349   7358054.71545  24313576.781    24313590.423
       210.000         145.000
  21499262.013    -6984670.55449  -5425164.98647  21499261.111    21499271.218
       237.000         197.000
  21751068.177    -6867829.50749  -5334423.86647  21751067.919    21751077.136
       232.000         189.000
  20855173.714      453198.13249    361626.23547  20855173.264    20855181.624
       243.000         211.000
  20502441.935     -277540.10949   -202058.73647  20502441.805    20502449.962
       245.000         211.000
  23554403.189    -5765206.67549  -4233097.12845  23554402.536    23554416.624
       216.000         155.000
  21127683.689    -9868515.29149  -7645572.03647  21127683.019    21127691.123
       242.000         206.000
  21138982.506    -4721009.89349  -3666737.44947  21138981.987    21138991.238
       241.000         207.000
  24638841.351     9979487.39249   7767153.95745  24638840.745    24638853.689
       205.000         138.000
  23880901.708    -7873592.83649  -6110989.79645  23880899.637    23880913.534
       217.000         154.000
 02  2 13  2  6 30.0000000  0 10G30G15G26G23G 6G22G18G17G10G21
  24332537.849     9892761.75549   7435698.33145  24332537.635    24332551.596
       210.000         146.000
  21490972.967    -7028229.54249  -5459106.96647  21490972.240    21490982.007
       238.000         197.000
  21747048.892    -6888949.63049  -5350881.01647  21747048.841    21747057.496
       231.000         189.000
  20862612.596      492289.83849    392087.33147  20862611.894    20862620.486
       243.000         211.000
  20509082.152     -242645.49949   -174868.11747  20509081.938    20509090.204
       245.000         211.000
  23552068.169    -5777476.69149  -4242658.09245  23552067.213    23552080.897
       215.000         155.000
  21117046.774    -9924412.37449  -7689128.12247  21117046.203    21117054.035
       242.000         206.000
  21134408.027    -4745048.50449  -3685468.76547  21134407.394    21134416.493
       241.000         207.000
  24658665.816    10083665.69649   7848331.86845  24658665.001    24658677.872
       205.000         138.000
  23865329.750    -7955422.88049  -6174753.20445  23865328.327    23865341.798
       216.000         155.000
 02  2 13  2  7  0.0000000  0 10G30G15G26G23G 6G22G18G17G10G21
  24351484.102     9992324.61149   7513279.62745  24351484.878    24351498.389
       209.000         146.000
  21482710.740    -7071647.53249  -5492939.07247  21482709.660    21482719.551
       238.000         197.000
  21743144.983    -6909463.98849  -5366866.14447  21743145.244    21743153.798
       232.000         189.000
  20870120.950      531746.60849    422832.88947  20870120.466    20870128.745
       243.000         211.000
  20515814.508     -207266.58649   -147300.12047  20515814.227    20515822.316
       245.000         211.000
  23549832.406    -5789225.41649  -4251812.86445  23549831.481    23549845.044
       214.000         155.000
  21106490.112    -9979887.60749  -7732355.49547  21106489.312    21106497.211
       241.000         206.000
  21129857.857    -4768959.73049  -3704100.82147  21129857.174    21129866.443
       241.000         207.000
  24678489.032    10187837.64549   7929504.87545  24678487.788    24678501.351
       206.000         138.000
  23849799.973    -8037031.46749  -6238344.05645  23849799.347    23849811.956
       216.000         155.000
 02  2 13  2  7 30.0000000  0 10G30G15G26G23G 6G22G18G17G10G21
  24370414.605    10091804.50349   7590796.25745  24370415.333    24370429.541
       210.000         145.000
  21474475.235    -7114925.05349  -5526661.73347  21474474.091    21474484.269
       238.000         198.000
  21739356.583    -6929371.52049  -5382378.43347  21739356.736    21739365.559
       233.000         189.000
  20877698.322      571565.97449    453860.98847  20877697.900    20877706.220
       242.000         210.000
  20522638.885     -171404.23749   -119355.42547  20522638.613    20522646.865
       245.000         211.000
  23547695.693    -5800453.70849  -4260562.09945  23547694.231    23547708.627
       214.000         155.000
  21096013.812   -10034940.63549  -7775253.87947  21096013.214    21096021.079
       242.000         206.000
  21125331.789    -4792743.90449  -3722633.87847  21125331.058    21125340.327
       240.000         207.000
  24698310.613    10292000.78849   8010670.99545  24698309.316    24698321.504
       204.000         138.000
  23834312.344    -8118418.39749  -6301762.19645  23834311.050    23834324.802
       215.000         155.000
 02  2 13  2  8  0.0000000  0 10G30G15G26G23G 6G22G18G17G10G21
  24389328.859    10191198.93149   7668246.31045  24389329.868    24389343.260
       211.000         145.000
  21466266.457    -7158061.99249  -5560274.84647  21466265.504    21466275.712
       238.000         198.000
  21735684.255    -6948670.61449  -5397416.59947  21735684.249    21735692.957
       234.000         189.000
  20885344.331      611746.11249    485170.20947  20885343.747    20885352.247
       242.000         210.000
  20529555.284     -135058.25949    -91033.87547  20529555.185    20529563.165
       245.000         211.000
  23545657.932    -5811161.48649  -4268905.71545  23545656.391    23545669.874
       215.000         154.000
  21085618.007   -10089570.57049  -7817822.57547  21085617.281    21085625.370
       242.000         206.000
  21120829.981    -4816400.92349  -3741067.85047  21120829.434    21120838.479
       241.000         207.000
  24718130.255    10396153.65749   8091829.11245  24718129.585    24718142.667
       207.000         137.000
  23818867.216    -8199582.30849  -6365006.55145  23818866.432    23818879.201
       214.000         156.000
 02  2 13  2  8 30.0000000  0  9G30G15G26G23G 6G22G18G17G21
  24408226.446    10290505.80649   7745628.12245  24408226.386    24408240.637
       210.000         146.000
  21458084.581    -7201057.70849  -5593777.91947  21458083.658    21458093.403
       238.000         198.000
  21732128.056    -6967359.41449  -5411979.21247  21732128.111    21732136.835
       233.000         189.000
  20893058.679      652285.30949    516759.21647  20893058.037    20893066.391
       242.000         210.000
  20536563.771      -98228.39249    -62335.27547  20536563.733    20536571.664
       245.000         211.000
  23543719.477    -5821348.81349  -4276843.81145  23543718.233    23543732.780
       216.000         155.000
  21075302.860   -10143776.62449  -7860060.98047  21075302.082    21075310.166
       241.000         206.000
  21116352.470    -4839930.17849  -3759402.26647  21116351.914    21116360.967
       241.000         207.000
  23803464.680    -8280521.87549  -6428076.09945  23803463.065    23803477.419
       218.000         156.000
 02  2 13  2  9  0.0000000  0  9G30G15G26G23G 6G22G18G17G21
  24427107.104    10389723.60549   7822940.53545  24427108.035    24427121.789
       211.000         146.000
  21449929.791    -7243911.05049  -5627170.04747  21449928.523    21449938.840
       238.000         198.000
  21728688.149    -6985435.38849  -5426064.30747  21728688.262    21728696.831
       232.000         189.000
  20900841.203      693182.77349    548627.39347  20900840.649    20900848.763
       242.000         210.000
  20543664.519      -60913.72349    -33258.90247  20543664.197    20543672.400
       245.000         211.000
  23541880.085    -5831014.77749  -4284375.63045  23541879.426    23541892.088
       216.000         155.000
  21065068.729   -10197556.97849  -7901967.66647  21065068.097    21065076.091
       242.000         207.000
  21111899.512    -4863330.52149  -3777636.23347  21111898.887    21111908.022
       241.000         207.000
  23788105.279    -8361235.01549  -6490969.21945  23788104.968    23788117.464
       216.000         156.000
 02  2 13  2  9 30.0000000  0  9G30G15G26G23G 6G22G18G17G21
  24445969.890    10488847.71949   7900179.93845  24445971.006    24445984.514
       211.000         146.000
  21441801.706    -7286623.99349  -5660452.77847  21441800.460    21441810.611
       238.000         198.000
  21725364.771    -7002899.49849  -5439672.62847  21725364.223    21725373.178
       233.000         189.000
  20908691.082      734434.24849    580771.42047  20908690.535    20908698.886
       242.000         210.000
  20550857.035      -23116.64649     -3806.62847  20550856.818    20550865.089
       245.000         211.000
  23540139.409    -5840161.92449  -4291503.18945  23540138.111    23540151.925
       214.000         155.000
  21054915.290   -10250913.27949  -7943543.92047  21054914.696    21054922.534
       242.000         207.000
  21107470.632    -4886604.09249  -3795771.41847  21107470.083    21107479.063
       241.000         207.000
  23772788.714    -8441723.03649  -6553686.92045  23772788.271    23772800.470
       219.000         157.000
 02  2 13  2 10  0.0000000  0  9G30G15G26G23G 6G22G18G17G21
  24464814.481    10587876.08749   7977344.72945  24464815.661    24464829.242
       211.000         146.000
  21433700.433    -7329196.06349  -5693625.73747  21433699.409    21433709.324
       238.000         198.000
  21722158.417    -7019749.80949  -5452802.65747  21722157.793    21722166.986
       234.000         189.000
  20916608.050      776038.33149    613190.20847  20916607.454    20916615.843
       242.000         210.000
  20558141.461       15163.28349     26021.89747  20558141.265    20558149.471
       245.000         210.000
  23538497.162    -5848790.16549  -4298226.38845  23538496.508    23538509.998
       217.000         155.000
  21044842.760   -10303844.51349  -7984788.95447  21044842.059    21044850.041
       242.000         207.000
  21103066.022    -4909750.24249  -3813807.31147  21103065.352    21103074.392
       240.000         207.000
  23757515.401    -8521983.90049  -6616227.61945  23757514.115    23757527.862
       218.000         157.000
 02  2 13  2 10 30.0000000  0  9G30G15G26G23G 6G22G18G17G21
  24483640.288    10686805.53849   8054432.44445  24483640.678    24483654.940
       209.000         145.000
  21425625.875    -7371627.86149  -5726689.39247  21425625.068    21425635.081
       238.000         198.000
  21719068.816    -7035985.69449  -5465453.93047  21719068.192    21719077.363
       233.000         189.000
  20924591.616      817992.33849    645881.66447  20924591.107    20924599.341
       242.000         210.000
  20565517.659       53925.29349     56226.06747  20565517.359    20565525.504
       244.000         210.000
  23536954.067    -5856900.48549  -4304546.01545  23536953.206    23536966.988
       216.000         156.000
  21034851.126   -10356350.63049  -8025702.73147  21034850.516    21034858.357
       242.000         207.000
  21098685.520    -4932769.48349  -3831744.31847  21098684.754    21098694.063
       241.000         207.000
  23742285.241    -8602017.72349  -6678591.40245  23742283.459    23742298.053
       219.000         157.000
 02  2 13  2 11  0.0000000  0  9G30G15G26G23G 6G22G18G17G21
  24502447.085    10785635.12349   8131442.33845  24502448.518    24502462.995
       210.000         144.000
  21417578.338    -7413917.65849  -5759642.40047  21417577.590    21417587.362
       239.000         199.000
  21716096.511    -7051604.19649  -5477624.12247  21716096.139    21716104.836
       233.000         189.000
  20932641.635      860295.57749    678845.24847  20932641.194    20932649.505
       242.000         210.000
  20572985.771       93170.49949     86806.75247  20572985.518    20572993.855
       245.000         210.000
  23535509.204    -5864491.70649  -4310461.14545  23535508.117    23535522.465
       215.000         156.000
  21024940.778   -10408429.61049  -8066283.66947  21024940.157    21024947.879
       242.000         208.000
  21094329.496    -4955660.23949  -3849581.20547  21094329.010    21094338.040
       241.000         207.000
  23727098.810    -8681822.13149  -6740776.43245  23727098.102    23727111.002
       218.000         158.000
 02  2 13  2 11 30.0000000  0  9G30G15G26G23G 6G22G18G17G21
  24521234.223    10884361.41249   8208371.72645  24521235.222    24521249.026
       210.000         144.000
  21409557.667    -7456066.21149  -5792485.34847  21409556.642    21409566.210
       238.000         199.000
  21713241.926    -7066605.06349  -5489313.03647  21713241.666    21713250.178
       233.000         189.000
  20940757.553      902945.14249    712078.69747  20940756.996    20940765.265
       242.000         210.000
  20580545.570      132897.60049    117762.93947  20580545.295    20580553.624
       245.000         210.000
  23534163.163    -5871565.21949  -4315972.87045  23534161.539    23534176.369
       216.000         156.000
  21015111.630   -10460081.89049  -8106532.11847  21015111.041    21015118.844
       242.000         208.000
  21089997.809    -4978423.29449  -3867318.58447  21089997.279    21090006.191
       241.000         207.000
  23711955.940    -8761397.15249  -6802782.70845  23711954.805    23711968.101
       218.000         158.000
 02  2 13  2 12  0.0000000  0  9G30G15G26G23G 6G22G18G17G21
  24540001.287    10982982.17149   8285218.88745  24540001.990    24540016.098
       209.000         144.000
  21401563.895    -7498073.41649  -5825218.14647  21401563.096    21401572.669
       238.000         198.000
  21710505.083    -7080986.88249  -5500519.58247  21710505.160    21710513.981
       233.000         189.000
  20948939.038      945939.22949    745580.60547  20948938.482    20948946.783
       242.000         209.000
  20588197.057      173106.64449    149094.66447  20588196.928    20588205.017
       244.000         210.000
  23532915.393    -5878121.28049  -4321081.37145  23532914.252    23532928.406
       216.000         155.000
  21005363.761   -10511306.83749  -8146447.57747  21005362.960    21005371.007
       242.000         208.000
  21085690.484    -5001058.16549  -3884956.08147  21085689.801    21085698.972
       241.000         207.000
  23696856.982    -8840741.94049  -6864609.59245  23696855.938    23696869.351
       220.000         158.000
 02  2 13  2 12 30.0000000  0  9G30G15G26G23G 6G22G18G17G21
  24558747.818    11081494.91149   8361981.88445  24558749.362    24558762.325
       207.000         143.000
  21393597.084    -7539939.00749  -5857840.59747  21393596.232    21393606.067
       239.000         199.000
  21707886.107    -7094748.31749  -5511242.70047  21707885.693    21707894.699
       232.000         189.000
  20957185.744      989276.01649    779349.56047  20957185.053    20957193.430
       241.000         209.000
  20595940.275      213797.53349    180801.86047  20595940.087    20595948.255
       244.000         210.000
  23531766.180    -5884160.13649  -4325786.88445  23531765.628    23531779.140
       216.000         155.000
  20995697.345   -10562103.82849  -8186029.56247  20995696.572    20995704.555
       241.000         208.000
  21081407.579    -5023564.73849  -3902493.60347  21081406.816    21081415.819
       241.000         207.000
  23681802.175    -8919854.75949  -6926255.72245  23681801.470    23681813.789
       220.000         158.000
 02  2 13  2 13  0.0000000  0  9G30G15G26G23G 6G22G18G17G21
  24577473.309    11179897.32049   8438658.90445  24577473.409    24577489.000
       208.000         142.000
  21385657.203    -7581663.17449  -5890352.85247  21385656.408    21385665.824
       239.000         199.000
  21705385.494    -7107888.10449  -5521481.41847  21705385.424    21705393.887
       232.000         189.000
  20965497.277     1032953.35349    813383.87647  20965496.829    20965505.143
       242.000         209.000
  20603775.102      254969.88949    212884.22247  20603774.953    20603783.050
       244.000         210.000
  23530715.331    -5889682.30749  -4330089.77745  23530714.375    23530728.140
       216.000         155.000
  20986112.472   -10612472.33549  -8225277.66947  20986111.997    20986119.616
       242.000         208.000
  21077149.131    -5045942.91149  -3919931.07347  21077148.504    21077157.417
       241.000         208.000
  23666791.741    -8998734.73949  -6987720.42145  23666790.352    23666803.460
       220.000         159.000
 02  2 13  2 13 30.0000000  0  9G30G15G26G23G 6G22G18G17G21
  24596177.239    11278186.41549   8515247.60145  24596178.210    24596192.252
       209.000         142.000
  21377744.251    -7623245.85549  -5922754.85547  21377743.266    21377752.992
       239.000         199.000
  21703003.297    -7120405.51649  -5531235.18047  21703003.663    21703011.937
       233.000         190.000
  20973873.144     1076969.08149    847681.87347  20973872.730    20973880.948
       242.000         209.000
  20611701.453      296623.16149    245341.32147  20611701.136    20611709.432
       244.000         209.000
  23529762.740    -5894688.70649  -4333990.76645  23529761.605    23529775.085
       214.000         155.000
  20976609.210   -10662412.07749  -8264191.66847  20976608.636    20976616.334
       242.000         208.000
  21072915.102    -5068192.60549  -3937268.42847  21072914.415    21072923.301
       241.000         207.000
  23651825.679    -9077381.28249  -7049003.22745  23651824.563    23651837.821
       219.000         159.000
 02  2 13  2 14  0.0000000  0  9G30G15G26G23G 6G22G18G17G21
  24614859.228    11376360.06549   8591746.37045  24614859.657    24614873.872
       209.000         142.000
  21369858.234    -7664686.78249  -5955046.40047  21369857.376    21369867.084
       239.000         199.000
  21700739.968    -7132299.31949  -5540503.01047  21700740.050    21700748.776
       233.000         190.000
  20982313.019     1121320.98949    882241.83247  20982312.247    20982320.725
       242.000         209.000
  20619719.292      338757.13049    278172.98847  20619718.996    20619727.102
       244.000         209.000
  23528907.938    -5899179.78349  -4337490.20345  23528906.717    23528920.936
       214.000         155.000
  20967187.558   -10711922.86749  -8302771.41847  20967186.909    20967194.657
       241.000         208.000
  21068705.546    -5090313.78949  -3954505.64647  21068704.909    21068713.854
       241.000         207.000
  23636904.157    -9155793.52949  -7110103.45945  23636903.562    23636916.065
       218.000         159.000
 02  2 13  2 14 30.0000000  0  9G30G15G26G23G 6G22G18G17G21
  24633518.781    11474415.57949   8668153.06745  24633519.549    24633533.298
       203.000         142.000
  21361999.193    -7705985.86649  -5987227.41847  21361998.496    21362007.952
       238.000         199.000
  21698595.577    -7143568.60849  -5549284.19547  21698595.065    21698603.826
       233.000         189.000
  20990816.479     1166006.99049    917062.12347  20990815.891    20990824.135
       241.000         209.000
  20627828.494      381371.27449    311378.81847  20627828.322    20627836.383
       244.000         209.000
  23528151.245    -5903156.11849  -4340588.54945  23528149.681    23528163.798
       215.000         156.000
  20957847.615   -10761004.14349  -8341016.48447  20957847.084    20957854.726
       242.000         208.000
  21064520.433    -5112306.36449  -3971642.65447  21064519.746    21064528.477
       240.000         207.000
  23622027.372    -9233970.67449  -7171020.49945  23622027.051    23622038.067
       220.000         160.000
 02  2 13  2 15  0.0000000  0  9G30G15G26G23G 6G22G18G17G21
  24652155.127    11572350.04349   8744465.44345  24652156.957    24652169.490
       208.000         141.000
  21354167.083    -7747143.50849  -6019298.21447  21354166.058    21354175.968
       239.000         199.000
  21696570.152    -7154212.72849  -5557578.24947  21696569.787    21696579.136
       233.000         189.000
  20999383.004     1211024.52849    952140.75647  20999382.430    20999390.546
       242.000         209.000
  20636028.873      424464.48249    344957.94247  20636028.635    20636036.950
       244.000         209.000
  23527492.206    -5906618.87749  -4343286.70345  23527491.606    23527504.356
       215.000         156.000
  20948589.439   -10809655.88549  -8378926.84747  20948588.744    20948596.484
       242.000         208.000
  21060359.728    -5134170.57049  -3988679.63447  21060359.017    21060367.927
       241.000         207.000
  23607195.388    -9311912.53749  -7231754.20045  23607194.879    23607207.247
       219.000         160.000
 02  2 13  2 15 30.0000000  0  9G30G15G26G23G 6G22G18G17G21
  24670768.257    11670162.33349   8820682.60245  24670767.263    24670783.335
       207.000         140.000
  21346362.157    -7788158.34949  -6051257.73947  21346361.202    21346371.094
       239.000         199.000
  21694663.955    -7164229.39449  -5565383.36647  21694664.127    21694672.445
       233.000         189.000
  21008012.474     1256372.82249    987477.11847  21008011.926    21008020.154
       241.000         209.000
  20644320.623      468037.87849    378911.23847  20644320.444    20644328.382
       244.000         209.000
  23526931.029    -5909567.27649  -4345584.06945  23526929.705    23526942.856
       215.000         155.000
  20939413.297   -10857876.46949  -8416501.24447  20939412.756    20939420.276
       242.000         208.000
  21056223.759    -5155905.17549  -4005615.62347  21056223.020    21056231.770
       241.000         207.000
  23592408.501    -9389617.04049  -7292302.95545  23592407.076    23592419.514
       218.000         160.000
 02  2 13  2 16  0.0000000  0  9G30G15G26G23G 6G22G18G17G21
  24689357.567    11767849.19949   8896802.04545  24689358.473    24689372.442
       202.000         140.000
  21338584.221    -7829031.22349  -6083106.64047  21338583.446    21338592.973
       239.000         199.000
  21692877.137    -7173618.52149  -5572699.49847  21692877.334    21692885.875
       232.000         190.000
  21016704.335     1302049.08249   1023069.04047  21016703.719    21016712.218
       241.000         209.000
  20652703.500      512090.14549    413237.68447  20652703.361    20652711.562
       244.000         209.000
  23526467.589    -5912002.68949  -4347481.70045  23526466.616    23526478.613
       217.000         156.000
  20930319.161   -10905666.34649  -8453740.02347  20930318.552    20930326.076
       242.000         208.000
  21052112.365    -5177510.44849  -4022450.83747  21052111.636    21052120.655
       241.000         207.000
  23577666.899    -9467083.80149  -7352666.45345  23577665.652    23577679.239
       220.000         160.000
 02  2 13  2 16 30.0000000  0  8G15G26G23G 6G22G18G17G21
  21330833.686    -7869760.14649  -6114843.37547  21330832.792    21330842.653
       239.000         199.000
  21691210.244    -7182377.42949  -5579524.56247  21691210.697    21691219.003
       234.000         190.000
  21025458.487     1348052.57849   1058915.95047  21025457.898    21025466.345
       242.000         209.000
  20661177.686      556622.33049    447938.08547  20661177.444    20661185.638
       244.000         209.000
  23526101.868    -5913924.26149  -4348978.95245  23526100.779    23526114.284
       216.000         156.000
  20921307.300   -10953023.57549  -8490641.67847  20921306.731    20921314.107
       242.000         209.000
  21048025.859    -5198984.84149  -4039184.06547  21048025.015    21048034.019
       241.000         207.000
  23562971.012    -9544310.28649  -7412842.72045  23562970.005    23562983.151
       217.000         160.000
 02  2 13  2 17  0.0000000  0  8G15G26G23G 6G22G18G17G21
  21323111.120    -7910342.08149  -6146465.55947  21323110.168    21323119.805
       238.000         199.000
  21689664.215    -7190502.27649  -5585855.54647  21689664.668    21689672.460
       233.000         190.000
  21034275.098     1394384.38049   1095018.68347  21034274.525    21034282.843
       241.000         208.000
  20669743.700      601637.03849    483014.47747  20669743.594    20669751.755
       243.000         209.000
  23525834.438    -5915329.71549  -4350074.01545  23525832.975    23525846.650
       217.000         156.000
  20912378.473   -10999944.71749  -8527203.52247  20912377.982    20912385.500
       244.000         209.000
  21043964.911    -5220324.90149  -4055812.61547  21043964.087    21043973.012
       241.000         207.000
  23548321.533    -9621292.88449  -7472828.94345  23548320.887    23548332.078
       218.000         160.000
 02  2 13  2 17 30.0000000  0  8G15G26G23G 6G22G18G17G21
  21315415.269    -7950783.76149  -6177978.47047  21315414.376    21315424.120
       238.000         200.000
  21688237.630    -7197999.17649  -5591697.22147  21688237.596    21688245.990
       234.000         190.000
  21043152.483     1441035.46949   1131370.21047  21043151.979    21043160.307
       242.000         208.000
  20678400.132      647126.74149    518460.99947  20678399.922    20678408.254
       244.000         209.000
  23525663.733    -5916226.91849  -4350773.06545  23525662.483    23525675.727
       215.000         156.000
  20903531.280   -11046436.64349  -8563430.91647  20903530.597    20903538.227
       244.000         209.000
  21039928.182    -5241537.82549  -4072342.09847  21039927.441    21039936.430
       241.000         208.000
  23533717.270    -9698037.79549  -7532629.97045  23533716.617    23533729.412
       220.000         160.000
 02  2 13  2 18  0.0000000  0  8G15G26G23G 6G22G18G17G21
  21307746.183    -7991084.69649  -6209381.69947  21307745.235    21307754.757
       239.000         200.000
  21686930.879    -7204866.60749  -5597048.40747  21686930.650    21686938.744
       234.000         190.000
  21052090.325     1488004.21249   1167969.25847  21052089.602    21052098.032
       242.000         208.000
  20687146.936      693091.54549    554277.73247  20687146.666    20687154.826
       244.000         209.000
  23525589.486    -5916615.86849  -4351076.06945  23525588.224    23525601.697
       215.000         156.000
  20894765.924   -11092498.52849  -8599323.21347  20894765.295    20894772.768
       244.000         209.000
  21035915.826    -5262622.62849  -4088771.74547  21035915.379    21035924.150
       241.000         208.000
  23519158.623    -9774543.20349  -7592244.37345  23519157.466    23519170.480
       218.000         161.000
 02  2 13  2 18 30.0000000  0  8G15G26G23G 6G22G18G17G21
  21300104.192    -8031243.23949  -6240673.97147  21300103.225    21300112.652
       239.000         200.000
  21685744.298    -7211102.35549  -5601907.36347  21685743.802    21685752.411
       234.000         190.000
  21061088.465     1535289.90849   1204815.28547  21061087.962    21061096.208
       242.000         208.000
  20695984.347      739532.33649    590465.37047  20695983.888    20695992.079
       244.000         208.000
  23525612.201    -5916495.74349  -4350982.37945  23525611.908    23525625.656
       215.000         156.000
  20886082.796   -11138128.52949  -8634878.97847  20886082.016    20886089.710
       243.000         209.000
  21031928.177    -5283577.71849  -4105100.31647  21031927.510    21031936.366
       241.000         208.000
  23504645.923    -9850807.02049  -7651670.53245  23504645.443    23504656.330
       219.000         161.000
 02  2 13  2 19  0.0000000  0  8G15G26G23G 6G22G18G17G21
  21292489.315    -8071259.18149  -6271855.13147  21292488.347    21292497.472
       239.000         200.000
  21684677.866    -7216705.69449  -5606273.54347  21684677.410    21684685.952
       233.000         190.000
  21070146.553     1582890.55049   1241906.72447  21070145.802    21070154.118
       242.000         208.000
  20704912.178      786448.53549    627023.44947  20704911.858    20704920.155
       244.000         208.000
  23525731.727    -5915867.45949  -4350492.73445  23525730.296    23525744.251
       215.000         156.000
  20877481.837   -11183326.37949  -8670098.00247  20877480.941    20877488.667
       243.000         209.000
  21027965.243    -5304402.80749  -4121327.58347  21027964.553    21027973.342
       241.000         208.000
  23490179.332    -9926828.52549  -7710907.86745  23490177.489    23490190.601
       219.000         161.000
 02  2 13  2 19 30.0000000  0  8G15G26G23G 6G22G18G17G21
  21284901.796    -8111131.56149  -6302924.41947  21284900.930    21284910.261
       239.000         200.000
  21683732.059    -7221674.96949  -5610145.64847  21683732.344    21683740.536
       234.000         190.000
  21079264.360     1630804.88749   1279242.59947  21079263.749    21079272.019
       242.000         208.000
  20713930.539      833840.39549    663952.17647  20713930.304    20713938.577
       244.000         208.000
  23525947.897    -5914731.10749  -4349607.18845  23525946.176    23525960.950
       216.000         156.000
  20868963.372   -11228090.91949  -8704979.38447  20868962.758    20868970.192
       243.000         210.000
  21024027.206    -5325096.89649  -4137452.77747  21024026.389    21024035.578
       241.000         208.000
  23475759.021   -10002606.88249  -7769955.75845  23475757.651    23475769.922
       219.000         162.000
 02  2 13  2 20  0.0000000  0  8G15G26G23G 6G22G18G17G21
  21277341.572    -8150860.45549  -6333881.90947  21277340.674    21277350.277
       239.000         200.000
  21682907.246    -7226009.85349  -5613523.42047  21682907.106    21682915.354
       235.000         191.000
  21088441.305     1679030.29049   1316820.85847  21088440.846    21088449.070
       241.000         208.000
  20723039.228      881706.88449    701250.74147  20723039.109    20723047.227
       243.000         208.000
  23526260.673    -5913087.66949  -4348326.53545  23526259.939    23526272.105
       216.000         156.000
  20860527.337   -11272422.31749  -8739523.25847  20860526.718    20860534.162
       244.000         210.000
  21020114.090    -5345660.20749  -4153476.06547  21020113.378    21020122.213
       241.000         208.000
  23461385.173   -10078141.28149  -7828813.54245  23461384.432    23461395.872
       220.000         162.000
 02  2 13  2 20 30.0000000  0  8G15G26G23G 6G22G18G17G21
  21269808.585    -8190446.29249  -6364727.91747  21269807.639    21269817.244
       240.000         200.000
  21682203.299    -7229710.32449  -5616406.83147  21682202.444    21682210.929
       235.000         191.000
  21097676.968     1727564.10949   1354639.44247  21097676.492    21097684.757
       241.000         208.000
  20732238.002      930046.82049    738918.22947  20732237.910    20732246.016
       243.000         208.000
  23526669.701    -5910938.73549  -4346651.98745  23526669.246    23526681.817
       217.000         157.000
  20852173.630   -11316320.96749  -8773729.92047  20852172.971    20852180.491
       244.000         210.000
  21016225.809    -5366093.10649  -4169397.72947  21016225.100    21016234.117
       241.000         208.000
  23447057.830   -10153431.17449  -7887480.81845  23447056.660    23447069.444
       220.000         162.000
 02  2 13  2 21  0.0000000  0  8G15G26G23G 6G22G18G17G21
  21262302.938    -8229888.37649  -6395461.91447  21262301.675    21262311.610
       239.000         201.000
  21681619.825    -7232774.98049  -5618794.82147  21681619.677    21681627.851
       234.000         190.000
  21106971.055     1776404.88949   1392697.22247  21106970.628    21106978.771
       242.000         208.000
  20741526.860      978860.08549    776954.54047  20741526.500    20741534.735
       244.000         208.000
  23527174.588    -5908284.61749  -4344583.76545  23527172.657    23527186.582
       215.000         156.000
  20843902.411   -11359786.30049  -8807598.94147  20843901.847    20843909.108
       244.000         210.000
  21012362.499    -5386394.68649  -4185217.06847  21012361.585    21012370.555
       241.000         208.000
  23432777.285   -10228475.10349  -7945956.42346  23432775.747    23432788.526
       221.000         163.000
 02  2 13  2 21 30.0000000  0  8G15G26G23G 6G22G18G17G21
  21254824.687    -8269186.42449  -6426083.67547  21254823.712    21254832.954
       240.000         201.000
  21681157.715    -7235203.08249  -5620686.79247  21681157.547    21681165.739
       234.000         190.000
  21116323.172     1825550.67649   1430992.65847  21116322.444    21116330.847
       242.000         208.000
  20750905.727     1028146.31849    815359.40147  20750905.687    20750913.660
       244.000         208.000
  23527775.590    -5905125.80949  -4342122.29545  23527774.820    23527788.002
       217.000         156.000
  20835713.773   -11402817.71349  -8841129.84247  20835713.196    20835720.561
       243.000         210.000
  21008524.243    -5406564.51149  -4200933.73947  21008523.492    21008532.353
       240.000         208.000
  23418543.686   -10303272.90149  -8004240.26346  23418542.830    23418554.955
       219.000         163.000
 02  2 13  2 22  0.0000000  0  8G15G26G23G 6G22G18G17G21
  21247373.887    -8308340.28349  -6456593.08147  21247373.000    21247382.436
       240.000         201.000
  21680817.009    -7236994.18849  -5622082.38847  21680816.203    21680824.760
       234.000         190.000
  21125732.877     1874999.04649   1469523.88047  21125732.510    21125740.548
       242.000         208.000
  20760374.423     1077904.51649    854132.02647  20760374.182    20760382.347
       244.000         208.000
  23528472.327    -5901463.65449  -4339268.60745  23528471.388    23528483.707
       217.000         157.000
  20827607.654   -11445415.41749  -8874322.78747  20827606.988    20827614.263
       243.000         210.000
  21004711.081    -5426602.55849  -4216547.72747  21004710.521    21004719.146
       242.000         208.000
  23404357.034   -10377823.45749  -8062331.42546  23404356.441    23404367.713
       220.000         164.000
 02  2 13  2 22 30.0000000  0  8G15G26G23G 6G22G18G17G21
  21239950.636    -8347349.44649  -6486989.74147  21239949.569    21239959.184
       240.000         201.000
  21680597.401    -7238147.35449  -5622980.90547  21680597.025    21680605.205
       234.000         190.000
  21135199.835     1924748.29649   1508289.55247  21135199.326    21135207.623
       242.000         208.000
  20769932.837     1128134.31149    893272.12847  20769932.675    20769940.863
       243.000         208.000
  23529264.957    -5897298.63649  -4336023.08445  23529264.249    23529276.996
       217.000         157.000
  20819584.192   -11487578.74449  -8907177.25947  20819583.612    20819590.802
       243.000         210.000
  21000923.110    -5446508.25749  -4232058.58847  21000922.224    21000931.332
       242.000         208.000
  23390217.623   -10452126.13649  -8120229.45646  23390217.359    23390228.151
       221.000         164.000
 02  2 13  2 23  0.0000000  0  8G15G26G23G 6G22G18G17G21
  21232554.899    -8386213.92649  -6517273.65947  21232553.899    21232563.306
       240.000         201.000
  21680499.204    -7238662.26349  -5623382.08247  21680499.143    21680507.532
       234.000         190.000
  21144723.604     1974796.05149   1547287.82647  21144723.103    21144731.297
       242.000         208.000
  20779580.800     1178834.86049    932779.05147  20779580.836    20779588.828
       243.000         208.000
  23530153.093    -5892631.88049  -4332386.58745  23530151.365    23530164.624
       216.000         157.000
  20811643.342   -11529307.85549  -8939693.37947  20811642.889    20811649.953
       243.000         210.000
  20997160.335    -5466281.44449  -4247466.19247  20997159.559    20997168.336
       242.000         208.000
  23376125.514   -10526179.93449  -8177933.55446  23376125.435    23376137.188
       219.000         165.000
 02  2 13  2 23 30.0000000  0  8G15G26G23G 6G22G18G17G21
  21225186.848    -8424932.90549  -6547444.19847  21225185.630    21225195.339
       240.000         201.000
  21680522.816    -7238537.63449  -5623284.90747  21680522.796    21680531.400
       233.000         191.000
  21154303.923     2025141.15349   1586517.80047  21154303.121    21154311.316
       242.000         207.000
  20789318.409     1230006.33249    972652.92547  20789318.394    20789326.288
       243.000         207.000
  23531136.400    -5887463.54149  -4328359.25345  23531134.565    23531148.301
       215.000         157.000
  20803785.314   -11570601.76549  -8971870.38547  20803784.789    20803792.009
       243.000         210.000
  20993422.966    -5485921.08249  -4262769.73147  20993422.286    20993430.810
       242.000         208.000
  23362080.886   -10599984.28249  -8235443.28346  23362079.469    23362092.112
       221.000         165.000
 02  2 13  2 24  0.0000000  0  8G15G26G23G 6G22G18G17G21
  21217846.389    -8463507.02749  -6577501.86447  21217845.601    21217854.644
       239.000         201.000
  21680668.069    -7237773.83449  -5622689.68547  21680668.106    21680676.670
       233.000         191.000
  21163940.244     2075780.45549   1625977.02347  21163939.799    21163947.733
       242.000         207.000
  20799145.313     1281646.97749   1012892.38747  20799145.351    20799153.318
       243.000         207.000
  23532215.063    -5881795.65049  -4323942.67645  23532214.357    23532227.810
       215.000         157.000
  20796009.949   -11611461.31649  -9003708.92547  20796009.252    20796016.519
       243.000         211.000
  20989710.902    -5505427.79049  -4277969.69047  20989710.166    20989718.856
       242.000         208.000
  23348083.720   -10673539.08349  -8292758.56346  23348082.819    23348094.906
       221.000         166.000
 02  2 13  2 24 30.0000000  0  8G15G26G23G 6G22G18G17G21
  21210533.575    -8501935.74949  -6607446.23747  21210532.854    21210541.917
       240.000         202.000
  21680935.171    -7236370.48349  -5621596.10847  21680935.311    21680943.578
       234.000         191.000
  21173632.154     2126711.81249   1665663.81747  21173631.580    21173639.655
       241.000         207.000
  20809061.360     1333756.13849   1053496.92347  20809061.137    20809069.173
       242.000         207.000
  23533388.258    -5875629.17149  -4319137.56245  23533386.755    23533400.516
       214.000         157.000
  20788317.287   -11651886.34349  -9035208.87647  20788316.608    20788323.611
       244.000         211.000
  20986024.202    -5524801.31549  -4293065.87147  20986023.618    20986032.296
       242.000         208.000
  23334134.288   -10746843.17849  -8349878.49846  23334133.176    23334145.935
       220.000         166.000
 02  2 13  2 25  0.0000000  0  8G15G26G23G 6G22G18G17G21
  21203248.518    -8540218.69049  -6637277.00847  21203247.657    21203256.487
       241.000         202.000
  21681323.908    -7234326.83249  -5620003.60247  21681324.022    21681332.268
       234.000         191.000
  21183379.249     2177933.28849   1705576.68247  21183378.582    21183386.883
       241.000         207.000
  20819066.433     1386333.35249   1094466.17747  20819066.170    20819074.482
       242.000         207.000
  23534656.440    -5868964.76549  -4313944.47845  23534655.327    23534667.825
       216.000         157.000
  20780707.347   -11691876.64949  -9066370.07947  20780706.826    20780713.915
       244.000         211.000
  20982362.953    -5544041.04349  -4308057.79747  20982362.163    20982370.726
       242.000         208.000
  23320232.766   -10819895.56649  -8406802.29846  23320232.369    23320243.726
       222.000         167.000
 02  2 13  2 25 30.0000000  0  8G15G26G23G 6G22G18G17G21
  21195991.094    -8578356.26649  -6666994.50747  21195990.281    21195999.291
       241.000         202.000
  21681834.589    -7231642.83849  -5617912.12747  21681834.748    21681843.256
       235.000         191.000
  21193181.074     2229442.29449   1745713.59347  21193180.387    21193188.672
       242.000         207.000
  20829160.325     1439377.21849   1135799.05547  20829160.302    20829168.580
       243.000         207.000
  23536018.843    -5861804.22449  -4308364.77045  23536017.704    23536030.659
       215.000         157.000
  20773180.102   -11731432.32349  -9097192.60747  20773179.577    20773186.800
       244.000         211.000
  20978727.129    -5563147.12149  -4322945.57847  20978726.400    20978734.985
       242.000         208.000
  23306379.217   -10892696.09149  -8463529.84046  23306378.450    23306389.751
       222.000         167.000
 02  2 13  2 26  0.0000000  0  8G15G26G23G 6G22G18G17G21
  21188761.551    -8616347.61149  -6696598.05747  21188760.636    21188769.751
       241.000         202.000
  21682467.387    -7228317.82349  -5615321.14547  21682467.460    21682475.590
       234.000         191.000
  21203037.311     2281237.29449   1786073.36247  21203036.723    21203044.990
       242.000         207.000
  20839342.978     1492887.37849   1177495.28247  20839342.933    20839351.011
       242.000         206.000
  23537475.676    -5854147.77149  -4302398.63745  23537475.295    23537488.235
       218.000         157.000
  20765735.687   -11770552.83349  -9127676.04747  20765735.131    20765742.221
       243.000         211.000
  20975116.890    -5582118.86249  -4337728.68447  20975116.269    20975124.616
       242.000         209.000
  23292573.770   -10965243.83649  -8520060.41146  23292572.797    23292584.681
       222.000         167.000
 02  2 13  2 26 30.0000000  0  8G15G26G23G 6G22G18G17G21
  21181559.668    -8654193.33949  -6726088.14347  21181558.782    21181567.762
       240.000         202.000
  21683222.049    -7224352.22349  -5612231.00447  21683221.828    21683230.255
       234.000         191.000
  21212947.422     2333315.36049   1826653.69947  21212946.663    21212955.231
       241.000         207.000
  20849614.043     1546862.17949   1219553.56647  20849613.973    20849622.000
       242.000         206.000
  23539027.137    -5845997.57749  -4296047.80945  23539027.261    23539038.288
       217.000         157.000
  20758373.809   -11809239.38949  -9157821.33847  20758373.187    20758380.424
       242.000         211.000
  20971532.119    -5600956.70049  -4352407.45247  20971531.411    20971540.045
       242.000         209.000
  23278816.321   -11037539.18449  -8576394.31846  23278816.101    23278827.413
       222.000         167.000
 02  2 13  2 27  0.0000000  0  8G15G26G23G 6G22G18G17G21
  21174385.561    -8691893.18149  -6755464.54547  21174384.659    21174393.813
       241.000         203.000
  21684098.519    -7219745.82149  -5608641.54547  21684098.541    21684106.661
       235.000         191.000
  21222910.974     2385674.36949   1867452.95247  21222910.415    21222918.488
       241.000         207.000
  20859973.373     1601300.71249   1261973.20347  20859973.331    20859981.187
       242.000         206.000
  23540671.754    -5837354.83049  -4289313.14445  23540670.783    23540683.706
       214.000         157.000
  20751094.541   -11847491.91549  -9187628.42547  20751093.957    20751100.864
       242.000         211.000
  20967972.866    -5619660.44549  -4366981.72947  20967972.245    20967980.599
       242.000         209.000
  23265107.027   -11109581.35849  -8632530.94646  23265105.782    23265117.912
       222.000         168.000
 02  2 13  2 27 30.0000000  0  8G15G26G23G 6G22G18G17G21
  21167239.535    -8729445.33949  -6784725.87147  21167238.536    21167248.056
       241.000         203.000
  21685097.539    -7214496.56849  -5604551.15047  21685096.970    21685105.559
       234.000         191.000
  21232927.918     2438313.76549   1908470.68947  21232927.380    21232935.495
       242.000         207.000
  20870421.104     1656203.76949   1304754.80747  20870420.918    20870428.866
       243.000         206.000
  23542409.941    -5828218.92949  -4282194.20545  23542409.159    23542422.013
       218.000         157.000
  20743898.209   -11885308.64049  -9217095.92947  20743897.708    20743904.662
       242.000         212.000
  20964439.584    -5638227.77949  -4381449.71447  20964438.981    20964447.584
       242.000         209.000
  23251446.347   -11181368.22949  -8688468.63346  23251445.469    23251457.576
       223.000         168.000
 02  2 13  2 28  0.0000000  0  8G15G26G23G 6G22G18G17G21
  21160121.383    -8766851.04149  -6813873.07547  21160120.443    21160129.317
       241.000         203.000
  21686218.429    -7208605.82149  -5599960.89647  21686218.074    21686226.264
       233.000         190.000
  21242997.520     2491229.81449   1949704.00147  21242996.959    21243005.094
       241.000         206.000
  20880956.753     1711568.97949   1347896.52447  20880956.615    20880964.609
       242.000         206.000
  23544242.080    -5818592.50649  -4274693.05045  23544240.921    23544254.132
       216.000         158.000
  20736784.488   -11922691.08149  -9246225.02647  20736783.753    20736790.972
       242.000         212.000
  20960931.961    -5656660.24549  -4395812.60747  20960931.229    20960939.629
       242.000         209.000
  23237833.980   -11252900.95849  -8744208.28446  23237833.243    23237844.231
       223.000         168.000
 02  2 13  2 28 30.0000000  0  8G15G26G23G 6G22G18G17G21
  21153031.475    -8804108.39949  -6842904.68947  21153030.352    21153039.550
       241.000         203.000
  21687461.663    -7202071.68249  -5594869.30747  21687461.313    21687469.437
       235.000         190.000
  21253119.631     2544422.02049   1991152.50147  21253119.062    21253127.239
       242.000         206.000
  20891580.503     1767397.19349   1391399.02347  20891580.420    20891588.434
       242.000         206.000
  23546167.115    -5808475.33049  -4266809.47145  23546165.049    23546178.232
       215.000         157.000
  20729753.710   -11959637.71149  -9275014.53147  20729753.141    20729760.130
       242.000         212.000
  20957450.382    -5674955.72949  -4410068.76447  20957449.709    20957458.116
       243.000         209.000
  23224270.457   -11324176.98249  -8799747.90546  23224269.553    23224281.633
       222.000         168.000
 02  2 13  2 29  0.0000000  0  8G15G26G23G 6G22G18G17G21
  21145969.686    -8841217.94749  -6871821.12347  21145968.651    21145977.879
       241.000         203.000
  21688827.483    -7194895.04149  -5589277.04847  21688826.958    21688835.206
       234.000         191.000
  21263293.773     2597887.49349   2032813.93447  21263293.298    21263301.274
       242.000         206.000
  20902291.969     1823686.34649   1435260.69547  20902291.884    20902300.156
       242.000         205.000
  23548184.905    -5797869.32949  -4258544.98845  23548184.031    23548197.437
       219.000         157.000
  20722805.706   -11996149.42549  -9303465.14547  20722805.031    20722812.025
       243.000         212.000
  20953994.800    -5693114.71149  -4424218.55447  20953994.122    20954002.596
       242.000         209.000
  23210755.710   -11395196.95049  -8855088.00346  23210754.759    23210766.731
       222.000         169.000
 02  2 13  2 29 30.0000000  0  8G15G26G23G 6G22G18G17G21
  21138936.065    -8878179.52449  -6900622.25747  21138935.250    21138944.201
       241.000         203.000
  21690315.206    -7187075.82949  -5583184.10247  21690315.097    21690322.669
       234.000         190.000
  21273519.435     2651623.87249   2074686.46447  21273518.679    21273526.883
       241.000         206.000
  20913090.966     1880435.47249   1479480.79047  20913090.828    20913099.040
       242.000         205.000
  23550296.320    -5786775.99149  -4249900.78445  23550294.360    23550308.209
       214.000         157.000
  20715940.449   -12032226.37049  -9331576.97547  20715939.753    20715946.838
       243.000         212.000
  20950565.227    -5711137.10049  -4438261.90847  20950564.526    20950572.817
       242.000         209.000
  23197289.845   -11465959.93149  -8910227.84446  23197288.531    23197300.812
       223.000         169.000
 02  2 13  2 30  0.0000000  0  8G15G26G23G 6G22G18G17G21
  21131930.602    -8914993.12449  -6929308.08047  21131929.729    21131938.568
       242.000         203.000
  21691925.400    -7178613.93649  -5576590.35747  21691925.373    21691933.798
       235.000         190.000
  21283796.248     2705629.07649   2116768.46947  21283795.655    21283803.823
       241.000         206.000
  20923977.286     1937643.49849   1524058.46647  20923977.072    20923985.385
       241.000         205.000
  23552499.854    -5775196.54649  -4240877.79945  23552498.555    23552511.286
       214.000         157.000
  20709157.863   -12067868.75549  -9359350.19347  20709157.279    20709164.366
       243.000         212.000
  20947161.673    -5729022.63649  -4452198.62047  20947160.922    20947169.390
       242.000         209.000
  23183872.977   -11536465.52649  -8965167.13346  23183872.309    23183884.172
       224.000         169.000
 02  2 13  2 30 30.0000000  0  8G15G26G23G 6G22G18G17G21
  21124953.382    -8951658.29149  -6957878.24547  21124952.360    21124961.374
       241.000         203.000
  21693657.982    -7169509.27949  -5569495.76647  21693657.813    21693665.743
       234.000         190.000
  21294123.816     2759900.84849   2159058.18747  21294123.355    21294131.258
       241.000         206.000
  20934950.743     1995309.37049   1568992.90747  20934950.555    20934958.781
       241.000         205.000
  23554795.173    -5763132.35549  -4231477.04545  23554794.095    23554807.565
       216.000         157.000
  20702457.984   -12103076.59449  -9386784.80447  20702457.397    20702464.485
       243.000         212.000
  20943784.287    -5746770.74849  -4466028.25447  20943783.610    20943791.893
       243.000         209.000
  23170505.185   -11606713.12049  -9019905.37146  23170503.844    23170515.606
       224.000         170.000
 02  2 13  2 31  0.0000000  0  8G15G26G23G 6G22G18G17G21
  21118004.559    -8988174.28249  -6986332.16747  21118003.620    21118012.625
       242.000         203.000
  21695512.842    -7159761.26549  -5561899.85347  21695512.749    21695520.690
       234.000         190.000
  21304501.816     2814437.70849   2201554.46747  21304501.241    21304509.325
       241.000         206.000
  20946011.242     2053432.72549   1614283.83347  20946011.068    20946019.108
       241.000         204.000
  23557183.076    -5750584.14149  -4221699.16945  23557183.201    23557194.188
       217.000         157.000
  20695840.850   -12137849.69649  -9413880.66347  20695840.258    20695847.199
       243.000         212.000
  20940433.197    -5764380.54349  -4479750.10547  20940432.380    20940441.003
       242.000         209.000
  23157186.686   -11676701.91049  -9074441.95246  23157185.894    23157196.997
       224.000         170.000
 02  2 13  2 31 30.0000000  0  8G15G26G23G 6G22G18G17G21
  21111083.972    -9024541.75649  -7014670.35847  21111082.941    21111092.104
       241.000         203.000
  21697490.045    -7149370.89949  -5553803.40047  21697490.180    21697498.179
       234.000         190.000
  21314929.636     2869236.43749   2244254.80347  21314929.252    21314936.888
       241.000         206.000
  20957158.453     2112011.69149   1659929.77047  20957158.281    20957166.526
       241.000         204.000
  23559662.706    -5737554.01749  -4211545.76445  23559661.885    23559673.337
       216.000         157.000
  20689306.232   -12172189.04449  -9440638.53047  20689305.652    20689312.714
       243.000         212.000
  20937108.303    -5781852.57249  -4493364.60547  20937107.532    20937116.009
       242.000         209.000
  23143917.276   -11746432.56249  -9128777.36846  23143916.720    23143928.368
       224.000         170.000
 02  2 13  2 32  0.0000000  0  8G15G26G23G 6G22G18G17G21
  21104191.875    -9060759.59749  -7042891.95647  21104190.743    21104199.980
       242.000         204.000
  21699589.626    -7138337.58749  -5545205.96047  21699589.627    21699597.600
       233.000         190.000
  21325407.012     2924295.49549   2287157.99347  21325406.428    21325414.466
       241.000         205.000
  20968392.237     2171045.59249   1705930.20247  20968392.014    20968400.083
       241.000         204.000
  23562233.751    -5724042.99249  -4201017.64245  23562232.996    23562245.855
       216.000         157.000
  20682854.246   -12206094.23449  -9467058.09747  20682853.818    20682860.625
       242.000         212.000
  20933809.760    -5799186.13249  -4506871.20847  20933809.096    20933817.474
       242.000         209.000
  23130697.286   -11815903.54949  -9182910.46346  23130696.952    23130707.557
       223.000         170.000
 02  2 13  2 32 30.0000000  0  8G15G26G23G 6G22G18G17G21
  21097328.335    -9096827.34049  -7070996.59647  21097327.474    21097336.578
       242.000         204.000
  21701811.552    -7126661.24449  -5536107.44347  21701811.329    21701819.704
       235.000         190.000
  21335933.589     2979612.99149   2330262.56447  21335933.041    21335941.135
       241.000         205.000
  20979712.460     2230533.64049   1752284.51347  20979712.267    20979720.689
       241.000         204.000
  23564895.740    -5710052.22749  -4190115.65545  23564894.673    23564909.416
       214.000         157.000
  20676484.846   -12239565.30449  -9493139.38947  20676484.278    20676491.274
       243.000         212.000
  20930537.777    -5816380.32049  -4520269.21147  20930537.221    20930545.753
       243.000         209.000
  23117526.816   -11885114.27149  -9236840.74346  23117526.260    23117537.404
       225.000         171.000
 02  2 13  2 33  0.0000000  0  8G15G26G23G 6G22G18G17G21
  21090493.406    -9132744.71649  -7098984.06347  21090492.476    21090501.590
       241.000         204.000
  21704155.758    -7114341.76749  -5526507.80447  21704155.826    21704163.877
       235.000         190.000
  21346508.908     3035186.86149   2373566.90947  21346508.250    21346516.154
       240.000         205.000
  20991118.887     2290474.87649   1798991.96447  20991118.471    20991126.992
       241.000         204.000
  23567649.191    -5695582.85949  -4178840.76445  23567648.476    23567660.749
       217.000         158.000
  20670198.061   -12272602.23649  -9518882.39147  20670197.450    20670204.478
       242.000         212.000
  20927292.313    -5833434.98449  -4533558.48847  20927291.578    20927300.202
       242.000         209.000
  23104405.947   -11954064.36049  -9290567.94046  23104405.693    23104416.191
       224.000         171.000
 02  2 13  2 33 30.0000000  0  8G15G26G23G 6G22G18G17G21
  21083686.997    -9168512.28349  -7126854.79647  21083685.928    21083694.943
       242.000         204.000
  21706622.271    -7101380.34849  -5516407.93347  21706621.948    21706630.028
       232.000         190.000
  21357132.412     3091013.92849   2417068.55747  21357131.785    21357139.730
       241.000         205.000
  21002611.199     2350867.32749   1846051.00447  21002611.015    21002619.248
       241.000         204.000
  23570493.626    -5680637.24649  -4167194.79045  23570492.907    23570504.409
       217.000         158.000
  20663993.689   -12305206.19249  -9544288.01147  20663993.125    20663999.948
       242.000         212.000
  20924073.371    -5850350.45749  -4546739.30947  20924072.676    20924080.937
       242.000         209.000
  23091334.569   -12022754.23649  -9344092.36546  23091333.602    23091345.436
       224.000         171.000
 02  2 13  2 34  0.0000000  0  8G15G26G23G 6G22G18G17G21
  21076909.256    -9204129.03849  -7154608.01747  21076908.460    21076917.170
       243.000         204.000
  21709210.906    -7087776.31649  -5505807.33847  21709210.716    21709218.845
       235.000         190.000
  21367803.861     3147092.90849   2460766.49647  21367803.108    21367811.337
       240.000         204.000
  21014189.279     2411710.44649   1893461.21247  21014189.240    21014197.416
       241.000         204.000
  23573427.841    -5665216.15049  -4155178.29445  23573426.526    23573439.063
       214.000         157.000
  20657871.833   -12337376.54949  -9569355.76147  20657871.363    20657878.189
       242.000         212.000
  20920881.162    -5867125.51849  -4559810.71447  20920880.546    20920888.785
       243.000         209.000
  23078312.969   -12091182.74549  -9397413.14346  23078311.577    23078323.430
       225.000         171.000
 02  2 13  2 34 30.0000000  0  8G15G26G23G 6G22G18G17G21
  21070160.529    -9239593.51249  -7182242.58047  21070159.772    21070168.344
       242.000         204.000
  21711921.960    -7073528.77549  -5494705.31247  21711922.129    21711929.830
       234.000         190.000
  21378523.055     3203422.71749   2504659.88847  21378522.487    21378530.350
       241.000         204.000
  21025853.132     2473004.35449   1941222.67947  21025853.265    21025861.337
       240.000         203.000
  23576452.263    -5649320.03249  -4142791.62345  23576451.192    23576464.490
       216.000         157.000
  20651832.666   -12369112.44949  -9594084.97348  20651831.984    20651838.956
       242.000         213.000
  20917715.872    -5883758.78549  -4572771.63347  20917715.157    20917723.672
       242.000         209.000
  23065341.433   -12159348.15549  -9450528.89646  23065339.887    23065351.467
       225.000         172.000
 02  2 13  2 35  0.0000000  0  8G15G26G23G 6G22G18G17G21
  21063440.729    -9274905.94849  -7209758.66847  21063439.834    21063448.545
       242.000         204.000
  21714755.588    -7058638.37749  -5483102.33747  21714755.318    21714763.405
       233.000         190.000
  21389289.439     3260000.72649   2548746.68247  21389288.963    21389297.015
       240.000         204.000
  21037602.426     2534747.30249   1989334.04747  21037602.341    21037610.890
       240.000         203.000
  23579567.427    -5632950.74949  -4130036.28245  23579567.175    23579579.624
       219.000         158.000
  20645875.941   -12400414.96749  -9618476.48148  20645875.408    20645882.340
       242.000         213.000
  20914577.589    -5900250.27749  -4585622.07447  20914576.990    20914585.174
       242.000         209.000
  23052419.897   -12227250.74049  -9503439.85346  23052419.282    23052430.667
       225.000         172.000
 02  2 13  2 35 30.0000000  0  8G15G26G23G 6G22G18G17G21
  21056749.485    -9310068.28449  -7237157.80247  21056748.646    21056757.469
       242.000         204.000
  21717710.815    -7043107.75449  -5471000.50147  21717710.612    21717718.876
       234.000         190.000
  21400102.246     3316822.61549   2593023.51447  21400101.578    21400109.702
       240.000         204.000
  21049436.532     2596935.72449   2037792.53347  21049436.678    21049444.525
       240.000         203.000
  23582772.396    -5616112.05549  -4116915.17845  23582771.387    23582783.132
       216.000         158.000
  20640001.240   -12431286.45549  -9642532.12448  20640000.705    20640007.560
       242.000         213.000
  20911465.913    -5916601.86549  -4598363.50147  20911465.024    20911473.412
       242.000         209.000
  23039547.968   -12294892.54249  -9556147.60446  23039547.303    23039558.051
       225.000         172.000
 02  2 13  2 36  0.0000000  0  8G15G26G23G 6G22G18G17G21
  21050087.248    -9345078.44749  -7264438.35647  21050086.448    21050094.843
       242.000         204.000
  21720788.290    -7026935.28049  -5458398.51747  21720788.101    21720796.328
       234.000         190.000
  21410961.411     3373887.90349   2637490.00447  21410960.690    21410968.698
       240.000         204.000
  21061355.457     2659570.13549   2086598.54947  21061355.347    21061363.513
       240.000         203.000
  23586065.787    -5598803.91349  -4103428.22645  23586064.038    23586077.510
       216.000         157.000
  20634208.854   -12461725.33049  -9666250.66548  20634208.265    20634215.182
       242.000         213.000
  20908381.320    -5932811.28349  -4610994.14547  20908380.549    20908388.813
       242.000         209.000
  23026726.076   -12362271.26349  -9608650.36246  23026725.929    23026736.347
       225.000         172.000
 02  2 13  2 36 30.0000000  0  8G15G26G23G 6G22G18G17G21
  21043454.220    -9379934.92749  -7291599.15947  21043453.240    21043461.654
       242.000         205.000
  21723988.096    -7010120.32149  -5445295.89347  21723988.206    21723996.200
       234.000         190.000
  21421866.687     3431195.55749   2682145.34847  21421866.271    21421873.884
       240.000         204.000
  21073359.275     2722650.56749   2135752.11447  21073359.157    21073367.388
       240.000         203.000
  23589448.731    -5581026.41749  -4089575.60145  23589446.896    23589459.611
       213.000         158.000
  20628498.924   -12491730.99949  -9689631.64048  20628498.268    20628505.304
       242.000         213.000
  20905324.098    -5948877.06049  -4623512.85947  20905323.326    20905331.621
       242.000         210.000
  23013954.585   -12429385.14549  -9660946.74546  23013954.051    23013964.757
       225.000         172.000
 02  2 13  2 37  0.0000000  0  8G15G26G23G 6G22G18G17G21
  21036850.392    -9414637.99149  -7318640.42147  21036849.472    21036858.170
       243.000         205.000
  21727309.965    -6992663.71349  -5431693.29547  21727310.056    21727317.906
       234.000         190.000
  21432817.520     3488742.75449   2726987.35047  21432816.790    21432824.976
       240.000         204.000
  21085447.606     2786175.08749   2185251.71947  21085447.389    21085455.563
       240.000         202.000
  23592920.034    -5562781.93449  -4075359.04345  23592919.302    23592931.578
       217.000         157.000
  20622871.291   -12521304.27449  -9712675.68148  20622870.624    20622877.525
       242.000         213.000
  20902294.134    -5964799.43049  -4635919.82747  20902293.503    20902301.608
       242.000         210.000
  23001233.501   -12496234.41449  -9713036.94446  23001232.178    23001244.726
       226.000         172.000
 02  2 13  2 37 30.0000000  0  8G15G26G23G 6G22G18G17G21
  21030275.625    -9449188.19949  -7345562.57447  21030274.694    21030283.340
       243.000         205.000
  21730753.636    -6974567.00749  -5417591.91147  21730753.233    21730761.736
       234.000         190.000
  21443813.358     3546526.33949   2772013.55047  21443812.667    21443820.755
       240.000         204.000
  21097620.018     2850141.49449   2235095.64847  21097620.042    21097628.347
       240.000         202.000
  23596480.464    -5544072.99449  -4060780.58545  23596479.577    23596492.627
       216.000         157.000
  20617325.684   -12550446.46849  -9735383.81448  20617325.303    20617331.762
       242.000         213.000
  20899291.318    -5980578.93449  -4648215.47347  20899290.722    20899298.836
       242.000         210.000
  22988562.645   -12562819.91749  -9764921.60046  22988561.390    22988572.292
       226.000         173.000
 02  2 13  2 38  0.0000000  0  8G15G26G23G 6G22G18G17G21
  21023730.147    -9483584.54449  -7372364.83647  21023728.965    21023737.800
       242.000         205.000
  21734319.078    -6955829.94849  -5402991.55247  21734319.174    21734326.854
       233.000         190.000
  21454853.879     3604544.78949   2817222.76147  21454853.244    21454861.247
       240.000         204.000
  21109876.390     2914549.08949   2285283.36347  21109876.217    21109884.359
       240.000         202.000
  23600128.606    -5524900.71649  -4045841.09045  23600126.792    23600140.147
       214.000         157.000
  20611862.099   -12579157.57549  -9757756.03448  20611861.435    20611868.241
       242.000         213.000
  20896315.899    -5996214.50049  -4660398.95647  20896315.042    20896323.249
       242.000         210.000
  22975942.131   -12629140.68649  -9816599.97746  22975942.166    22975951.845
       226.000         173.000
 02  2 13  2 38 30.0000000  0  8G15G26G23G 6G22G18G17G21
  21017214.251    -9517825.34549  -7399045.89747  21017213.096    21017222.106
       242.000         205.000
  21738006.634    -6936451.47149  -5387891.38247  21738006.201    21738014.584
       233.000         190.000
  21465938.943     3662797.41649   2862614.44147  21465938.430    21465946.474
       240.000         203.000
  21122216.728     2979397.93049   2335814.90347  21122216.814    21122224.654
       240.000         202.000
  23603865.079    -5505265.17349  -4030540.60045  23603864.275    23603876.507
       215.000         157.000
  20606480.770   -12607436.35649  -9779791.37448  20606480.251    20606486.807
       242.000         213.000
  20893368.246    -6011704.21149  -4672468.78747  20893367.573    20893375.737
       241.000         210.000
  22963372.318   -12695194.94949  -9868070.68646  22963371.569    22963381.900
       226.000         174.000
 02  2 13  2 39  0.0000000  0  8G15G26G23G 6G22G18G17G21
  21010727.530    -9551913.04349  -7425607.65747  21010726.427    21010735.316
       243.000         205.000
  21741815.601    -6916434.86349  -5372293.97047  21741815.514    21741823.338
       235.000         190.000
  21477067.678     3721279.33649   2908184.79747  21477066.966    21477075.253
       240.000         203.000
  21134640.298     3044683.96449   2386687.11847  21134640.273    21134648.399
       240.000         202.000
  23607688.817    -5485170.96149  -4014882.72345  23607688.128    23607700.884
       215.000         157.000
  20601181.123   -12635285.93349  -9801492.27048  20601180.549    20601187.232
       242.000         213.000
  20890447.918    -6027050.40749  -4684426.78747  20890447.114    20890455.294
       242.000         210.000
  22950852.741   -12760985.11749  -9919335.60746  22950851.696    22950862.771
       226.000         174.000
 02  2 13  2 39 30.0000000  0  8G15G26G23G 6G22G18G17G21
  21004270.268    -9585845.83849  -7452048.71647  21004269.347    21004277.872
       242.000         205.000
  21745746.212    -6895779.18949  -5356198.59347  21745746.483    21745753.976
       234.000         190.000
  21488239.902     3779989.88449   2953933.30147  21488239.212    21488247.286
       240.000         203.000
  21147147.089     3110407.31749   2437900.10247  21147146.895    21147155.299
       240.000         202.000
  23611600.144    -5464618.00249  -3998867.36345  23611600.209    23611611.625
       219.000         157.000
  20595963.314   -12662705.43249  -9822858.03748  20595962.632    20595969.513
       242.000         213.000
  20887555.293    -6042251.14549  -4696271.44147  20887554.597    20887562.594
       242.000         210.000
  22938383.770   -12826509.31749  -9970393.27746  22938383.388    22938393.791
       226.000         174.000
 02  2 13  2 40  0.0000000  0  8G15G26G23G 6G22G18G17G21
  20997842.560    -9619623.46249  -7478368.86047  20997841.647    20997850.053
       241.000         205.000
  21749798.349    -6874485.18449  -5339605.80747  21749798.268    21749806.259
       232.000         190.000
  21499455.198     3838926.68049   2999858.10147  21499454.627    21499462.615
       240.000         203.000
  21159736.743     3176566.37149   2489452.58847  21159736.709    21159744.806
       240.000         202.000
  23615598.265    -5443608.33849  -3982496.13745  23615597.102    23615608.785
       215.000         157.000
  20590827.242   -12689695.33849  -9843889.05848  20590826.797    20590833.314
       242.000         213.000
  20884690.321    -6057306.10549  -4708002.50547  20884689.600    20884697.783
       242.000         210.000
  22925965.372   -12891767.59349 -10021243.73746  22925964.545    22925975.085
       227.000         174.000
 02  2 13  2 40 30.0000000  0  8G15G26G23G 6G22G18G17G21
  20991444.678    -9653244.23849  -7504566.78647  20991443.686    20991452.030
       242.000         205.000
  21753972.054    -6852552.23049  -5322515.13647  21753971.799    21753979.615
       235.000         190.000
  21510713.378     3898088.85449   3045958.51847  21510712.763    21510720.657
       240.000         203.000
  21172409.313     3243161.08649   2541344.55647  21172409.236    21172417.394
       240.000         201.000
  23619682.809    -5422142.57149  -3965769.49245  23619681.355    23619694.667
       216.000         157.000
  20585773.095   -12716254.85349  -9864584.70948  20585772.506    20585779.177
       242.000         213.000
  20881853.458    -6072213.75749  -4719618.77947  20881852.634    20881860.804
       242.000         210.000
  22913597.928   -12956758.30249 -10071885.70246  22913596.967    22913607.623
       227.000         175.000
 02  2 13  2 41  0.0000000  0  8G15G26G23G 6G22G18G17G21
  20985076.545    -9686708.56149  -7530642.79847  20985075.674    20985083.950
       242.000         205.000
  21758267.055    -6829981.46949  -5304927.48547  21758267.135    21758274.816
       235.000         190.000
  21522013.940     3957473.76249   3092232.49947  21522013.260    21522021.296
       240.000         203.000
  21185164.380     3310189.45249   2593574.43647  21185164.326    21185172.639
       239.000         201.000
  23623854.031    -5400222.92549  -3948689.19445  23623853.447    23623865.132
       216.000         157.000
  20580800.587   -12742385.06649  -9884945.84048  20580799.849    20580806.682
       242.000         213.000
  20879044.619    -6086974.13649  -4731120.30147  20879043.849    20879052.000
       242.000         210.000
  22901281.280   -13021482.10349 -10122319.68046  22901280.054    22901290.912
       227.000         175.000
 02  2 13  2 41 30.0000000  0  8G15G26G23G 6G22G18G17G21
  20978738.266    -9720016.09849  -7556596.64247  20978737.402    20978745.910
       242.000         205.000
  21762683.240    -6806773.68149  -5286843.45047  21762683.108    21762690.945
       233.000         190.000
  21533356.434     4017079.09249   3138678.22847  21533355.818    21533363.860
       240.000         203.000
  21198001.659     3377649.91549   2646141.01347  21198001.529    21198010.009
       239.000         201.000
  23628111.075    -5377851.15649  -3931256.57445  23628108.761    23628122.369
       215.000         157.000
  20575909.732   -12768086.47449  -9904972.83448  20575909.244    20575915.685
       242.000         213.000
  20876263.854    -6101586.84649  -4742506.75747  20876263.214    20876271.220
       242.000         210.000
  22889015.555   -13085938.43749 -10172545.24546  22889014.645    22889024.933
       227.000         176.000
 02  2 13  2 42  0.0000000  0  8G15G26G23G 6G22G18G17G21
  20972429.979    -9753165.94949  -7582427.60647  20972429.199    20972437.693
       242.000         206.000
  21767220.806    -6782928.98349  -5268263.10647  21767220.437    21767228.949
       233.000         190.000
  21544740.582     4076903.31849   3185294.52947  21544740.167    21544748.186
       240.000         203.000
  21210921.056     3445541.70849   2699043.69547  21210920.935    21210929.356
       239.000         200.000
  23632453.944    -5355028.53249  -3913472.64845  23632452.633    23632465.909
       217.000         157.000
  20571100.448   -12793359.18749  -9924665.78348  20571099.854    20571106.461
       242.000         213.000
  20873511.416    -6116050.71349  -4753777.22847  20873510.729    20873518.744
       242.000         210.000
  22876800.854   -13150126.68949 -10222561.91546  22876800.351    22876810.453
       227.000         176.000
 02  2 13  2 42 30.0000000  0  8G15G26G23G 6G22G18G17G21
  20966151.791    -9786157.63749  -7608135.32747  20966150.946    20966159.535
       242.000         206.000
  21771879.283    -6758448.13149  -5249187.06647  21771879.182    21771887.392
       234.000         190.000
  21556165.947     4136944.10849   3232079.58647  21556165.317    21556173.440
       240.000         203.000
  21223922.174     3513863.13049   2752281.14747  21223922.094    21223930.425
       239.000         200.000
  23636882.310    -5331756.95349  -3895338.88945  23636881.707    23636894.663
       216.000         157.000
  20566372.649   -12818203.66749  -9944025.04648  20566371.917    20566378.829
       242.000         214.000
  20870787.332    -6130365.53549  -4764931.56347  20870786.545    20870794.586
       242.000         210.000
  22864637.159   -13214046.82149 -10272369.65146  22864635.942    22864647.545
       227.000         176.000
 02  2 13  2 43  0.0000000  0  8G15G26G23G 6G22G18G17G21
  20959903.621    -9818991.63849  -7633720.17247  20959902.941    20959911.392
       242.000         206.000
  21776658.448    -6733332.82049  -5229616.65647  21776658.623    21776666.380
       234.000         190.000
  21567631.960     4197198.51849   3279031.09347  21567631.389    21567639.421
       240.000         203.000
  21237004.674     3582611.90949   2805851.60547  21237004.827    21237012.845
       239.000         200.000
  23641395.520    -5308039.22349  -3876857.46945  23641394.513    23641407.406
       216.000         157.000
  20561726.044   -12842621.43349  -9963051.80148  20561725.434    20561731.998
       242.000         214.000
  20868091.556    -6144531.66249  -4775970.02947  20868090.961    20868098.956
       242.000         210.000
  22852524.322   -13277699.53249 -10321969.01846  22852522.828    22852534.347
       228.000         177.000
 02  2 13  2 43 30.0000000  0  8G15G26G23G 6G22G18G17G21
  20953685.774    -9851666.39949  -7659180.94147  20953685.066    20953693.029
       242.000         206.000
  21781558.533    -6707582.50849  -5209551.43447  21781558.911    21781566.516
       233.000         189.000
  21579138.428     4257665.57749   3326148.31047  21579137.904    21579145.629
       240.000         202.000
  21250168.462     3651787.77449   2859754.85047  21250168.355    21250176.529
       239.000         200.000
  23645993.585    -5283875.89249  -3858028.85145  23645991.830    23646005.673
       216.000         158.000
  20557160.793   -12866611.73649  -9981745.47448  20557160.254    20557166.760
       242.000         214.000
  20865424.389    -6158547.35049  -4786891.27547  20865423.798    20865431.698
       242.000         210.000
  22840462.662   -13341083.17749 -10371358.71946  22840462.027    22840472.451
       228.000         177.000
 02  2 13  2 44  0.0000000  0  8G15G26G23G 6G22G18G17G21
  20947498.159    -9884182.15949  -7684517.80647  20947497.139    20947505.743
       242.000         206.000
  21786579.255    -6681198.67349  -5188992.54447  21786579.025    21786587.208
       233.000         189.000
  21590684.828     4318342.55149   3373429.08947  21590684.050    21590692.306
       240.000         202.000
  21263413.119     3721388.65249   2913989.28147  21263412.916    21263421.173
       239.000         199.000
  23650676.192    -5259269.29249  -3838854.81645  23650675.608    23650687.083
       217.000         158.000
  20552676.655   -12890175.80649 -10000107.01648  20552676.018    20552682.606
       242.000         214.000
  20862785.840    -6172412.71849  -4797695.38947  20862785.234    20862793.205
       242.000         210.000
  22828452.172   -13404198.20549 -10420539.10246  22828451.202    22828461.610
       229.000         177.000
 02  2 13  2 44 30.0000000  0  8G15G26G23G 6G22G18G17G21
  20941340.890    -9916538.56249  -7709730.49447  20941339.882    20941348.512
       241.000         206.000
  21791720.210    -6654182.27849  -5167940.76647  21791720.256    21791728.162
       234.000         189.000
  21602270.778     4379227.21849   3420871.71547  21602270.190    21602277.925
       239.000         202.000
  21276738.322     3791412.92249   2968553.62347  21276738.181    21276746.404
       239.000         199.000
  23655442.730    -5234221.43149  -3819336.95045  23655441.499    23655453.641
       216.000         157.000
  20548273.468   -12913314.27849 -10018136.92448  20548272.907    20548279.434
       242.000         213.000
  20860175.960    -6186127.48649  -4808382.15147  20860175.271    20860183.163
       242.000         210.000
  22816492.820   -13467044.60949 -10469510.17346  22816492.211    22816502.869
       229.000         178.000
 02  2 13  2 45  0.0000000  0  8G15G26G23G 6G22G18G17G21
  20935214.110    -9948734.65149  -7734818.26347  20935213.263    20935221.711
       242.000         206.000
  21796981.494    -6626533.75549  -5146396.42347  21796981.644    21796989.189
       235.000         189.000
  21613895.968     4440317.98549   3468474.93647  21613895.511    21613903.249
       239.000         202.000
  21290143.859     3861859.44949   3023446.99647  21290143.910    21290152.001
       239.000         199.000
  23660292.787    -5208733.80649  -3799476.41645  23660291.751    23660303.595
       216.000         157.000
  20543951.234   -12936027.42849 -10035835.41348  20543950.559    20543957.152
       242.000         213.000
  20857594.978    -6199690.41349  -4818950.60147  20857594.298    20857602.311
       242.000         210.000
  22804584.662   -13529621.89949 -10518271.53946  22804584.185    22804594.038
       229.000         178.000
 02  2 13  2 45 30.0000000  0  8G15G26G23G 6G22G18G17G21
  20929117.946    -9980769.90749  -7759780.70447  20929117.104    20929125.493
       242.000         206.000
  21802363.077    -6598253.62549  -5124359.91147  21802363.158    21802370.792
       233.000         189.000
  21625559.987     4501612.76549   3516237.12647  21625559.567    21625567.340
       239.000         202.000
  21303629.469     3932726.76749   3078668.26147  21303629.384    21303637.534
       238.000         199.000
  23665226.244    -5182808.06249  -3779274.47045  23665224.896    23665237.203
       216.000         156.000
  20539709.915   -12958315.59749 -10053202.74948  20539709.485    20539715.734
       242.000         213.000
  20855042.978    -6213100.89049  -4829400.25947  20855042.285    20855050.308
       242.000         210.000
  22792727.821   -13591929.36149 -10566822.65146  22792726.764    22792737.198
       229.000         178.000
 02  2 13  2 46  0.0000000  0  8G15G26G23G 6G22G18G17G21
  20923052.512   -10012643.59349  -7784617.24947  20923051.463    20923059.907
       242.000         206.000
  21807864.650    -6569342.66549  -5101831.83747  21807864.619    21807872.297
       232.000         189.000
  21637262.489     4563109.79849   3564156.91647  21637262.115    21637269.254
       240.000         201.000
  21317194.920     4004013.70349   3134216.50047  21317194.783    21317203.308
       238.000         199.000
  23670242.527    -5156445.82449  -3758732.43645  23670242.342    23670253.680
       214.000         156.000
  20535549.409   -12980178.87349 -10070239.00148  20535548.845    20535555.157
       242.000         213.000
  20852520.142    -6226358.13749  -4839730.52047  20852519.411    20852527.342
       242.000         210.000
  22780922.449   -13653966.52949 -10615163.14646  22780921.146    22780931.760
       229.000         178.000
 02  2 13  2 46 30.0000000  0  8G15G26G23G 6G22G18G17G21
  20917017.824   -10044355.84449  -7809327.99547  20917016.761    20917024.873
       242.000         207.000
  21813485.938    -6539802.25349  -5078813.28147  21813485.188    21813493.170
       234.000         189.000
  21649002.922     4624806.29849   3612232.14147  21649002.348    21649010.269
       239.000         201.000
  21330839.811     4075718.11849   3190090.04947  21330839.777    21330848.076
       238.000         198.000
  23675341.768    -5129649.77749  -3737852.34445  23675341.002    23675354.411
       216.000         156.000
  20531469.473   -13001618.72149 -10086945.30948  20531468.760    20531475.353
       242.000         214.000
  20850026.494    -6239462.23049  -4849941.43747  20850025.887    20850033.628
       242.000         210.000
  22769168.376   -13715733.95649 -10663293.44846  22769167.723    22769177.600
       229.000         178.000
 02  2 13  2 47  0.0000000  0  8G15G26G23G 6G22G18G17G21
  20911014.000   -10075905.83849  -7833912.31047  20911013.207    20911021.544
       243.000         207.000
  21819226.846    -6509633.03649  -5055304.76047  21819226.754    21819234.805
       234.000         189.000
  21660780.994     4686700.64149   3660461.53047  21660780.294    21660788.325
       239.000         201.000
  21344563.963     4147838.96749   3246288.09947  21344563.676    21344572.207
       238.000         198.000
  23680522.862    -5102421.30449  -3716635.30345  23680521.446    23680534.277
       213.000         155.000
  20527470.124   -13022635.18749 -10103321.70948  20527469.559    20527476.093
       241.000         214.000
  20847562.143    -6252412.22949  -4860032.28147  20847561.444    20847569.540
       242.000         210.000
  22757465.695   -13777231.39149 -10711213.36946  22757464.875    22757475.074
       230.000         179.000
 02  2 13  2 47 30.0000000  0  8G15G26G23G 6G22G18G17G21
  20905041.163   -10107292.82049  -7858369.60347  20905040.352    20905048.335
       243.000         207.000
  21825087.366    -6478835.63349  -5031306.74347  21825087.516    21825095.141
       234.000         189.000
  21672596.358     4748791.01349   3708843.66547  21672595.924    21672603.603
       239.000         201.000
  21358367.131     4220374.93249   3302809.60447  21358366.900    21358375.040
       238.000         198.000
  23685786.265    -5074761.98949  -3695082.53445  23685785.262    23685797.226
       216.000         156.000
  20523551.241   -13043228.65949 -10119368.50848  20523550.672    20523557.020
       242.000         214.000
  20845127.346    -6265206.97449  -4870002.15347  20845126.619    20845134.657
       242.000         210.000
  22745814.478   -13838458.14749 -10758922.37046  22745813.741    22745824.120
       229.000         179.000
 02  2 13  2 48  0.0000000  0  8G15G26G23G 6G22G18G17G21
  20899099.351   -10138516.94549  -7882699.99947  20899098.405    20899106.519
       243.000         207.000
  21831067.179    -6447411.63249  -5006820.46147  21831067.387    21831074.685
       233.000         189.000
  21684448.568     4811074.87849   3757376.57547  21684448.069    21684455.942
       239.000         201.000
  21372248.847     4293323.86949   3359652.90947  21372248.760    21372256.826
       238.000         197.000
  23691131.122    -5046674.45049  -3673196.09845  23691130.202    23691143.459
       214.000         156.000
  20519712.639   -13063400.38549 -10135086.66948  20519712.069    20519718.515
       241.000         214.000
  20842722.034    -6277846.54549  -4879851.11147  20842721.534    20842729.189
       242.000         210.000
  22734214.782   -13899414.46949 -10806420.65546  22734213.811    22734224.541
       229.000         179.000
 02  2 13  2 48 30.0000000  0  8G15G26G23G 6G22G18G17G21
  20893188.724   -10169577.16449  -7906902.67347  20893187.877    20893195.837
       242.000         207.000
  21837166.115    -6415361.72349  -4981846.44947  21837166.124    21837173.841
       233.000         189.000
  21696337.229     4873550.39849   3806058.82747  21696336.639    21696344.494
       239.000         200.000
  21386208.966     4366684.52549   3416817.03047  21386208.896    21386217.206
       237.000         197.000
  23696557.096    -5018160.24049  -3650977.19445  23696557.195    23696567.633
       215.000         156.000
  20515954.252   -13083150.64949 -10150476.42048  20515953.691    20515960.266
       241.000         214.000
  20840346.489    -6290330.01049  -4889578.42347  20840345.799    20840353.816
       242.000         210.000
  22722666.651   -13960099.69849 -10853707.69646  22722665.776    22722675.957
       230.000         179.000
 02  2 13  2 49  0.0000000  0  9G15G26G23G29G 6G22G18G17G21
  20887309.325   -10200473.37049  -7930977.54847  20887308.377    20887316.241
       242.000         207.000
  21843383.821    -6382687.27549  -4956385.78847  21843383.730    21843390.954
       234.000         189.000
  21708261.916     4936215.16749   3854888.54547  21708261.094    21708269.251
       239.000         200.000
                   -975363.18649   -732977.24543
       209.000          74.000
  21400246.991     4440454.78649   3474300.32847  21400247.007    21400254.854
       237.000         197.000
  23702064.078    -4989221.80449  -3628427.71045  23702062.703    23702074.610
       214.000         155.000
  20512275.831   -13102480.53649 -10165538.60648  20512275.147    20512281.781
       242.000         214.000
  20838000.666    -6302657.20649  -4899183.97147  20837999.983    20838007.789
       242.000         210.000
  22711169.893   -14020514.89749 -10900784.32646  22711168.645    22711178.359
       230.000         179.000
 02  2 13  2 49 30.0000000  0  9G15G26G23G29G 6G22G18G17G21
  20881461.362   -10231204.21849  -7954923.57247  20881460.386    20881468.708
       243.000         207.000
  21849720.256    -6349388.71549  -4930438.81647  21849720.084    21849727.904
       234.000         188.000
  21720222.346     4999067.91849   3903864.73747  21720221.943    21720229.791
       238.000         200.000
                  -1082664.11249   -454095.79643
       208.000          74.000
  21414362.816     4514633.78849   3532102.12347  21414362.615    21414370.894
       237.000         196.000
  23707651.055    -4959860.35349  -3605548.62145  23707650.355    23707663.558
       217.000         155.000
  20508677.432   -13121389.93949 -10180273.14348  20508676.858    20508683.108
       242.000         214.000
  20835684.841    -6314826.81749  -4908666.72447  20835684.086    20835691.954
       242.000         210.000
  22699724.752   -14080658.82849 -10947649.58446  22699723.798    22699733.391
       230.000         179.000
 02  2 13  2 50  0.0000000  0  9G15G26G23G29G 6G22G18G17G21
  20875644.606   -10261770.96149  -7978741.72347  20875643.633    20875651.790
       243.000         207.000
  21856174.934    -6315468.87149  -4904007.72647  21856175.335    21856182.679
       233.000         188.000
  21732217.886     5062104.92449   3952984.51047  21732217.359    21732225.316
       238.000         200.000
                  -1189981.86749   -537720.09543
       204.000          74.000
  21428555.730     4589218.29349   3590219.89247  21428555.600    21428564.099
       237.000         196.000
  23713318.275    -4930079.55149  -3582342.76145  23713317.242    23713329.154
       215.000         155.000
  20505158.606   -13139881.28949 -10194681.92448  20505157.985    20505164.299
       241.000         214.000
  20833398.793    -6326839.86349  -4918027.48147  20833398.049    20833405.646
       242.000         210.000
  22688330.975   -14140532.95549 -10994304.61246  22688330.366    22688339.501
       230.000         179.000
 02  2 13  2 50 30.0000000  0  8G15G26G23G 6G22G18G17G21
  20869859.225   -10292173.04849  -8002431.57447  20869858.208    20869866.254
       242.000         207.000
  21862747.688    -6280928.72849  -4877093.28647  21862747.445    21862755.621
       233.000         188.000
  21744248.093     5125324.16049   4002246.27847  21744247.551    21744255.430
       239.000         200.000
  21442825.537     4664206.51449   3648652.24647  21442825.721    21442833.632
       237.000         196.000
  23719064.604    -4899881.57449  -3558811.82945  23719063.634    23719075.893
       215.000         154.000
  20501719.174   -13157955.29149 -10208765.50148  20501718.675    20501724.977
       241.000         214.000
  20831142.640    -6338695.82849  -4927265.84047  20831141.811    20831149.650
       243.000         210.000
  22676988.567   -14200137.15549 -11040749.30146  22676988.168    22676997.701
       229.000         180.000
 02  2 13  2 51  0.0000000  0  9G15G26G23G29G 6G22G18G17G21
  20864105.576   -10322408.32449  -8025991.44247  20864104.621    20864112.856
       242.000         207.000
  21869438.494    -6245767.96149  -4849695.23747  21869438.303    21869445.879
       232.000         188.000
  21756312.910     5188725.16549   4051649.68547  21756312.368    21756319.955
       238.000         199.000
                  -1404655.83849   -704998.68743
       204.000          74.000
  21457172.188     4739598.52949   3707399.23947  21457172.109    21457180.880
       237.000         196.000
  23724890.554    -4869266.61149  -3534955.97745  23724890.160    23724901.757
       215.000         155.000
  20498359.358   -13175611.05849 -10222523.17748  20498358.722    20498365.140
       241.000         214.000
  20828916.804    -6350392.33349  -4936379.94047  20828915.882    20828923.835
       242.000         210.000
  22665697.825   -14259470.04949 -11086982.58846  22665696.905    22665706.862
       230.000         180.000
 02  2 13  2 51 30.0000000  0 10G15G26G23G29G 6G22G18G17G21G 3
  20858382.459   -10352483.12949  -8049426.27247  20858381.553    20858389.694
       243.000         207.000
  21876245.930    -6209994.52749  -4821819.78647  21876245.990    21876253.346
       232.000         188.000
  21768410.639     5252299.29249   4101187.99047  21768410.343    21768417.540
       239.000         199.000
                  -1512012.14949   -424043.65643
       209.000          74.000
  21471594.062     4815385.93849   3766454.33947  21471593.895    21471602.547
       236.000         195.000
  23730793.932    -4838243.76149  -3510782.30245  23730792.744    23730805.220
       214.000         154.000
  20495077.693   -13192855.98249 -10235960.71648  20495077.163    20495083.430
       241.000         214.000
  20826720.159    -6361935.51349  -4945374.57147  20826719.332    20826727.179
       242.000         210.000
  22654457.472   -14318537.88049 -11133009.34046  22654456.786    22654466.480
       229.000         181.000
  24628324.181    -2703459.48649  -2074642.32645  24628323.786    24628336.292
       206.000         140.000
 02  2 13  2 52  0.0000000  0 10G15G26G23G29G 6G22G18G17G21G 3
  20852691.972   -10382386.45849  -8072727.48547  20852691.102    20852699.077
       243.000         208.000
  21883171.729    -6173598.96249  -4793459.56146  21883171.556    21883179.071
       231.000         187.000
  21780542.936     5316055.06249   4150867.84147  21780542.314    21780549.898
       239.000         199.000
                  -1619369.62949   -507698.15244                  24249787.689
       205.000          95.000
  21486092.847     4891577.48749   3825824.35547  21486092.817    21486101.274
       236.000         195.000
  23736776.504    -4806804.36349  -3486284.03345  23736775.522    23736788.462
       213.000         154.000
  20491876.139   -13209680.05149 -10249070.31848  20491875.440    20491881.892
       241.000         214.000
  20824554.818    -6373314.04249  -4954240.89447  20824554.171    20824561.746
       242.000         210.000
  22643269.560   -14377330.10549 -11178821.33546  22643268.831    22643278.928
       230.000         181.000
  24609182.443    -2804048.57249  -2153023.12645  24609181.618    24609195.254
       208.000         141.000
 02  2 13  2 52 30.0000000  0 10G15G26G23G29G 6G22G18G17G21G 3
  20847034.158   -10412118.20149  -8095894.99647  20847033.299    20847041.359
       243.000         208.000
  21890215.559    -6136583.15349  -4764616.03046  21890215.419    21890222.527
       232.000         187.000
  21792709.285     5379989.78649   4200687.13047  21792708.582    21792716.371
       238.000         199.000
  24229342.897    -1726726.52149   -591352.66545  24229341.456    24229353.944
       207.000         135.000
  21500668.088     4968170.90649   3885507.51647  21500668.217    21500676.525
       237.000         195.000
  23742837.941    -4774951.06349  -3461463.24145  23742836.306    23742849.046
       214.000         155.000
  20488754.347   -13226084.75649 -10261853.14348  20488753.731    20488760.066
       241.000         214.000
  20822420.837    -6384527.91149  -4962978.91847  20822420.069    20822427.973
       243.000         210.000
  22632134.031   -14435847.34449 -11224419.05446  22632133.160    22632142.837
       230.000         181.000
  24590065.843    -2904505.91749  -2231301.28745  24590065.082    24590078.906
       204.000         142.000
 02  2 13  2 53  0.0000000  0 10G15G26G23G29G 6G22G18G17G21G 3
  20841408.728   -10441679.59449  -8118929.76747  20841407.634    20841415.600
       243.000         208.000
  21897376.845    -6098950.18549  -4735291.59846  21897376.592    21897384.165
       232.000         187.000
  21804908.949     5444099.63749   4250642.87847  21804908.336    21804915.814
       238.000         198.000
  24208913.506    -1834081.83649   -675005.78045  24208911.949    24208925.305
       205.000         140.000
  21515319.123     5045162.55549   3945500.99347  21515318.955    21515327.417
       236.000         195.000
  23748977.523    -4742687.85749  -3436323.05345  23748976.985    23748988.367
       215.000         154.000
  20485711.886   -13242072.79349 -10274311.29148  20485711.317    20485717.632
       241.000         214.000
  20820317.983    -6395578.39149  -4971589.62147  20820317.144    20820324.865
       242.000         210.000
  22621050.342   -14494091.90249 -11269804.29846  22621049.473    22621058.832
       230.000         182.000
  24570974.384    -3004830.88649  -2309476.29245  24570973.069    24570986.564
       205.000         142.000
 02  2 13  2 53 30.0000000  0 10G15G26G23G29G 6G22G18G17G21G 3
  20835815.655   -10471070.86849  -8141831.98247  20835814.736    20835822.691
       242.000         207.000
  21904655.155    -6060702.06349  -4705487.82546  21904654.893    21904662.472
       233.000         187.000
  21817141.387     5508381.75849   4300732.86747  21817141.098    21817148.718
       237.000         198.000
  24188484.719    -1941433.94649   -758656.43245  24188483.761    24188495.600
       206.000         140.000
  21530045.506     5122549.92349   4005802.81747  21530045.240    21530053.579
       236.000         194.000
  23755194.512    -4710017.66049  -3410865.72545  23755192.732    23755205.893
       214.000         155.000
  20482748.388   -13257645.86249 -10286446.08948  20482747.869    20482754.099
       241.000         214.000
  20818246.169    -6406465.59549  -4980073.10147  20818245.459    20818253.166
       242.000         210.000
  22610018.543   -14552063.91049 -11314977.16846  22610017.650    22610027.779
       230.000         182.000
  24551908.438    -3105021.96049  -2387546.96645  24551907.768    24551920.566
       209.000         143.000
 02  2 13  2 54  0.0000000  0 10G15G26G23G29G 6G22G18G17G21G 3
  20830255.059   -10500291.72449  -8164601.40447  20830254.215    20830262.055
       243.000         207.000
  21912050.236    -6021840.34849  -4675205.93846  21912050.143    21912057.863
       232.000         187.000
  21829406.163     5572833.83849   4350955.29447  21829405.607    21829413.333
       237.000         198.000
  24168057.044    -2048780.30349   -842302.59045  24168055.184    24168069.170
       205.000         141.000
  21544846.763     5200330.98349   4066411.41247  21544846.623    21544855.045
       236.000         194.000
  23761488.302    -4676942.69949  -3385092.99245  23761487.385    23761499.607
       214.000         155.000
  20479863.696   -13272804.87149 -10298258.24248  20479863.146    20479869.391
       241.000         214.000
  20816205.589    -6417188.89649  -4988428.85947  20816204.801    20816212.650
       242.000         210.000
  22599038.591   -14609763.40149 -11359937.68646  22599037.662    22599047.677
       231.000         182.000
  24532868.458    -3205077.24649  -2465511.84445  24532868.189    24532881.667
       206.000         145.000
 02  2 13  2 54 30.0000000  0 10G15G26G23G29G 6G22G18G17G21G 3
  20824726.992   -10529341.52349  -8187237.53747  20824726.102    20824733.920
       243.000         208.000
  21919561.790    -5982366.64849  -4644447.17146  21919561.653    21919569.301
       233.000         187.000
  21841702.971     5637453.96549   4401308.65647  21841702.554    21841710.278
       237.000         198.000
  24147630.885    -2156118.71449   -925942.59245  24147629.664    24147642.770
       206.000         140.000
  21559722.618     5278503.87249   4127325.33347  21559722.595    21559730.873
       235.000         194.000
  23767859.007    -4643465.39149  -3359006.72745  23767859.024    23767870.166
       215.000         155.000
  20477057.591   -13287550.67149 -10309748.41848  20477057.028    20477063.223
       241.000         214.000
  20814196.231    -6427747.78849  -4996656.50947  20814195.592    20814203.226
       242.000         210.000
  22588110.428   -14667190.75749 -11404686.14146  22588109.597    22588119.339
       231.000         182.000
  24513854.611    -3304994.58749  -2543369.23345  24513853.432    24513866.338
       210.000         145.000
 02  2 13  2 55  0.0000000  0 10G15G26G23G29G 6G22G18G17G21G 3
  20819231.644   -10558219.69449  -8209739.93447  20819230.697    20819238.777
       243.000         208.000
  21927189.600    -5942282.23849  -4613212.53246  21927189.483    21927197.087
       233.000         187.000
  21854031.357     5702240.21649   4451791.47947  21854030.500    21854038.790
       237.000         198.000
  24127206.877    -2263446.40049  -1009574.22245  24127205.853    24127218.410
       200.000         140.000
  21574672.645     5357066.89249   4188543.24547  21574672.495    21574680.730
       235.000         194.000
  23774305.583    -4609587.72749  -3332608.49345  23774303.632    23774316.293
       213.000         155.000
  20474330.033   -13301883.98149 -10320917.17248  20474329.337    20474335.696
       241.000         214.000
  20812218.331    -6438141.62649  -5004755.54647  20812217.682    20812225.283
       242.000         210.000
  22577234.071   -14724345.96649 -11449222.54546  22577233.576    22577243.029
       231.000         183.000
  24494867.495    -3404771.35949  -2621117.10345  24494866.557    24494880.748
       212.000         146.000
 02  2 13  2 55 30.0000000  0 10G15G26G23G29G 6G22G18G17G21G 3
  20813769.035   -10586925.66949  -8232108.15247  20813768.208    20813775.817
       243.000         208.000
  21934933.312    -5901588.63449  -4581503.19246  21934933.631    21934941.067
       232.000         187.000
  21866390.979     5767190.52949   4502402.13347  21866390.073    21866398.338
       237.000         198.000
  24106785.308    -2370760.80949  -1093195.50845  24106783.421    24106796.289
       206.000         140.000
  21589696.630     5436018.23949   4250063.75047  21589696.894    21589704.465
       235.000         193.000
  23780827.742    -4575312.09149  -3305900.17845  23780827.746    23780839.342
       215.000         154.000
  20471680.747   -13315805.77749 -10331765.26748  20471680.221    20471686.476
       241.000         214.000
  20810271.952    -6448369.70349  -5012725.41747  20810271.219    20810278.767
       242.000         210.000
  22566409.435   -14781229.40549 -11493547.18046  22566408.311    22566418.514
       231.000         183.000
  24475907.650    -3504405.27549  -2698753.67045  24475907.322    24475919.540
       211.000         146.000
 02  2 13  2 56  0.0000000  0 10G15G26G23G29G 6G22G18G17G21G 3
  20808339.264   -10615458.94649  -8254341.80047  20808338.277    20808346.363
       243.000         208.000
  21942792.673    -5860287.31349  -4549320.30646  21942792.631    21942800.021
       231.000         187.000
  21878781.399     5832302.72649   4553138.93147  21878780.585    21878788.840
       237.000         198.000
  24086366.782    -2478059.70249  -1176804.73545  24086365.366    24086377.959
       205.000         140.000
  21604794.140     5515355.92049   4311885.29647  21604793.902    21604802.222
       234.000         193.000
  23787425.668    -4540640.83849  -3278883.56145  23787424.858    23787437.517
       215.000         154.000
  20469109.612   -13329316.94649 -10342293.39648  20469108.991    20469115.271
       241.000         214.000
  20808357.213    -6458431.54949  -5020565.75847  20808356.445    20808364.023
       242.000         210.000
  22555636.515   -14837840.90149 -11537659.90346  22555635.628    22555645.508
       230.000         183.000
  24456975.329    -3603894.15349  -2776277.22245  24456973.599    24456987.324
       210.000         146.000
 02  2 13  2 56 30.0000000  0 10G15G26G23G29G 6G22G18G17G21G 3
  20802942.461   -10643819.03949  -8276440.49347  20802941.533    20802949.404
       242.000         208.000
  21950767.392    -5818379.68549  -4516664.96746  21950766.990    21950774.950
       231.000         186.000
  21891202.240     5897574.81049   4604000.31747  21891201.616    21891209.376
       237.000         197.000
  24065951.733    -2585340.33949  -1260399.72945  24065951.209    24065963.307
       208.000         140.000
  21619964.762     5595078.12949   4374006.47347  21619964.660    21619972.712
       235.000         193.000
  23794098.324    -4505575.95949  -3251560.23945  23794096.949    23794109.150
       214.000         154.000
  20466616.439   -13342418.33949 -10352502.21648  20466615.857    20466622.255
       241.000         214.000
  20806474.270    -6468326.29849  -5028275.89247  20806473.448    20806481.041
       242.000         210.000
  22544915.460   -14894179.86349 -11581560.26346  22544914.121    22544923.867
       231.000         183.000
  24438071.070    -3703235.84849  -2853686.09445  24438069.916    24438083.061
       213.000         147.000
 02  2 13  2 57  0.0000000  0 10G15G26G23G29G 6G22G18G17G21G 3
  20797578.687   -10672005.62549  -8298403.98747  20797577.796    20797585.583
       243.000         208.000
  21958857.167    -5775867.42649  -4483538.49946  21958856.950    21958864.474
       233.000         186.000
  21903653.145     5963004.67949   4654984.65247  21903652.867    21903660.352
       237.000         197.000
  24045540.623    -2692600.47649  -1343978.76245  24045540.529    24045552.187
       207.000         141.000
  21635208.166     5675182.73049   4436425.62047  21635207.847    21635216.374
       236.000         193.000
  23800844.995    -4470120.01749  -3223932.17745  23800844.588    23800857.769
       213.000         154.000
  20464201.077   -13355110.94249 -10362392.50448  20464200.459    20464206.910
       241.000         214.000
  20804623.130    -6478053.60049  -5035855.55047  20804622.440    20804630.089
       243.000         210.000
  22534246.143   -14950246.93749 -11625248.76846  22534245.736    22534255.048
       231.000         183.000
  24419195.253    -3802428.03349  -2930978.46345  24419194.863    24419206.856
       211.000         147.000
 02  2 13  2 57 30.0000000  0 10G15G26G23G29G 6G22G18G17G21G 3
  20792248.147   -10700017.41349  -8320231.27247  20792247.097    20792255.067
       243.000         208.000
  21967061.790    -5732751.42449  -4449941.57346  21967061.969    21967069.210
       232.000         186.000
  21916133.745     6028590.97749   4706090.88547  21916133.227    21916140.761
       238.000         197.000
  24025134.086    -2799836.59549  -1427539.07445  24025132.817    24025144.787
       206.000         141.000
  21650524.149     5755668.68049   4499141.92447  21650524.154    21650532.486
       234.000         193.000
  23807666.146    -4434274.69349  -3196000.70545  23807665.376    23807676.995
       215.000         153.000
  20461863.452   -13367395.06449 -10371964.49148  20461862.887    20461869.296
       241.000         214.000
  20802804.186    -6487612.02649  -5043303.61447  20802803.539    20802811.014
       242.000         210.000
  22523628.549   -15006042.30549 -11668725.54346  22523627.837    22523637.219
       231.000         183.000
  24400348.460    -3901467.67049  -3008151.96645  24400347.481    24400359.125
       213.000         147.000
 02  2 13  2 58  0.0000000  0 10G15G26G23G29G 6G22G18G17G21G 3
  20786951.024   -10727853.60849  -8341921.73347  20786950.064    20786957.978
       243.000         208.000
  21975381.004    -5689033.49549  -4415875.62546  21975381.270    21975388.315
       232.000         186.000
  21928643.759     6094331.67549   4757317.42347  21928643.326    21928650.767
       238.000         196.000
  24004732.579    -2907046.47849  -1511078.95845  24004731.670    24004744.402
       206.000         141.000
  21665912.319     5836534.08049   4562153.90447  21665912.111    21665921.160
       234.000         192.000
  23814560.963    -4398042.05749  -3167767.43445  23814560.843    23814571.989
       216.000         153.000
  20459603.392   -13379271.56949 -10381218.85748  20459602.812    20459609.209
       241.000         214.000
  20801017.473    -6497000.92549  -5050619.58347  20801016.836    20801024.270
       242.000         210.000
  22513062.717   -15061565.51549 -11711990.25246  22513061.952    22513071.146
       232.000         184.000
  24381531.154    -4000352.33549  -3085204.70245  24381531.367    24381542.509
       213.000         148.000
 02  2 13  2 58 30.0000000  0 10G15G26G23G29G 6G22G18G17G21G 3
  20781687.430   -10755513.69449  -8363474.96247  20781686.638    20781694.238
       243.000         209.000
  21983814.537    -5644714.97949  -4381341.67746  21983814.522    21983822.134
       232.000         186.000
  21941182.795     6160224.76749   4808662.72347  21941182.326    21941189.917
       237.000         196.000
  23984336.516    -3014227.46249  -1594596.33445  23984336.190    23984347.500
       206.000         142.000
  21681372.334     5917776.89449   4625459.96547  21681372.288    21681380.834
       234.000         192.000
  23821528.838    -4361424.62649  -3139234.31645  23821526.760    23821540.897
       213.000         153.000
  20457420.657   -13390741.61549 -10390156.50048  20457420.083    20457426.136
       241.000         214.000
  20799263.138    -6506219.66349  -5057802.95747  20799262.390    20799270.006
       243.000         210.000
  22502548.698   -15116816.54949 -11755042.87946  22502548.290    22502557.534
       231.000         184.000
  24362743.727    -4099079.92349  -3162135.03345  24362742.774    24362755.815
       214.000         148.000
 02  2 13  2 59  0.0000000  0 10G15G26G23G29G 6G22G18G17G21G 3
  20776457.480   -10782996.91549  -8384890.37947  20776456.638    20776464.318
       243.000         209.000
  21992362.033    -5599797.42649  -4346340.94346  21992361.905    21992369.093
       231.000         185.000
  21953750.446     6226268.40949   4860125.33147  21953749.955    21953757.122
       237.000         196.000
  23963946.483    -3121376.75049  -1678089.00945  23963945.296    23963957.489
       205.000         142.000
  21696903.835     5999395.17049   4689058.60447  21696904.056    21696912.239
       234.000         192.000
  23828569.780    -4324424.42349  -3110402.94045  23828568.795    23828580.164
       214.000         154.000
  20455315.161   -13401805.84249 -10398777.92248  20455314.640    20455320.717
       241.000         214.000
  20797541.404    -6515267.28549  -5064852.99647  20797540.712    20797548.244
       242.000         210.000
  22492086.584   -15171794.81149 -11797882.94646  22492086.133    22492095.054
       231.000         184.000
  24343986.740    -4197647.72549  -3238940.83745  24343985.989    24343998.499
       216.000         148.000
 02  2 13  2 59 30.0000000  0 10G15G26G23G29G 6G22G18G17G21G 3
  20771261.263   -10810302.96549  -8406167.74147  20771260.336    20771268.199
       243.000         209.000
  22001023.174    -5554282.72349  -4310874.90946  22001022.849    22001030.749
       231.000         185.000
  21966346.386     6292460.36249   4911703.49147  21966345.705    21966353.572
       238.000         196.000
  23943562.901    -3228492.08249  -1761555.23645  23943562.557    23943574.140
       206.000         142.000
  21712506.375     6081386.83149   4752948.18147  21712506.455    21712514.536
       234.000         192.000
  23835683.180    -4287044.13449  -3081275.38845  23835682.061    23835694.377
       213.000         153.000
  20453286.639   -13412465.77149 -10407084.30348  20453285.975    20453292.213
       241.000         214.000
  20795852.324    -6524143.39749  -5071769.39147  20795851.651    20795859.411
       242.000         210.000
  22481676.158   -15226501.42449 -11840511.34346  22481675.330    22481684.908
       231.000         184.000
  24325260.598    -4296053.55749  -3315620.43145  24325259.303    24325271.469
       211.000         147.000
 02  2 13  3  0  0.0000000  0 10G15G26G23G29G 6G22G18G17G21G 3
  20766098.923   -10837431.04849  -8427306.42647  20766098.029    20766105.663
       243.000         209.000
  22009797.671    -5508172.18249  -4274944.57746  22009798.104    22009804.854
       232.000         185.000
  21978970.152     6358798.80949   4963395.82847  21978969.546    21978977.186
       237.000         196.000
  23923186.322    -3335570.78949  -1844992.92845  23923185.004    23923197.966
       209.000         143.000
  21728179.630     6163750.15349   4817127.36747  21728179.814    21728187.799
       234.000         191.000
  23842868.238    -4249285.66949  -3051853.16245  23842867.007    23842879.647
       214.000         153.000
  20451334.907   -13422721.87449 -10415076.01548  20451334.326    20451340.331
       241.000         214.000
  20794196.056    -6532846.88749  -5078551.27647  20794195.508    20794202.993
       242.000         210.000
  22471317.444   -15280936.23849 -11882927.95246  22471316.152    22471326.227
       232.000         184.000
  24306565.664    -4394294.79649  -3392171.75845  24306564.036    24306576.620
       214.000         147.000
 02  2 13  3  0 30.0000000  0 10G15G26G23G29G 6G22G18G17G21G 3
  20760970.541   -10864380.46149  -8448305.88547  20760969.690    20760977.251
       243.000         209.000
  22018685.221    -5461467.53249  -4238551.31346  22018685.241    22018692.634
       230.000         185.000
  21991621.482     6425281.94549   5015200.89147  21991620.698    21991628.664
       236.000         196.000
  23902817.256    -3442610.00749  -1928399.86445  23902816.924    23902828.185
       206.000         143.000
  21743923.274     6246483.35049   4881594.76747  21743923.295    21743931.767
       234.000         191.000
  23850124.972    -4211151.62449  -3022138.26245  23850123.963    23850136.273
       212.000         153.000
  20449459.878   -13432574.95149 -10422753.68048  20449459.394    20449465.285
       241.000         214.000
  20792572.720    -6541377.16449  -5085198.18947  20792572.162    20792579.591
       242.000         211.000
  22461010.417   -15335099.49249 -11925132.94946  22461009.946    22461019.409
       232.000         185.000
  24287902.511    -4492369.26149  -3468593.13545  24287901.236    24287913.376
       211.000         147.000
 02  2 13  3  1  0.0000000  0 10G15G26G23G29G 6G22G18G17G21G 3
  20755876.308   -10891150.33149  -8469165.44547  20755875.526    20755883.211
       243.000         209.000
  22027685.549    -5414170.39449  -4201696.36046  22027685.671    22027693.022
       230.000         185.000
  22004300.003     6491908.09149   5067117.39347  22004299.580    22004307.374
       237.000         196.000
  23882456.114    -3549607.25949  -2011774.13145  23882455.830    23882466.929
       205.000         144.000
  21759736.872     6329584.44049   4946348.83847  21759736.508    21759745.601
       233.000         191.000
  23857452.469    -4172643.92449  -2992132.20845  23857451.700    23857463.973
       211.000         152.000
  20447661.420   -13442025.79849 -10430117.91748  20447660.849    20447666.945
       242.000         214.000
  20790982.580    -6549733.28749  -5091709.39847  20790981.793    20790989.466
       243.000         210.000
  22450755.166   -15388990.70649 -11967125.97546  22450754.256    22450763.001
       232.000         185.000
  24269271.528    -4590274.31449  -3544882.48345  24269270.514    24269283.231
       213.000         147.000
 02  2 13  3  1 30.0000000  0 10G15G26G23G29G 6G22G18G17G21G 3
  20750816.498   -10917739.59449  -8489884.26847  20750815.479    20750823.327
       243.000         209.000
  22036798.339    -5366282.16849  -4164380.82746  22036798.702    22036805.468
       231.000         185.000
  22017005.428     6558675.57449   5119144.02747  22017004.755    22017012.611
       237.000         196.000
  23862103.597    -3656559.41149  -2095113.24945  23862103.130    23862114.648
       209.000         144.000
  21775620.227     6413051.86549   5011388.35947  21775620.082    21775628.487
       233.000         190.000
  23864850.921    -4133764.65049  -2961836.62345  23864850.728    23864861.446
       215.000         152.000
  20445939.317   -13451075.20549 -10437169.34448  20445938.631    20445944.842
       241.000         214.000
  20789425.773    -6557914.17449  -5098084.05947  20789425.150    20789432.445
       242.000         210.000
  22440551.680   -15442609.87449 -12008907.00646  22440550.940    22440560.257
       233.000         185.000
  24250673.482    -4688006.90349  -3621037.46245  24250672.649    24250683.498
       211.000         147.000
 02  2 13  3  2  0.0000000  0 10G15G26G23G29G 6G22G18G17G21G 3
  20745791.008   -10944148.47649  -8510462.54147  20745790.208    20745797.810
       243.000         209.000
  22046023.141    -5317805.19049  -4126606.52946  22046023.226    22046030.877
       231.000         185.000
  22029737.276     6625581.72649   5171278.72147  22029736.671    22029744.588
       236.000         195.000
  23841760.032    -3763464.71849  -2178415.87645  23841759.663    23841771.440
       207.000         145.000
  21791572.784     6496882.98149   5076711.28047  21791572.368    21791581.357
       233.000         190.000
  23872319.748    -4094517.06949  -2931254.02645  23872318.288    23872331.288
       211.000         152.000
  20444293.315   -13459724.95149 -10443909.34948  20444292.831    20444298.804
       241.000         214.000
  20787902.273    -6565919.81549  -5104322.16947  20787901.755    20787909.029
       242.000         210.000
  22430399.848   -15495957.65549 -12050476.57746  22430399.338    22430408.868
       232.000         185.000
  24232108.392    -4785565.89749  -3697057.15745  24232106.772    24232118.762
       213.000         147.000
 02  2 13  3  2 30.0000000  0 10G15G26G23G29G 6G22G18G17G21G 3
  20740800.084   -10970375.69049  -8530899.25147  20740799.203    20740806.634
       243.000         209.000
  22055359.828    -5268740.57149  -4088374.31246  22055360.202    22055367.379
       229.000         185.000
  22042495.232     6692625.35649   5223520.53447  22042494.489    22042502.137
       236.000         195.000
  23821426.067    -3870319.72149  -2261679.32945  23821425.700    23821437.854
       208.000         146.000
  21807594.279     6581076.39149   5142316.50547  21807593.787    21807602.341
       232.000         190.000
  23879857.768    -4054902.68249  -2900385.63145  23879856.060    23879868.991
       211.000         151.000
  20442723.253   -13467975.37449 -10450338.19148  20442722.758    20442728.639
       241.000         214.000
  20786412.482    -6573748.71449  -5110422.55347  20786411.757    20786419.115
       242.000         210.000
  22420299.654   -15549034.20249 -12091834.79546  22420298.820    22420308.015
       231.000         186.000
  24213576.942    -4882948.29349  -3772939.25045  24213575.730    24213586.944
       210.000         148.000
 02  2 13  3  3  0.0000000  0 10G15G26G23G29G 6G22G18G17G21G 3
  20735843.894   -10996420.56549  -8551193.88347  20735842.945    20735850.572
       244.000         209.000
  22064807.979    -5219090.18849  -4049685.65846  22064807.711    22064815.688
       232.000         185.000
  22055278.972     6759804.50449   5275867.95647  22055278.418    22055285.807
       236.000         195.000
  23801102.153    -3977121.95649  -2344901.66745  23801101.061    23801112.794
       209.000         147.000
  21823684.325     6665630.05249   5208202.44447  21823684.068    21823692.495
       232.000         189.000
  23887465.428    -4014923.90649  -2869233.29845  23887464.642    23887475.800
       212.000         151.000
  20441229.022   -13475827.50349 -10456456.67848  20441228.442    20441234.464
       241.000         214.000
  20784956.372    -6581400.21249  -5116384.70547  20784955.665    20784963.222
       243.000         211.000
  22410251.125   -15601839.06949 -12132981.31846  22410250.376    22410259.127
       232.000         186.000
  24195079.592    -4980151.45849  -3848681.67845  24195078.596    24195090.915
       213.000         147.000
 02  2 13  3  3 30.0000000  0 10G15G26G23G29G 6G22G18G17G21G 3
  20730922.389   -11022282.79349  -8571346.19347  20730921.522    20730928.929
       243.000         209.000
  22074367.199    -5168856.23649  -4010542.28246  22074367.104    22074374.443
       229.000         184.000
  22068088.063     6827116.88649   5328319.18347  22068087.141    22068094.995
       236.000         194.000
  23780788.672    -4083869.16049  -2428081.14045  23780787.603    23780799.466
       209.000         148.000
  21839842.489     6750541.58449   5274367.24447  21839842.462    21839850.692
       232.000         189.000
  23895142.070    -3974583.64149  -2837799.26345  23895141.188    23895153.523
       212.000         151.000
  20439810.311   -13483282.50049 -10462265.71248  20439809.554    20439815.727
       241.000         214.000
  20783534.175    -6588873.75649  -5122208.19147  20783533.629    20783541.188
       242.000         211.000
  22400254.143   -15654372.99449 -12173916.70746  22400253.587    22400262.516
       233.000         186.000
  24176616.723    -5077173.40649  -3924282.90145  24176615.248    24176628.327
       212.000         147.000
 02  2 13  3  4  0.0000000  0 10G15G26G23G29G 6G22G18G17G21G 3
  20726035.870   -11047961.29449  -8591355.34147  20726034.965    20726042.397
       244.000         209.000
  22084037.168    -5118040.10349  -3970945.25746  22084036.849    22084044.238
       229.000         184.000
  22080922.237     6894561.05349   5380873.10547  22080921.406    22080929.086
       236.000         194.000
  23760486.259    -4190558.35349  -2511215.42445  23760485.928    23760496.928
       209.000         149.000
  21856068.447     6835809.42349   5340809.68847  21856068.639    21856077.111
       232.000         188.000
  23902886.727    -3933883.86149  -2806085.10145  23902884.497    23902897.747
       209.000         151.000
  20438467.035   -13490341.24149 -10467765.97148  20438466.544    20438472.585
       242.000         214.000
  20782146.044    -6596168.30249  -5127892.19947  20782145.290    20782152.742
       242.000         211.000
  22390308.767   -15706635.69049 -12214640.75746  22390308.092    22390316.716
       233.000         186.000
  24158188.869    -5174011.07849  -3999740.54045  24158188.714    24158200.289
       211.000         147.000
 02  2 13  3  4 30.0000000  0 10G15G26G23G29G 6G22G18G17G21G 3
  20721184.522   -11073454.98849  -8611220.48347  20721183.573    20721191.203
       243.000         209.000
  22093817.624    -5066643.36949  -3930895.80946  22093817.548    22093825.042
       230.000         184.000
  22093781.180     6962135.34449   5433528.41847  22093780.764    22093788.066
       235.000         194.000
  23740195.412    -4297186.64049  -2594302.24645  23740195.015    23740205.988
       210.000         149.000
  21872361.865     6921431.86549   5407528.44047  21872361.609    21872370.307
       231.000         188.000
  23910699.421    -3892826.63749  -2774092.41845  23910698.888    23910711.072
       213.000         151.000
  20437199.016   -13497004.49449 -10472958.06048  20437198.482    20437204.542
       241.000         214.000
  20780792.178    -6603282.75249  -5133435.87347  20780791.577    20780798.876
       243.000         211.000
  22380415.037   -15758627.06749 -12255153.39346  22380414.282    22380423.132
       233.000         187.000
  24139796.581    -5270661.85549  -4075052.54945  24139794.468    24139808.187
       212.000         147.000
 02  2 13  3  5  0.0000000  0 10G15G26G23G29G 6G22G18G17G21G 3
  20716368.358   -11098763.57949  -8630941.39647  20716367.467    20716375.009
       243.000         209.000
  22103708.127    -5014668.36749  -3890395.77746  22103708.241    22103715.867
       232.000         184.000
  22106664.409     7029837.40949   5486283.29947  22106663.655    22106671.281
       236.000         194.000
  23719916.636    -4403751.78649  -2677339.89045  23719915.854    23719927.120
       211.000         150.000
  21888722.263     7007406.29849   5474521.47647  21888722.243    21888730.405
       231.000         188.000
  23918579.969    -3851414.83349  -2741823.42245  23918579.352    23918592.414
       213.000         151.000
  20436006.040   -13503273.53649 -10477842.97348  20436005.338    20436011.580
       241.000         215.000
  20779472.636    -6610216.79149  -5138838.96947  20779472.131    20779479.412
       242.000         211.000
  22370572.812   -15810347.95449 -12295455.25546  22370571.945    22370581.077
       233.000         187.000
  24121440.288    -5367123.80849  -4150217.42645  24121439.585    24121450.052
       211.000         148.000
 02  2 13  3  5 30.0000000  0 10G15G26G23G29G 6G22G18G17G21G 3
  20711587.645   -11123886.24149  -8650517.42447  20711586.767    20711594.262
       243.000         209.000
  22113708.284    -4962116.92749  -3849446.55746  22113708.148    22113715.805
       232.000         184.000
  22119571.624     7097665.43749   5539136.33747  22119570.590    22119578.526
       236.000         194.000
  23699650.349    -4510251.18249  -2760326.29345  23699649.974    23699660.464
       210.000         151.000
  21905149.221     7093730.70749   5541787.22246  21905149.011    21905157.566
       232.000         187.000
  23926527.374    -3809650.97649  -2709280.12045  23926527.000    23926537.412
       214.000         152.000
  20434887.821   -13509149.56949 -10482421.64948  20434887.172    20434893.258
       241.000         215.000
  20778187.586    -6616969.54149  -5144100.80047  20778186.891    20778194.280
       243.000         211.000
  22360781.959   -15861798.65349 -12335546.57946  22360781.233    22360789.871
       234.000         187.000
  24103120.321    -5463394.73449  -4225233.44645  24103119.148    24103131.622
       212.000         149.000
 02  2 13  3  6  0.0000000  0 10G15G26G23G29G 6G22G18G17G21G 3
  20706842.514   -11148821.81149  -8669947.67247  20706841.772    20706849.063
       244.000         210.000
  22123817.915    -4908990.40149  -3808049.22746  22123818.169    22123825.193
       231.000         184.000
  22132502.565     7165618.10549   5592086.49447  22132502.018    22132509.583
       235.000         193.000
  23679397.164    -4616681.55249  -2843258.92045  23679396.655    23679407.530
       210.000         151.000
  21921642.571     7180403.65949   5609324.55946  21921642.483    21921650.829
       231.000         187.000
  23934541.460    -3767536.76949  -2676463.80545  23934540.213    23934552.344
       212.000         151.000
  20433844.301   -13514633.04649 -10486694.43348  20433843.864    20433849.773
       241.000         215.000
  20776937.268    -6623539.74649  -5149220.39047  20776936.576    20776943.916
       243.000         211.000
  22351042.668   -15912978.40449 -12375426.79046  22351041.876    22351050.631
       234.000         187.000
  24084837.342    -5559471.53549  -4300098.20945  24084837.174    24084847.654
       214.000         149.000
 02  2 13  3  6 30.0000000  0 10G15G26G23G29G 6G22G18G17G21G 3
  20702132.985   -11173570.35849  -8689232.18547  20702132.122    20702139.526
       244.000         210.000
  22134036.426    -4855291.50749  -3766205.89246  22134036.595    22134043.600
       232.000         184.000
  22145456.777     7233692.99049   5645131.87947  22145456.170    22145463.858
       235.000         193.000
  23659157.524    -4723040.89549  -2926136.19245  23659156.197    23659167.692
       212.000         151.000
  21938201.702     7267422.32949   5677131.29446  21938201.639    21938210.013
       230.000         187.000
  23942621.756    -3725075.59449  -2643377.12945  23942621.358    23942634.226
       214.000         152.000
  20432875.165   -13519725.84949 -10490662.79548  20432874.635    20432880.418
       241.000         215.000
  20775721.761    -6629927.07449  -5154197.47947  20775721.068    20775728.421
       243.000         211.000
  22341354.815   -15963888.00049 -12415096.47747  22341354.052    22341363.157
       233.000         188.000
  24066591.619    -5655352.43249  -4374810.31845  24066590.036    24066602.500
       208.000         150.000
 02  2 13  3  7  0.0000000  0 10G15G26G23G29G 6G22G18G17G21G 3
  20697459.263   -11198130.47149  -8708369.87147  20697458.568    20697465.818
       244.000         210.000
  22144363.662    -4801021.47849  -3723917.51746  22144363.636    22144370.885
       229.000         183.000
  22158433.999     7301888.88249   5698271.55247  22158433.795    22158441.101
       234.000         193.000
  23638932.026    -4829326.20349  -3008955.77845  23638931.089    23638942.400
       212.000         151.000
  21954826.375     7354785.46349   5745206.42446  21954826.210    21954834.603
       231.000         186.000
  23950767.584    -3682269.08049  -2610021.37545  23950766.419    23950778.781
       213.000         152.000
  20431980.293   -13524428.18749 -10494326.90148  20431979.635    20431985.641
       241.000         214.000
  20774541.393    -6636129.92749  -5159030.82147  20774540.635    20774547.910
       242.000         210.000
  22331718.365   -16014527.39049 -12454555.62147  22331717.404    22331726.970
       234.000         188.000
  24048383.716    -5751034.29749  -4449367.35245  24048381.992    24048394.331
       211.000         150.000
 02  2 13  3  7 30.0000000  0 10G15G26G23G29G 6G22G18G17G21G 3
  20692821.613   -11222501.23049  -8727360.00547  20692820.748    20692828.350
       244.000         210.000
  22154799.167    -4746182.32949  -3681185.68846  22154799.082    22154806.509
       231.000         183.000
  22171433.892     7370203.89449   5751504.05447  22171433.366    22171440.912
       236.000         193.000
  23618721.122    -4935534.47149  -3091715.31845  23618720.370    23618731.405
       208.000         151.000
  21971516.206     7442490.87049   5813548.27546  21971515.986    21971524.910
       231.000         186.000
  23958978.395    -3639119.76449  -2576398.49845  23958978.334    23958988.820
       213.000         152.000
  20431159.479   -13528741.29249 -10497687.70648  20431158.833    20431164.696
       241.000         214.000
  20773396.184    -6642147.87149  -5163720.07947  20773395.488    20773402.792
       242.000         211.000
  22322133.354   -16064896.64649 -12493804.27547  22322132.739    22322141.120
       234.000         188.000
  24030214.193    -5846514.51349  -4523767.25445  24030212.530    24030225.423
       210.000         151.000
 02  2 13  3  8  0.0000000  0 10G15G26G23G29G 6G22G18G17G21G 3
  20688220.003   -11246682.64649  -8746202.60047  20688219.024    20688226.474
       244.000         210.000
  22165342.499    -4690776.65049  -3638012.39946  22165342.872    22165349.743
       230.000         183.000
  22184456.005     7438635.66649   5804827.53147  22184455.571    22184463.131
       235.000         193.000
  23598525.226    -5041663.99649  -3174413.49045  23598524.701    23598535.547
       210.000         151.000
  21988270.625     7530535.83149   5882154.70746  21988270.217    21988278.366
       230.000         185.000
  23967254.272    -3595630.82849  -2542510.95345  23967252.996    23967265.022
       212.000         151.000
  20430412.433   -13532666.82949 -10500746.51048  20430411.840    20430417.667
       241.000         214.000
  20772286.235    -6647980.40549  -5168264.86247  20772285.596    20772292.894
       243.000         211.000
  22312599.481   -16114996.83049 -12532843.26147  22312598.619    22312607.232
       234.000         189.000
  24012083.368    -5941791.36149  -4598008.67845  24012082.881    24012093.599
       213.000         151.000
 02  2 13  3  8 30.0000000  0 10G15G26G23G29G 6G22G18G17G21G 3
  20683654.761   -11270672.99849  -8764896.31447  20683653.724    20683661.123
       244.000         210.000
  22175993.483    -4634805.34949  -3594398.35846  22175993.179    22176000.937
       229.000         182.000
  22197500.219     7507183.48349   5858241.44647  22197499.451    22197507.022
       236.000         193.000
  23578345.123    -5147710.83949  -3257047.22445  23578343.842    23578354.957
       211.000         151.000
  22005089.432     7618919.33249   5951024.93446  22005089.623    22005097.770
       230.000         185.000
  23975594.099    -3551803.45349  -2508359.73245  23975592.982    23975605.567
       211.000         151.000
  20429739.119   -13536204.75849 -10503503.28348  20429738.476    20429744.333
       240.000         214.000
  20771211.925    -6653625.69549  -5172663.74547  20771211.230    20771218.691
       243.000         211.000
  22303117.083   -16164826.88249 -12571671.75347  22303116.694    22303125.401
       235.000         189.000
  23993991.930    -6036861.48949  -4672089.03745  23993990.916    23994001.723
       215.000         152.000
 02  2 13  3  9  0.0000000  0 10G15G26G23G29G 6G22G18G17G21G 3
  20679125.874   -11294472.24849  -8783441.11747  20679125.060    20679132.262
       244.000         210.000
  22186751.571    -4578271.29149  -3550345.81946  22186751.202    22186758.852
       229.000         182.000
  22210565.984     7575844.68449   5911743.70647  22210565.545    22210572.680
       234.000         192.000
  23558181.053    -5253673.25349  -3339615.15945  23558181.240    23558190.586
       212.000         151.000
  22021972.128     7707638.43649   6020156.66646  22021971.926    22021980.673
       230.000         184.000
  23983997.775    -3507641.27949  -2473947.61245  23983997.034    23984008.983
       213.000         151.000
  20429139.188   -13539357.11549 -10505959.61048  20429138.652    20429144.567
       241.000         214.000
  20770173.271    -6659083.74449  -5176916.72547  20770172.599    20770179.798
       243.000         211.000
  22293685.858   -16214387.85649 -12610290.57947  22293685.283    22293693.937
       235.000         189.000
  23975940.228    -6131723.12149  -4746006.92845  23975938.673    23975949.672
       212.000         153.000
 02  2 13  3  9 30.0000000  0 10G15G26G23G29G 6G22G18G17G21G 3
  20674633.517   -11318079.34649  -8801836.18747  20674632.700    20674640.112
       244.000         210.000
  22197616.316    -4521176.24449  -3505856.13946  22197616.220    22197623.824
       229.000         182.000
  22223653.046     7644617.84949   5965333.21147  22223652.296    22223659.995
       234.000         192.000
  23538033.550    -5359548.23549  -3422114.95145  23538032.849    23538043.041
       212.000         151.000
  22038918.369     7796691.44449   6089548.58446  22038918.744    22038927.129
       230.000         184.000
  23992465.029    -3463146.32449  -2439276.18745  23992464.133    23992475.951
       212.000         151.000
  20428612.504   -13542124.61749 -10508116.05148  20428612.066    20428617.840
       241.000         214.000
  20769170.448    -6664353.35349  -5181022.86947  20769169.823    20769177.121
       243.000         211.000
  22284305.857   -16263679.57749 -12648699.59747  22284305.316    22284314.257
       235.000         189.000
  23957928.656    -6226373.50649  -4819760.21745  23957928.461    23957938.792
       214.000         153.000
 02  2 13  3 10  0.0000000  0 10G15G26G23G29G 6G22G18G17G21G 3
  20670177.966   -11341493.22649  -8820080.70247  20670177.064    20670184.450
       244.000         210.000
  22208587.509    -4463522.11049  -3460930.81046  22208587.575    22208594.740
       230.000         182.000
  22236761.131     7713501.36149   6019008.69847  22236760.481    22236768.214
       234.000         192.000
  23517903.321    -5465332.92649  -3504544.38245  23517902.595    23517913.100
       211.000         151.000
  22055927.807     7886076.38249   6159199.15146  22055927.259    22055936.206
       230.000         184.000
  24000994.904    -3418320.87649  -2404347.23645  24000994.247    24001004.783
       212.000         151.000
  20428158.867   -13544508.34449 -10509973.44348  20428158.270    20428164.072
       241.000         214.000
  20768203.716    -6669433.46149  -5184981.34647  20768202.962    20768210.494
       242.000         211.000
  22274977.024   -16312702.32549 -12686899.02847  22274976.165    22274985.276
       235.000         190.000
  23939957.779    -6320809.94749  -4893346.79345  23939956.743    23939968.163
       214.000         154.000
 02  2 13  3 10 30.0000000  0 10G15G26G23G29G 6G22G18G17G21G 3
  20665759.253   -11364713.41749  -8838174.28747  20665758.483    20665765.755
       244.000         210.000
  22219664.598    -4405311.28749  -3415571.70246  22219664.486    22219671.874
       231.000         182.000
  22249889.732     7782492.98449   6072768.43647  22249889.052    22249896.878
       234.000         191.000
  23497790.643    -5571025.00149  -3586901.62745  23497790.088    23497800.882
       210.000         151.000
  22072999.935     7975790.70449   6229106.38046  22072999.690    22073008.196
       229.000         184.000
  24009587.246    -3373167.80249  -2369163.00445  24009586.449    24009597.480
       213.000         150.000
  20427777.991   -13546509.72649 -10511532.90548  20427777.504    20427783.184
       241.000         214.000
  20767273.157    -6674323.50049  -5188791.72447  20767272.496    20767279.868
       243.000         211.000
  22265699.304   -16361456.68549 -12724889.31947  22265698.488    22265707.181
       235.000         190.000
  23922028.018    -6415030.20249  -4966764.91345  23922026.935    23922037.448
       215.000         154.000
 02  2 13  3 11  0.0000000  0 10G15G26G23G29G 6G22G18G17G21G 3
  20661377.652   -11387738.71549  -8856116.01047  20661376.866    20661384.064
       244.000         210.000
  22230847.318    -4346545.63749  -3369780.26146  22230847.614    22230854.614
       231.000         182.000
  22263038.680     7851591.29649   6126611.30247  22263037.920    22263045.579
       234.000         191.000
  23477696.133    -5676621.59049  -3669184.47845  23477695.240    23477705.062
       213.000         151.000
  22090134.312     8065832.47349   6299268.75746  22090134.568    22090142.911
       229.000         183.000
  24018241.522    -3327689.49149  -2333725.32945  24018240.798    24018254.658
       214.000         151.000
  20427469.751   -13548129.39049 -10512794.92348  20427469.197    20427475.041
       241.000         214.000
  20766378.954    -6679022.27449  -5192453.06247  20766378.156    20766385.639
       242.000         211.000
  22256472.604   -16409942.96849 -12762670.73247  22256471.985    22256480.397
       235.000         190.000
  23904139.933    -6509031.46549  -5040012.39945  23904138.289    23904149.327
       215.000         155.000
 02  2 13  3 11 30.0000000  0 10G15G26G23G29G 6G22G18G17G21G 3
  20657033.284   -11410568.37749  -8873905.28647  20657032.484    20657039.535
       244.000         210.000
  22242135.252    -4287227.14749  -3323558.02046  22242135.130    22242142.418
       229.000         181.000
  22276207.595     7920794.65249   6180536.02647  22276207.233    22276214.522
       234.000         190.000
  23457620.272    -5782119.95149  -3751390.77045  23457619.308    23457629.982
       213.000         151.000
  22107330.657     8156199.75749   6369684.78946  22107330.873    22107339.206
       229.000         183.000
  24026957.289    -3281888.22649  -2298036.02845  24026956.334    24026967.947
       212.000         152.000
  20427233.880   -13549368.72849 -10513760.58448  20427233.381    20427238.963
       242.000         215.000
  20765521.314    -6683528.95649  -5195964.71747  20765520.539    20765527.872
       243.000         211.000
  22247296.964   -16458160.72549 -12800242.89547  22247296.297    22247304.708
       235.000         190.000
  23886294.009    -6602811.32649  -5113087.38045  23886292.784    23886303.909
       213.000         155.000
 02  2 13  3 12  0.0000000  0 10G15G26G23G29G 6G22G18G17G21G 3
  20652726.250   -11433201.66649  -8891541.54347  20652725.306    20652732.529
       244.000         210.000
  22253527.959    -4227357.85949  -3276906.58746  22253527.513    22253534.824
       230.000         181.000
  22289396.178     7990101.27649   6234541.22647  22289395.223    22289402.975
       233.000         190.000
  23437563.710    -5887517.15949  -3833518.24945  23437563.133    23437573.905
       211.000         151.000
  22124588.557     8246890.46149   6440352.83546  22124588.156    22124596.480
       229.000         183.000
  24035733.822    -3235766.70849  -2262097.15245  24035733.208    24035744.264
       210.000         151.000
  20427070.190   -13550228.72649 -10514430.65348  20427069.604    20427075.419
       241.000         214.000
  20764700.436    -6687842.44049  -5199325.82847  20764699.797    20764706.925
       243.000         211.000
  22238172.289   -16506110.66549 -12837606.37647  22238171.784    22238180.314
       235.000         190.000
  23868490.696    -6696367.23049  -5185987.83645  23868490.208    23868501.067
       214.000         155.000
 02  2 13  3 12 30.0000000  0 10G15G26G23G29G 6G22G18G17G21G 3
  20648456.767   -11455637.71949  -8909024.11447  20648455.841    20648463.182
       244.000         210.000
  22265025.050    -4166940.20249  -3229827.86946  22265024.854    22265032.242
       228.000         181.000
  22302604.079     8059509.54549   6288625.61847  22302603.209    22302611.288
       233.000         190.000
  23417526.809    -5992810.83249  -3915565.04445  23417525.754    23417536.235
       213.000         152.000
  22141907.549     8337902.24749   6511271.07846  22141907.526    22141916.300
       229.000         183.000
  24044570.775    -3189327.44649  -2225910.70045  24044570.250    24044582.443
       213.000         151.000
  20426978.424   -13550710.64149 -10514806.11648  20426977.867    20426983.671
       241.000         214.000
  20763916.480    -6691961.91949  -5202535.76747  20763915.840    20763923.127
       243.000         211.000
  22229098.483   -16553793.41649 -12874761.65747  22229097.366    22229106.542
       235.000         190.000
  23850730.456    -6789696.53549  -5258711.72845  23850729.753    23850740.413
       217.000         156.000
 02  2 13  3 13  0.0000000  0 10G15G26G23G29G 6G22G18G17G21G 3
  20644224.857   -11477876.09549  -8926352.65047  20644223.971    20644231.151
       244.000         210.000
  22276625.979    -4105976.43649  -3182323.60946  22276626.073    22276632.738
       230.000         180.000
  22315830.925     8129017.33249   6342787.55347  22315829.902    22315837.750
       234.000         190.000
  23397510.062    -6097998.55649  -3997529.27645  23397508.642    23397520.139
       212.000         152.000
  22159287.173     8429232.57349   6582437.52746  22159286.585    22159296.043
       229.000         182.000
  24053467.882    -3142573.29949  -2189478.86645  24053467.941    24053479.615
       213.000         151.000
  20426958.335   -13550815.84549 -10514888.03648  20426957.781    20426963.519
       241.000         214.000
  20763169.539    -6695886.90249  -5205594.14647  20763168.817    20763176.027
       243.000         211.000
  22220075.405   -16601209.52049 -12911709.16647  22220074.602    22220083.470
       234.000         191.000
  23833013.801    -6882797.36849  -5331257.60445  23833013.308    23833024.598
       215.000         156.000
 02  2 13  3 13 30.0000000  0 10G15G26G23G29G 6G22G18G17G21G 3
  20640030.818   -11499915.57549  -8943526.20047  20640029.845    20640037.280
       244.000         210.000
  22288330.507    -4044468.74349  -3134395.50146  22288330.870    22288337.839
       229.000         180.000
  22329076.467     8198623.08649   6397025.82747  22329075.902    22329083.254
       233.000         190.000
  23377513.996    -6203077.43049  -4079408.70945  23377513.204    23377524.111
       214.000         152.000
  22176727.033     8520879.57949   6653850.75446  22176726.891    22176735.787
       228.000         182.000
  24062424.452    -3095506.70749  -2152803.59245  24062423.011    24062435.230
       213.000         151.000
  20427009.739   -13550545.48249 -10514677.30748  20427009.196    20427014.859
       241.000         214.000
  20762459.868    -6699616.29549  -5208500.12047  20762459.299    20762466.490
       242.000         210.000
  22211103.133   -16648358.66949 -12948448.65847  22211102.234    22211111.115
       234.000         191.000
  23815341.107    -6975667.05649  -5403623.35945  23815340.243    23815350.556
       216.000         156.000
 02  2 13  3 14  0.0000000  0 10G15G26G23G29G 6G22G18G17G21G 3
  20635874.757   -11521755.69049  -8960544.40447  20635873.792    20635880.816
       244.000         211.000
  22300138.122    -3982419.44249  -3086045.36146  22300137.476    22300144.251
       228.000         180.000
  22342340.264     8268324.98549   6451339.02347  22342339.770    22342346.778
       232.000         190.000
  23357539.206    -6308044.99749  -4161201.40345  23357537.763    23357548.772
       213.000         153.000
  22194226.700     8612840.89749   6725508.88746  22194226.767    22194235.278
       227.000         181.000
  24071439.682    -3048130.30549  -2115886.90545  24071439.149    24071449.615
       211.000         150.000
  20427132.332   -13549900.98849 -10514175.04948  20427131.721    20427137.389
       241.000         214.000
  20761787.582    -6703149.18749  -5211252.97347  20761786.924    20761793.831
       242.000         210.000
  22202181.545   -16695241.25949 -12984980.44247  22202180.620    22202189.369
       234.000         191.000
  23797712.888    -7068303.08149  -5475807.05545  23797710.678    23797722.924
       216.000         157.000
 02  2 13  3 14 30.0000000  0 10G15G26G23G29G 6G22G18G17G21G 3
  20631756.794   -11543395.36949  -8977406.42547  20631755.783    20631763.087
       244.000         211.000
  22312048.396    -3919830.69949  -3037274.87346  22312047.601    22312055.869
       227.000         180.000
  22355622.023     8338121.26149   6505725.74747  22355621.475    22355629.212
       233.000         189.000
  23337586.054    -6412898.50849  -4242905.22445  23337584.716    23337595.553
       215.000         154.000
  22211785.752     8705114.34249   6797410.23346  22211785.521    22211794.590
       227.000         181.000
  24080513.559    -3000446.72649  -2078730.83845  24080513.807    24080524.126
       213.000         150.000
  20427325.967   -13548883.14749 -10513381.87348  20427325.387    20427331.103
       241.000         214.000
  20761152.782    -6706484.58549  -5213851.93747  20761152.113    20761159.339
       242.000         210.000
  22193310.674   -16741857.64849 -13021304.79847  22193309.821    22193318.379
       235.000         191.000
  23780129.640    -7160702.98349  -5547806.77545  23780127.670    23780138.889
       214.000         157.000
 02  2 13  3 15  0.0000000  0 10G15G26G23G29G 6G22G18G17G21G 3
  20627677.081   -11564834.10349  -8994111.86647  20627676.297    20627683.237
       244.000         211.000
  22324060.799    -3856704.97849  -2988085.96946  22324060.644    22324067.895
       228.000         179.000
  22368921.461     8408010.31649   6560184.77047  22368921.168    22368928.371
       234.000         189.000
  23317655.147    -6517635.23049  -4324518.04645  23317654.514    23317665.137
       214.000         154.000
  22229403.776     8797697.50749   6869552.91946  22229403.814    22229412.534
       228.000         181.000
  24089645.628    -2952458.56949  -2041337.44345  24089644.226    24089656.610
       212.000         151.000
  20427590.402   -13547493.41649 -10512298.91648  20427589.714    20427595.462
       241.000         214.000
  20760555.721    -6709621.84749  -5216296.51147  20760555.137    20760562.201
       243.000         210.000
  22184490.264   -16788208.85049 -13057422.51647  22184489.448    22184498.065
       235.000         191.000
  23762591.764    -7252864.39049  -5619620.62645  23762590.291    23762600.643
       218.000         157.000
 02  2 13  3 15 30.0000000  0 10G15G26G23G29G 6G22G18G17G21G 3
  20623635.953   -11586070.20749  -9010659.41547  20623635.065    20623642.319
       245.000         211.000
  22336175.123    -3793043.61949  -2938479.69546  22336175.018    22336182.537
       226.000         179.000
  22382238.428     8477991.40149   6614715.50647  22382238.039    22382245.481
       234.000         189.000
  23297747.120    -6622251.73449  -4406037.18445  23297746.136    23297756.389
       217.000         155.000
  22247080.484     8890589.02749   6941935.88146  22247080.087    22247089.076
       227.000         180.000
  24098834.702    -2904167.63949  -2003708.15145  24098832.985    24098846.295
       210.000         150.000
  20427925.497   -13545732.14749 -10510926.44748  20427925.002    20427930.698
       241.000         214.000
  20759996.814    -6712559.14749  -5218585.26847  20759996.234    20760003.451
       242.000         210.000
  22175720.506   -16834294.02849 -13093332.94847  22175719.769    22175728.164
       235.000         191.000
  23745099.906    -7344783.93249  -5691246.03545  23745099.470    23745108.976
       215.000         158.000
 02  2 13  3 16  0.0000000  0 10G15G26G23G29G 6G22G18G17G21G 3
  20619633.506   -11607103.06549  -9027048.58847  20619632.565    20619639.756
       244.000         211.000
  22348390.808    -3728849.31749  -2888458.13846  22348390.301    22348397.369
       227.000         179.000
  22395572.463     8548062.22649   6669316.17347  22395571.818    22395579.462
       233.000         189.000
  23277862.407    -6726746.00349  -4487461.07545  23277861.052    23277871.086
       216.000         155.000
  22264815.381     8983786.41849   7014557.19246  22264815.659    22264823.869
       227.000         180.000
  24108081.151    -2855577.07749  -1965845.35945  24108081.732    24108090.842
       213.000         150.000
  20428331.026   -13543600.98049 -10509265.74648  20428330.411    20428336.171
       241.000         214.000
  20759475.887    -6715295.99149  -5220717.82247  20759475.164    20759482.475
       243.000         210.000
  22167001.164   -16880114.02949 -13129036.74747  22167000.335    22167008.812
       235.000         191.000
  23727654.401    -7436459.61249  -5762681.40545  23727654.457    23727663.896
       218.000         158.000
 02  2 13  3 16 30.0000000  0 10G15G26G23G29G 6G22G18G17G21G 3
  20615669.865   -11627931.86649  -9043278.76147  20615669.129    20615676.188
       244.000         211.000
  22360707.511    -3664124.35549  -2838023.06846  22360707.544    22360714.761
       228.000         178.000
  22408923.304     8618221.32549   6723985.61647  22408923.165    22408930.386
       233.000         189.000
  23258001.473    -6831114.88649  -4568787.25945  23258001.061    23258011.062
       214.000         156.000
  22282608.090     9077287.48649   7087415.12746  22282608.071    22282617.007
       228.000         180.000
  24117384.555    -2806689.38549  -1927751.00745  24117383.123    24117395.717
       213.000         150.000
  20428806.667   -13541101.13649 -10507317.76748  20428806.002    20428811.878
       243.000         214.000
  20758993.406    -6717831.27049  -5222693.31747  20758992.768    20758999.884
       243.000         210.000
  22158332.243   -16925669.14449 -13164534.13847  22158331.117    22158339.738
       235.000         192.000
  23710255.866    -7527888.68949  -5833924.62845  23710256.001    23710265.472
       218.000         158.000
 02  2 13  3 17  0.0000000  0 10G15G26G23G29G 6G22G18G17G21G 3
  20611745.261   -11648555.54649  -9059349.10047  20611744.516    20611751.383
       244.000         211.000
  22373124.833    -3598870.94449  -2787176.22546  22373124.798    22373132.519
       227.000         178.000
  22422290.632     8688467.16849   6778722.65947  22422290.221    22422297.706
       232.000         188.000
  23238164.861    -6935355.74749  -4650013.67445  23238164.693    23238174.554
       216.000         156.000
  22300458.129     9171089.95649   7160507.92346  22300457.924    22300466.835
       228.000         179.000
  24126743.219    -2757506.97149  -1889427.05045  24126741.804    24126754.861
       212.000         150.000
  20429352.322   -13538233.58249 -10505083.26048  20429351.714    20429357.333
       243.000         214.000
  20758549.482    -6720164.15949  -5224511.10847  20758548.686    20758555.813
       243.000         210.000
  22149713.657   -16970959.60849 -13199825.31547  22149713.253    22149721.628
       235.000         192.000
  23692904.745    -7619068.73549  -5904973.79045  23692904.044    23692913.680
       218.000         158.000
 02  2 13  3 17 30.0000000  0 10G15G26G23G29G 6G22G18G17G21G 3
  20607859.780   -11668973.71049  -9075259.29947  20607859.026    20607865.987
       244.000         211.000
  22385642.155    -3533091.97449  -2735919.84146  22385641.853    22385648.644
       227.000         178.000
  22435674.065     8758797.59049   6833525.61047  22435673.646    22435681.006
       232.000         188.000
  23218353.122    -7039466.40649  -4731138.63245  23218352.549    23218362.869
       217.000         157.000
  22318365.024     9265191.05949   7233833.42846  22318365.157    22318373.580
       226.000         179.000
  24136157.963    -2708033.01249  -1850875.90845  24136157.446    24136168.898
       214.000         151.000
  20429967.565   -13535000.35449 -10502563.81248  20429967.128    20429972.731
       243.000         214.000
  20758144.138    -6722293.98549  -5226170.66747  20758143.666    20758150.462
       242.000         210.000
  22141145.357   -17015985.97549 -13234910.70247  22141144.585    22141152.889
       235.000         192.000
  23675601.413    -7709997.72549  -5975827.32745  23675600.893    23675610.716
       217.000         159.000
 02  2 13  3 18  0.0000000  0 10G15G26G23G29G 6G22G18G17G21G 3
  20604013.578   -11689185.38049  -9091008.59547  20604012.689    20604019.692
       245.000         211.000
  22398259.012    -3466789.59049  -2684255.63246  22398258.708    22398266.452
       227.000         178.000
  22449073.252     8829210.85349   6888393.10546  22449072.720    22449080.609
       232.000         187.000
  23198566.626    -7143444.18449  -4812160.04545  23198566.397    23198575.500
       217.000         157.000
  22336328.287     9359588.59549   7307389.90046  22336328.152    22336336.786
       226.000         179.000
  24145627.974    -2658270.20149  -1812099.65245  24145625.701    24145638.038
       213.000         151.000
  20430652.178   -13531402.54149 -10499760.27148  20430651.704    20430657.355
       243.000         215.000
  20757777.654    -6724219.75949  -5227671.22447  20757776.960    20757783.915
       242.000         210.000
  22132627.121   -17060749.20849 -13269791.04747  22132626.402    22132634.946
       235.000         192.000
  23658346.322    -7800672.96149  -6046483.12445  23658346.008    23658355.553
       216.000         159.000
 02  2 13  3 18 30.0000000  0 10G15G26G23G29G 6G22G18G17G21G 3
  20600206.848   -11709189.47449  -9106596.14247  20600205.954    20600212.969
       244.000         211.000
  22410975.088    -3399966.01849  -2632185.28346  22410975.005    22410982.300
       227.000         178.000
  22462487.921     8899705.69749   6943324.16646  22462487.503    22462495.166
       232.000         187.000
  23178805.982    -7247286.13049  -4893075.61045  23178805.637    23178815.575
       216.000         158.000
  22354347.620     9454280.86249   7381176.04246  22354347.687    22354356.381
       227.000         179.000
  24155151.508    -2608220.76449  -1773100.09545  24155150.437    24155161.781
       209.000         150.000
  20431405.994   -13527440.99349 -10496673.30048  20431405.442    20431411.201
       243.000         215.000
  20757450.211    -6725940.25449  -5229011.82547  20757449.647    20757456.623
       243.000         210.000
  22124159.005   -17105249.06449 -13304466.16547  22124158.284    22124166.483
       235.000         192.000
  23641140.063    -7891091.63649  -6116938.99545  23641139.750    23641149.307
       219.000         159.000
 02  2 13  3 19  0.0000000  0 10G15G26G23G29G 6G22G18G17G21G 3
  20596439.921   -11728984.66049  -9122020.90447  20596439.032    20596445.986
       244.000         211.000
  22423789.937    -3332623.30949  -2579710.43746  22423790.143    22423797.195
       228.000         177.000
  22475917.920     8970280.82449   6998317.78546  22475917.186    22475924.677
       232.000         187.000
  23159071.753    -7350989.08449  -4973882.87045  23159071.019    23159080.983
       216.000         159.000
  22372422.694     9549265.66349   7455190.13346  22372422.654    22372431.263
       227.000         179.000
  24164729.936    -2557887.14849  -1733879.07845  24164729.196    24164741.733
       213.000         150.000
  20432228.824   -13523116.65749 -10493303.63948  20432228.283    20432234.046
       243.000         215.000
  20757162.093    -6727454.22049  -5230191.49347  20757161.756    20757168.471
       243.000         210.000
  22115741.049   -17149485.43949 -13338935.97447  22115740.352    22115748.522
       235.000         192.000
  23623983.177    -7981251.01949  -6187192.83645  23623983.347    23623991.421
       218.000         159.000
 02  2 13  3 19 30.0000000  0 10G15G26G23G29G 6G22G18G17G21G 3
  20592712.747   -11748570.86549  -9137282.82747  20592711.892    20592718.992
       244.000         211.000
  22436703.035    -3264764.70749  -2526833.56646  22436702.354    22436709.945
       224.000         177.000
  22489362.723     9040933.82249   7053372.09046  22489362.608    22489369.574
       231.000         187.000
  23139364.363    -7454551.38949  -5054580.54045  23139363.712    23139373.919
       217.000         160.000
  22390552.820     9644539.93249   7529429.78146  22390552.603    22390561.891
       227.000         178.000
  24174361.713    -2507272.78249  -1694439.29445  24174359.759    24174371.363
       211.000         151.000
  20433120.335   -13518431.57549 -10489652.87748  20433119.746    20433125.488
       243.000         215.000
  20756913.344    -6728761.50249  -5231210.11147  20756912.658    20756919.743
       243.000         210.000
  22107372.987   -17193459.55349 -13373201.42847  22107372.275    22107380.575
       236.000         192.000
  23606875.945    -8071149.43449  -6257243.32745  23606875.060    23606884.973
       217.000         159.000
 02  2 13  3 20  0.0000000  0 10G15G26G23G29G 6G22G18G17G21G 3
  20589025.677   -11767946.39449  -9152380.58347  20589024.745    20589031.726
       245.000         211.000
  22449713.925    -3196391.63849  -2473555.83546  22449713.767    22449720.908
       227.000         177.000
  22502822.194     9111663.99749   7108486.52546  22502821.881    22502829.357
       232.000         187.000
  23119684.462    -7557969.26349  -5135165.66745  23119684.046    23119693.782
       216.000         161.000
  22408737.820     9740102.22249   7603893.85746  22408738.433    22408746.126
       226.000         178.000
  24184045.997    -2456379.40549  -1654782.13945  24184044.614    24184056.976
       211.000         150.000
  20434080.402   -13513386.12449 -10485721.30648  20434079.891    20434085.512
       243.000         215.000
  20756704.278    -6729860.13749  -5232066.14147  20756703.553    20756710.634
       242.000         210.000
  22099054.879   -17237171.09149 -13407262.27647  22099054.293    22099062.413
       236.000         193.000
  23589818.949    -8160783.40149  -6327087.75745  23589817.709    23589827.494
       217.000         159.000
 02  2 13  3 20 30.0000000  0 10G15G26G23G29G 6G22G18G17G21G 3
  20585379.025   -11787109.35149  -9167312.70047  20585378.009    20585385.097
       244.000         212.000
  22462822.436    -3127505.64449  -2419878.40446  22462822.851    22462829.465
       229.000         177.000
  22516296.261     9182470.78649   7163660.67046  22516295.423    22516302.897
       231.000         186.000
  23100032.686    -7661239.08249  -5215635.42645  23100031.781    23100041.453
       216.000         161.000
  22426977.327     9835951.22149   7678581.35946  22426977.117    22426986.143
       226.000         178.000
  24193783.386    -2405208.69949  -1614908.85745  24193782.983    24193795.195
       211.000         150.000
  20435109.018   -13507980.61649 -10481509.17348  20435108.479    20435114.053
       243.000         215.000
  20756535.205    -6730748.36349  -5232758.22147  20756534.500    20756541.436
       242.000         210.000
  22090786.927   -17280619.14049 -13441117.81147  22090786.317    22090794.269
       236.000         193.000
  23572813.019    -8250149.35349  -6396723.33845  23572811.682    23572821.031
       216.000         159.000
 02  2 13  3 21  0.0000000  0 10G15G26G23G29G 6G22G18G17G21G 3
  20581772.634   -11806060.96549  -9182080.13547  20581771.836    20581778.620
       245.000         212.000
  22476027.720    -3058111.36049  -2365804.90646  22476027.810    22476034.581
       228.000         176.000
  22529784.221     9253350.40149   7218891.55946  22529783.745    22529791.461
       231.000         186.000
  23080409.166    -7764360.54949  -5295989.59445  23080408.716    23080418.150
       216.000         161.000
  22445270.513     9932082.50649   7753488.81246  22445270.483    22445278.984
       225.000         177.000
  24203572.691    -2353765.56749  -1574823.29945  24203571.866    24203584.439
       213.000         150.000
  20436205.441   -13502218.62449 -10477019.25848  20436205.030    20436210.418
       243.000         215.000
  20756405.947    -6731427.27649  -5233287.20247  20756405.380    20756412.270
       243.000         210.000
  22082568.580   -17323806.47949 -13474770.19747  22082568.076    22082576.198
       235.000         193.000
  23555858.092    -8339247.24749  -6466150.05745  23555856.590    23555867.391
       218.000         160.000
 02  2 13  3 21 30.0000000  0 10G15G26G23G29G 6G22G18G17G21G 3
  20578206.779   -11824799.36549  -9196681.43047  20578205.835    20578212.910
       244.000         212.000
  22489329.472    -2988210.25649  -2311336.48146  22489328.732    22489336.373
       226.000         176.000
  22543285.853     9324302.02749   7274178.56346  22543284.659    22543292.785
       233.000         186.000
  23060814.618    -7867329.92549  -5376225.25345  23060814.340    23060823.347
       215.000         162.000
  22463617.191    10028494.74249   7828615.18546  22463616.912    22463625.708
       225.000         176.000
  24213413.595    -2302051.86249  -1534526.91545  24213412.973    24213425.632
       214.000         151.000
  20437369.634   -13496100.57549 -10472251.89548  20437369.004    20437374.609
       243.000         215.000
  20756316.872    -6731895.06949  -5233651.67047  20756316.191    20756323.185
       242.000         210.000
  22074399.834   -17366733.05049 -13508219.38547  22074399.271    22074407.520
       235.000         193.000
  23538954.832    -8428073.48949  -6535365.10445  23538953.841    23538963.251
       218.000         160.000
 02  2 13  3 22  0.0000000  0 10G15G26G23G29G 6G22G18G17G21G 3
  20574681.488   -11843324.74849  -9211116.73547  20574680.725    20574687.704
       245.000         212.000
  22502726.953    -2917805.99149  -2256475.99046  22502726.966    22502734.534
       225.000         176.000
  22556800.702     9395323.07849   7329519.66446  22556800.172    22556807.273
       233.000         186.000
  23041249.272    -7970145.50349  -5456341.07145  23041248.416    23041257.938
       218.000         162.000
  22482016.613    10125184.38349   7903957.72346  22482016.074    22482025.071
       223.000         176.000
  24223305.213    -2250071.19349  -1494022.50045  24223305.075    24223315.626
       213.000         150.000
  20438601.139   -13489628.65449 -10467208.79148  20438600.761    20438606.113
       243.000         215.000
  20756267.983    -6732151.77449  -5233851.66047  20756267.415    20756274.354
       242.000         210.000
  22066280.476   -17409400.26949 -13541466.48647  22066279.722    22066287.904
       236.000         193.000
  23522103.571    -8516626.81849  -6604367.50045  23522102.387    23522112.512
       219.000         160.000
 02  2 13  3 22 30.0000000  0 10G15G26G23G29G 6G22G18G17G21G 3
  20571197.147   -11861634.72149  -9225384.19247  20571196.447    20571203.391
       245.000         212.000
  22516219.988    -2846899.50849  -2201224.17346  22516219.995    22516226.542
       222.000         175.000
  22570328.733     9466413.61649   7384914.89846  22570328.816    22570335.706
       233.000         186.000
  23021713.989    -8072803.29549  -5536333.95545  23021713.729    23021722.687
       218.000         162.000
  22500468.665    10222150.66749   7979515.81946  22500468.510    22500477.468
       223.000         176.000
  24233247.414    -2197824.79849  -1453311.02445  24233247.782    24233257.415
       215.000         151.000
  20439900.067   -13482802.68949 -10461889.80848  20439899.492    20439905.072
       243.000         215.000
  20756259.734    -6732194.82149  -5233885.16247  20756259.141    20756266.180
       243.000         210.000
  22058210.686   -17451806.87049 -13574510.50847  22058210.029    22058217.953
       236.000         193.000
  23505304.963    -8604903.28949  -6673154.17545  23505304.986    23505313.071
       220.000         161.000
 02  2 13  3 23  0.0000000  0 10G15G26G23G29G 6G22G18G17G21G 3
  20567753.841   -11879729.24449  -9239483.75647  20567753.031    20567760.003
       244.000         212.000
  22529807.897    -2775494.11749  -2145583.58946  22529808.058    22529815.176
       225.000         175.000
  22583869.627     9537571.29749   7440362.46046  22583869.093    22583876.808
       230.000         186.000
  23002209.100    -8175301.24149  -5616202.28545  23002208.452    23002217.674
       217.000         162.000
  22518972.878    10319390.64849   8055287.19046  22518972.720    22518981.806
       225.000         176.000
  24243239.612    -2145316.18649  -1412395.21545  24243238.755    24243251.062
       212.000         151.000
  20441265.958   -13475624.79249 -10456296.59148  20441265.346    20441270.952
       243.000         215.000
  20756292.217    -6732024.06349  -5233752.06247  20756291.518    20756298.405
       243.000         210.000
  22050190.292   -17493954.09349 -13607352.41547  22050189.561    22050197.658
       237.000         194.000
  23488559.420    -8692900.76049  -6741723.45045  23488559.119    23488568.755
       220.000         161.000
 02  2 13  3 23 30.0000000  0 10G15G26G23G29G 6G22G18G17G21G 3
  20564351.828   -11897606.64049  -9253414.13647  20564351.016    20564357.838
       244.000         212.000
  22543490.426    -2703591.68549  -2089555.67646  22543490.496    22543497.376
       226.000         175.000
  22597423.099     9608795.12349   7495861.58546  22597422.320    22597430.238
       230.000         186.000
  22982735.293    -8277636.00049  -5695943.46046  22982734.264    22982743.780
       216.000         163.000
  22537528.812    10416902.57349   8131270.46446  22537529.063    22537537.344
       225.000         175.000
  24253280.874    -2092547.34249  -1371276.65245  24253280.273    24253292.306
       211.000         151.000
  20442698.681   -13468095.67749 -10450429.70248  20442698.384    20442703.691
       243.000         215.000
  20756365.709    -6731637.78849  -5233451.02947  20756365.147    20756371.900
       243.000         210.000
  22042219.204   -17535842.16849 -13639992.39347  22042218.380    22042226.504
       237.000         194.000
  23471867.589    -8780616.11649  -6810072.90345  23471866.195    23471876.171
       220.000         162.000
 02  2 13  3 24  0.0000000  0 10G15G26G23G29G 6G22G18G17G21G 3
  20560991.248   -11915266.44949  -9267174.96847  20560990.343    20560997.162
       246.000         212.000
  22557266.969    -2631195.45049  -2033142.99446  22557266.919    22557274.469
       224.000         175.000
  22610988.726     9680083.06149   7551410.64746  22610988.348    22610995.439
       231.000         185.000
  22963292.954    -8379805.65149  -5775555.98146  22963292.214    22963301.962
       218.000         163.000
  22556135.878    10514683.37249   8207463.25346  22556136.342    22556144.119
       222.000         175.000
  24263371.384    -2039521.75849  -1329958.01745  24263371.737    24263382.352
       213.000         151.000
  20444197.897   -13460217.07849 -10444290.48748  20444197.467    20444202.717
       243.000         215.000
  20756480.249    -6731035.82349  -5232981.92147  20756479.578    20756486.383
       242.000         210.000
  22034297.229   -17577472.07849 -13672431.20047  22034296.694    22034304.573
       237.000         194.000
  23455229.743    -8868047.67549  -6878201.22045  23455229.273    23455238.219
       221.000         162.000
 02  2 13  3 24 30.0000000  0 10G15G26G23G29G 6G22G18G17G21G 3
  20557672.277   -11932707.58849  -9280765.40547  20557671.310    20557678.341
       246.000         212.000
  22571137.108    -2558307.51149  -1976347.16946  22571136.817    22571144.722
       227.000         174.000
  22624566.353     9751433.89349   7607008.71346  22624565.829    22624573.033
       231.000         185.000
  22943882.583    -8481807.05349  -5855037.40246  22943881.491    22943891.301
       219.000         163.000
  22574793.762    10612731.14449   8283864.05346  22574793.985    22574802.448
       224.000         174.000
  24273510.601    -1986241.67449  -1288441.05245  24273509.189    24273520.931
       214.000         150.000
  20445763.403   -13451990.08049 -10437879.79548  20445762.833    20445768.191
       243.000         215.000
  20756636.122    -6730216.49549  -5232343.44347  20756635.470    20756642.401
       242.000         210.000
  22026424.421   -17618843.63349 -13704668.69547  22026423.784    22026431.645
       237.000         194.000
  23438646.470    -8955192.52049  -6946106.13845  23438645.653    23438655.090
       221.000         162.000
 02  2 13  3 25  0.0000000  0 10G15G26G23G29G 6G22G18G17G21G 3
  20554394.940   -11949929.71349  -9294185.18347  20554394.009    20554400.864
       246.000         212.000
  22585100.149    -2484931.13349  -1919170.76546  22585099.921    22585107.295
       222.000         174.000
  22638155.506     9822845.56349   7662654.20246  22638155.181    22638161.985
       230.000         185.000
  22924504.589    -8583638.09949  -5934386.07346  22924504.106    22924512.999
       218.000         164.000
  22593501.844    10711042.85249   8360470.53146  22593501.544    22593510.231
       223.000         174.000
  24283697.124    -1932710.53449  -1246728.47545  24283695.178    24283709.553
       212.000         150.000
  20447394.841   -13443416.66649 -10431199.16648  20447394.363    20447399.823
       243.000         215.000
  20756833.394    -6729179.66649  -5231535.48647  20756832.824    20756839.595
       242.000         210.000
  22018600.543   -17659957.99549 -13736705.77647  22018599.741    22018608.286
       238.000         195.000
  23422118.073    -9042049.01249  -7013786.35145  23422117.376    23422126.351
       220.000         162.000
 02  2 13  3 25 30.0000000  0 10G15G26G23G29G 6G22G18G17G21G 3
  20551159.765   -11966930.45249  -9307432.45347  20551159.009    20551165.818
       246.000         212.000
  22599155.848    -2411067.54149  -1861614.67846  22599156.889    22599162.817
       227.000         174.000
  22651756.172     9894317.78649   7718346.87446  22651755.386    22651762.382
       231.000         184.000
  22905159.752    -8685295.00049  -6013599.04746  22905159.188    22905168.053
       218.000         164.000
  22612259.968    10809617.47049   8437281.87046  22612260.368    22612269.347
       222.000         173.000
  24293931.010    -1878929.60849  -1204821.28545  24293930.872    24293942.408
       211.000         150.000
  20449092.186   -13434496.91249 -10424248.66448  20449091.728    20449097.028
       243.000         215.000
  20757072.564    -6727922.84649  -5230556.10547  20757071.938    20757078.599
       242.000         210.000
  22010825.836   -17700814.06749 -13768541.59747  22010824.833    22010833.068
       238.000         195.000
  23405645.341    -9128613.25849  -7081238.85346  23405644.679    23405653.954
       221.000         163.000
 02  2 13  3 26  0.0000000  0 10G15G26G23G29G 6G22G18G17G21G 3
  20547966.780   -11983709.39049  -9320506.89247  20547965.919    20547972.976
       246.000         212.000
  22613303.715    -2336720.08249  -1803681.55346  22613303.676    22613310.188
       226.000         173.000
  22665367.954     9965848.41249   7774085.03946  22665367.882    22665374.969
       232.000         184.000
  22885848.509    -8786775.81149  -6092674.81346  22885847.967    22885857.631
       217.000         164.000
  22631067.557    10908451.90149   8514295.65346  22631067.278    22631076.283
       224.000         173.000
  24304212.273    -1824902.52649  -1162722.23845  24304210.785    24304223.013
       214.000         150.000
  20450854.996   -13425233.03449 -10417030.01248  20450854.388    20450859.780
       244.000         215.000
  20757353.535    -6726445.93449  -5229405.22847  20757352.754    20757359.834
       242.000         210.000
  22003099.921   -17741413.69349 -13800177.58347  22003099.541    22003107.247
       237.000         195.000
  23389228.522    -9214883.40049  -7148462.18446  23389228.344    23389236.503
       221.000         163.000
 02  2 13  3 26 30.0000000  0 11G15G26G23G29G 6G22G18G17G14G21G 3
  20544815.928   -12000266.78349  -9333408.69747  20544815.130    20544821.965
       246.000         212.000
  22627542.945    -2261892.34549  -1745374.19246  22627542.858    22627549.951
       223.000         173.000
  22678990.389    10037435.02549   7829866.84346  22678990.332    22678996.913
       231.000         184.000
  22866571.041    -8888078.51849  -6171611.78846  22866570.653    22866579.356
       218.000         164.000
  22649923.946    11007542.84449   8591509.32246  22649924.224    22649932.939
       223.000         172.000
  24314539.376    -1770632.80849  -1120434.14445  24314538.665    24314550.453
       210.000         149.000
  20452682.931   -13415627.03649 -10409544.77348  20452682.582    20452687.778
       244.000         215.000
  20757676.458    -6724748.84449  -5228082.77847  20757675.570    20757682.601
       242.000         210.000
  24662260.186    -1108597.03749   -841778.38445  24662263.680    24662277.316
       204.000         136.000
  21995422.601   -17781757.93349 -13831614.56947  21995422.126    21995429.922
       238.000         195.000
  23372868.035    -9300857.68049  -7215454.96546  23372867.590    23372876.687
       221.000         164.000
 02  2 13  3 27  0.0000000  0 11G15G26G23G29G 6G22G18G17G14G21G 3
  20541707.539   -12016601.31349  -9346136.84547  20541706.642    20541713.421
       246.000         212.000
  22641873.143    -2186586.43849  -1686694.26746  22641873.867    22641880.165
       227.000         173.000
  22692623.287    10109076.50249   7885691.39846  22692622.644    22692629.875
       231.000         184.000
  22847328.074    -8989200.33149  -6250407.80646  22847327.484    22847337.185
       220.000         165.000
  22668828.847    11106888.31049   8668921.32246  22668829.466    22668837.735
       223.000         172.000
  24324912.158    -1716122.99449  -1077958.97345  24324912.294    24324924.355
       213.000         149.000
  20454575.741   -13405679.93249 -10401793.74048  20454575.232    20454580.655
       244.000         215.000
  20758041.528    -6722830.09849  -5226587.61647  20758040.777    20758047.911
       242.000         210.000
  24640680.383    -1222011.93949   -930153.28445  24640680.092    24640693.541
       204.000         137.000
  21987793.850   -17821846.99349 -13862852.71247  21987793.098    21987801.427
       238.000         195.000
  23356564.379    -9386533.40649  -7282215.10746  23356563.558    23356572.990
       221.000         164.000
 02  2 13  3 27 30.0000000  0 11G15G26G23G29G 6G22G18G17G14G21G 3
  20538641.803   -12032711.69249  -9358690.33247  20538641.145    20538647.691
       246.000         212.000
  22656293.840    -2110804.97049  -1627643.71246  22656293.764    22656300.712
       226.000         173.000
  22706266.420    10180771.53449   7941557.68846  22706265.569    22706273.573
       230.000         184.000
  22828120.091    -9090138.22049  -6329060.51046  22828119.392    22828128.886
       219.000         166.000
  22687781.752    11206486.07949   8746529.92046  22687781.895    22687790.951
       223.000         172.000
  24335330.399    -1661375.48549  -1035298.58345  24335329.752    24335340.774
       214.000         149.000
  20456533.246   -13395393.02849 -10393777.92948  20456532.727    20456538.100
       244.000         215.000
  20758449.011    -6720688.51949  -5224918.81147  20758448.345    20758455.154
       242.000         210.000
  24619099.881    -1335421.91049  -1018524.35845  24619100.132    24619113.343
       207.000         138.000
  21980213.548   -17861681.34549 -13893892.37347  21980212.785    21980220.858
       238.000         195.000
  23340318.019    -9471907.75949  -7348740.42746  23340317.564    23340326.476
       221.000         164.000
 02  2 13  3 28  0.0000000  0 11G15G26G23G29G 6G22G18G17G14G21G 3
  20535618.834   -12048597.16349  -9371068.56747  20535617.978    20535624.809
       246.000         212.000
  22670804.513    -2034550.66149  -1568224.75246  22670804.768    22670811.602
       223.000         173.000
  22719919.388    10252518.51949   7997464.45246  22719918.837    22719926.494
       231.000         184.000
  22808947.573    -9190889.71849  -6407567.97246  22808947.184    22808955.688
       220.000         166.000
  22706782.154    11306333.56749   8824333.10846  22706782.771    22706790.985
       223.000         171.000
  24345793.324    -1606393.32649   -992455.32745  24345792.089    24345803.932
       211.000         148.000
  20458555.150   -13384767.62149 -10385498.34948  20458554.587    20458560.029
       243.000         215.000
  20758899.092    -6718323.23449  -5223075.69647  20758898.364    20758905.300
       242.000         210.000
  24597520.326    -1448824.57349  -1106889.75445  24597520.621    24597531.667
       204.000         137.000
  21972681.581   -17901261.71049 -13924734.13147  21972681.189    21972688.705
       238.000         195.000
  23324129.443    -9556978.38549  -7415029.06946  23324128.922    23324138.819
       219.000         165.000
